[[{"header":{"parameterUnit":"m.s-1","parameterCategory":1,"la1":30.6,"la2":28.766,"lo1":-90.7593,"lo2":-88.6598,"dy":0.0162,"dx":0.0183,"nx":116,"ny":114,"refTime":"2024-05-11T06:00:00:Z","depth":0,"parameterNumber":2,"parameterNumberName":"U-component_of_WINDS"},"data":[0.0,0.0,0.0,0.0,0.0,0.0,0.0,0.0,0.0,0.0,0.0,0.0,0.0,0.0,0.0,0.0,0.0,0.0,0.0,0.0,0.0,0.0,0.0,0.0,0.0,0.0,0.0,0.0,0.0,0.0,0.0,0.0,0.0,0.0,0.0,0.0,0.0,0.0,0.0,0.0,0.0,0.0,0.0,0.0,0.0,0.0,0.0,0.0,0.0,0.0,0.0,0.0,0.0,0.0,0.0,0.0,0.0,0.0,0.0,0.0,0.0,0.0,0.0,0.0,0.0,0.0,0.0,0.0,0.0,0.0,0.0,0.0,0.0,0.0,0.0,0.0,0.0,0.0,0.0,0.0,0.0,0.0,0.0,0.0,0.0,0.0,0.0,0.0,0.0,0.0,0.0,0.0,0.0,0.0,0.0,0.0,0.0,0.0,0.0,0.0,0.0,0.0,0.0,0.0,0.0,0.0,0.0,0.0,0.0,0.0,0.0,0.0,0.0,0.0,0.0,0.0,0.0,0.0,0.0,0.0,0.0,0.0,0.0,0.0,0.0,0.0,0.0,0.0,0.0,0.0,0.0,0.0,0.0,0.0,0.0,0.0,0.0,0.0,0.0,0.0,0.0,0.0,0.0,0.0,0.0,0.0,0.0,0.0,0.0,0.0,0.0,0.0,0.0,0.0,0.0,0.0,0.0,0.0,0.0,0.0,0.0,0.0,0.0,0.0,0.0,0.0,0.0,0.0,0.0,0.0,0.0,0.0,0.0,0.0,0.0,0.0,0.0,0.0,0.0,0.0,0.0,0.0,0.0,0.0,0.0,0.0,0.0,0.0,0.0,0.0,0.0,0.0,0.0,0.0,0.0,0.0,0.0,0.0,0.0,0.0,0.0,0.0,0.0,0.0,0.0,0.0,0.0,0.0,0.0,0.0,0.0,0.0,0.0,0.0,0.0,0.0,0.0,0.0,0.0,0.0,0.0,0.0,0.0,0.0,0.0,0.0,0.0,0.0,0.0,0.0,0.0,0.0,0.0,0.0,0.0,0.0,0.0,0.0,0.0,0.0,0.0,0.0,0.0,0.0,0.0,0.0,0.0,0.0,0.0,0.0,0.0,0.0,0.0,0.0,0.0,0.0,0.0,0.0,0.0,0.0,0.0,0.0,0.0,0.0,0.0,0.0,0.0,0.0,0.0,0.0,0.0,0.0,0.0,0.0,0.0,0.0,0.0,0.0,0.0,0.0,0.0,0.0,0.0,0.0,0.0,0.0,0.0,0.0,0.0,0.0,0.0,0.0,0.0,0.0,0.0,0.0,0.0,0.0,0.0,0.0,0.0,0.0,0.0,0.0,0.0,0.0,0.0,0.0,0.0,0.0,0.0,0.0,0.0,0.0,0.0,0.0,0.0,0.0,0.0,0.0,0.0,0.0,0.0,0.0,0.0,0.0,0.0,0.0,0.0,0.0,0.0,0.0,0.0,0.0,0.0,0.0,0.0,0.0,0.0,0.0,0.0,0.0,0.0,0.0,0.0,0.0,0.0,0.0,0.0,0.0,0.0,0.0,0.0,0.0,0.0,0.0,0.0,0.0,0.0,0.0,0.0,0.0,0.0,0.0,0.0,0.0,0.0,0.0,0.0,0.0,0.0,0.0,0.0,0.0,0.0,0.0,0.0,0.0,0.0,0.0,0.0,0.0,0.0,0.0,0.0,0.0,0.0,0.0,0.0,0.0,0.0,0.0,0.0,0.0,0.0,0.0,0.0,0.0,0.0,0.0,0.0,0.0,0.0,0.0,0.0,0.0,0.0,0.0,0.0,0.0,0.0,0.0,0.0,0.0,0.0,0.0,0.0,0.0,0.0,0.0,0.0,0.0,0.0,0.0,0.0,0.0,0.0,0.0,0.0,0.0,0.0,0.0,0.0,0.0,0.0,0.0,0.0,0.0,0.0,0.0,0.0,0.0,0.0,0.0,0.0,0.0,0.0,0.0,0.0,0.0,0.0,0.0,0.0,0.0,0.0,0.0,0.0,0.0,0.0,0.0,0.0,0.0,0.0,0.0,0.0,0.0,0.0,0.0,0.0,0.0,0.0,0.0,0.0,0.0,0.0,0.0,0.0,0.0,0.0,0.0,0.0,0.0,0.0,0.0,0.0,0.0,0.0,0.0,0.0,0.0,0.0,0.0,0.0,0.0,0.0,0.0,0.0,0.0,0.0,0.0,0.0,0.0,0.0,0.0,0.0,0.0,0.0,0.0,0.0,0.0,0.0,0.0,0.0,0.0,0.0,0.0,0.0,0.0,0.0,0.0,0.0,0.0,0.0,0.0,0.0,0.0,0.0,0.0,0.0,0.0,0.0,0.0,0.0,0.0,0.0,0.0,0.0,0.0,0.0,0.0,0.0,0.0,0.0,0.0,0.0,0.0,0.0,0.0,0.0,0.0,0.0,0.0,0.0,0.0,0.0,0.0,0.0,0.0,0.0,0.0,0.0,0.0,0.0,0.0,0.0,0.0,0.0,0.0,0.0,0.0,0.0,0.0,0.0,0.0,0.0,0.0,0.0,0.0,0.0,0.0,0.0,0.0,0.0,0.0,0.0,0.0,0.0,0.0,0.0,0.0,0.0,0.0,0.0,0.0,0.0,0.0,0.0,0.0,0.0,0.0,0.0,0.0,0.0,0.0,0.0,0.0,0.0,0.0,0.0,0.0,0.0,0.0,0.0,0.0,0.0,0.0,0.0,0.0,0.0,0.0,0.0,0.0,0.0,0.0,0.0,0.0,0.0,0.0,0.0,0.0,0.0,0.0,0.0,0.0,0.0,0.0,0.0,0.0,0.0,0.0,0.0,0.0,0.0,0.0,0.0,0.0,0.0,0.0,0.0,0.0,0.0,0.0,0.0,0.0,0.0,0.0,0.0,0.0,0.0,0.0,0.0,0.0,0.0,0.0,0.0,0.0,0.0,0.0,0.0,0.0,0.0,0.0,0.0,0.0,0.0,0.0,0.0,0.0,0.0,0.0,0.0,0.0,0.0,0.0,0.0,0.0,0.0,0.0,0.0,0.0,0.0,0.0,0.0,0.0,0.0,0.0,0.0,0.0,0.0,0.0,0.0,0.0,0.0,0.0,0.0,0.0,0.0,0.0,0.0,0.0,0.0,0.0,0.0,0.0,0.0,0.0,0.0,0.0,0.0,0.0,0.0,0.0,0.0,0.0,0.0,0.0,0.0,0.0,0.0,0.0,0.0,0.0,0.0,0.0,0.0,0.0,0.0,0.0,0.0,0.0,0.0,0.0,0.0,0.0,0.0,0.0,0.0,0.0,0.0,0.0,0.0,0.0,0.0,0.0,0.0,0.0,0.0,0.0,0.0,0.0,0.0,0.0,0.0,0.0,0.0,0.0,0.0,0.0,0.0,0.0,0.0,0.0,0.0,0.0,0.0,0.0,0.0,0.0,0.0,0.0,0.0,0.0,0.0,0.0,0.0,0.0,0.0,0.0,0.0,0.0,0.0,0.0,0.0,0.0,0.0,0.0,0.0,0.0,0.0,0.0,0.0,0.0,0.0,0.0,0.0,0.0,0.0,0.0,0.0,0.0,0.0,0.0,0.0,0.0,0.0,0.0,0.0,0.0,0.0,0.0,0.0,0.0,0.0,0.0,0.0,0.0,0.0,0.0,0.0,0.0,0.0,0.0,0.0,0.0,0.0,0.0,0.0,0.0,0.0,0.0,0.0,0.0,0.0,0.0,0.0,0.0,0.0,0.0,0.0,0.0,0.0,0.0,0.0,0.0,0.0,0.0,0.0,0.0,0.0,0.0,0.0,0.0,0.0,0.0,0.0,0.0,0.0,0.0,0.0,0.0,0.0,0.0,0.0,0.0,0.0,0.0,0.0,0.0,0.0,0.0,0.0,0.0,0.0,0.0,0.0,0.0,0.0,0.0,0.0,0.0,0.0,0.0,0.0,0.0,0.0,0.0,0.0,0.0,0.0,0.0,0.0,0.0,0.0,0.0,0.0,0.0,0.0,0.0,0.0,0.0,0.0,0.0,0.0,0.0,0.0,0.0,0.0,0.0,0.0,0.0,0.0,0.0,0.0,0.0,0.0,0.0,0.0,0.0,0.0,0.0,0.0,0.0,0.0,0.0,0.0,0.0,0.0,0.0,0.0,0.0,0.0,0.0,0.0,0.0,0.0,0.0,0.0,0.0,0.0,0.0,0.0,0.0,0.0,0.0,0.0,0.0,0.0,0.0,0.0,0.0,0.0,0.0,0.0,0.0,0.0,0.0,0.0,0.0,0.0,0.0,0.0,0.0,0.0,0.0,0.0,0.0,0.0,0.0,0.0,0.0,0.0,0.0,0.0,0.0,0.0,0.0,0.0,0.0,0.0,0.0,0.0,0.0,0.0,0.0,0.0,0.0,0.0,0.0,0.0,0.0,0.0,0.0,0.0,0.0,0.0,0.0,0.0,0.0,0.0,0.0,0.0,0.0,0.0,0.0,0.0,0.0,0.0,0.0,0.0,0.0,0.0,0.0,0.0,0.0,0.0,0.0,0.0,0.0,0.0,0.0,0.0,0.0,0.0,0.0,0.0,0.0,0.0,0.0,0.0,0.0,0.0,0.0,0.0,0.0,0.0,0.0,0.0,0.0,0.0,0.0,0.0,0.0,0.0,0.0,0.0,0.0,0.0,0.0,0.0,0.0,0.0,0.0,0.0,0.0,0.0,0.0,0.0,0.0,0.0,0.0,0.0,0.0,0.0,0.0,0.0,0.0,0.0,0.0,0.0,0.0,0.0,0.0,0.0,0.0,0.0,0.0,0.0,0.0,0.0,0.0,0.0,0.0,0.0,0.0,0.0,0.0,0.0,0.0,0.0,0.0,0.0,0.0,0.0,0.0,0.0,0.0,0.0,0.0,0.0,0.0,0.0,0.0,0.0,0.0,0.0,0.0,0.0,0.0,0.0,0.0,0.0,0.0,0.0,0.0,0.0,0.0,0.0,0.0,0.0,0.0,0.0,0.0,0.0,0.0,0.0,0.0,0.0,0.0,0.0,0.0,0.0,0.0,0.0,0.0,0.0,0.0,0.0,0.0,0.0,0.0,0.0,0.0,0.0,0.0,0.0,0.0,0.0,0.0,0.0,0.0,0.0,0.0,0.0,0.0,0.0,0.0,0.0,0.0,0.0,0.0,0.0,0.0,0.0,0.0,0.0,0.0,0.0,0.0,0.0,0.0,0.0,0.0,0.0,0.0,0.0,0.0,0.0,0.0,0.0,0.0,0.0,0.0,0.0,0.0,0.0,0.0,0.0,0.0,0.0,0.0,0.0,0.0,0.0,0.0,0.0,0.0,0.0,0.0,0.0,0.0,0.0,0.0,0.0,0.0,0.0,0.0,0.0,0.0,0.0,0.0,0.0,0.0,0.0,0.0,0.0,0.0,0.0,0.0,0.0,0.0,0.0,0.0,0.0,0.0,0.0,0.0,0.0,0.0,0.0,0.0,0.0,0.0,0.0,0.0,0.0,0.0,0.0,0.0,0.0,0.0,0.0,0.0,0.0,0.0,0.0,0.0,0.0,0.0,0.0,0.0,0.0,0.0,0.0,0.0,0.0,0.0,0.0,0.0,0.0,0.0,0.0,0.0,0.0,0.0,0.0,0.0,0.0,0.0,0.0,0.0,0.0,0.0,0.0,0.0,0.0,0.0,0.0,0.0,0.0,0.0,0.0,0.0,0.0,0.0,0.0,0.0,0.0,0.0,0.0,0.0,0.0,0.0,0.0,0.0,0.0,0.0,0.0,0.0,0.0,0.0,0.0,0.0,0.0,0.0,0.0,0.0,0.0,0.0,0.0,0.0,0.0,0.0,0.0,0.0,0.0,0.0,0.0,0.0,0.0,0.0,0.0,0.0,0.0,0.0,0.0,0.0,0.0,0.0,0.0,0.0,0.0,0.0,0.0,0.0,0.0,0.0,0.0,0.0,0.0,0.0,0.0,0.0,0.0,0.0,0.0,0.0,0.0,0.0,0.0,0.0,0.0,0.0,0.0,0.0,0.0,0.0,0.0,0.0,0.0,0.0,0.0,0.0,0.0,0.0,0.0,0.0,0.0,0.0,0.0,0.0,-2.3869,0.0,0.0,0.0,0.0,0.0,0.0,0.0,0.0,0.0,0.0,0.0,0.0,0.0,0.0,0.0,0.0,0.0,0.0,0.0,0.0,0.0,0.0,0.0,0.0,-1.4205,-1.4533,-1.5359,-1.53,-1.5218,-1.5137,0.0,0.0,0.0,0.0,0.0,-1.512,-1.5061,-1.5181,-1.5448,-1.5241,-1.5121,-1.5088,-1.7069,-1.8467,-1.9473,0.0,0.0,0.0,0.0,0.0,0.0,0.0,0.0,0.0,0.0,0.0,0.0,0.0,0.0,0.0,0.0,0.0,0.0,0.0,0.0,0.0,0.0,0.0,0.0,0.0,0.0,0.0,0.0,0.0,0.0,0.0,0.0,0.0,0.0,0.0,0.0,0.0,0.0,0.0,0.0,0.0,0.0,0.0,0.0,0.0,0.0,0.0,0.0,0.0,0.0,0.0,0.0,0.0,0.0,0.0,0.0,0.0,0.0,0.0,0.0,0.0,0.0,0.0,0.0,0.0,0.0,0.0,0.0,0.0,0.0,0.0,-2.4,0.0,0.0,0.0,0.0,0.0,0.0,0.0,0.0,0.0,0.0,0.0,0.0,0.0,0.0,0.0,0.0,0.0,0.0,0.0,0.0,0.0,-1.2564,-1.4358,-1.4172,-1.4283,-1.533,-1.4824,-1.4322,-1.4077,-1.4829,0.0,0.0,0.0,-1.5927,-1.5619,-1.562,-1.5591,-1.5533,-1.495,-1.4536,-1.4277,-1.4648,-1.4958,-1.5311,-1.8344,0.0,0.0,0.0,0.0,0.0,0.0,0.0,0.0,0.0,0.0,0.0,0.0,0.0,0.0,0.0,0.0,0.0,0.0,0.0,0.0,0.0,0.0,0.0,0.0,0.0,0.0,0.0,0.0,0.0,0.0,0.0,0.0,0.0,0.0,0.0,0.0,0.0,0.0,0.0,0.0,0.0,0.0,0.0,0.0,0.0,0.0,0.0,0.0,0.0,0.0,0.0,0.0,0.0,0.0,0.0,0.0,0.0,0.0,0.0,0.0,0.0,0.0,0.0,-2.7546,-2.7823,-2.8345,-2.8288,-2.7729,-2.6815,-2.5928,-2.4581,-2.3067,-2.4311,0.0,0.0,0.0,0.0,0.0,0.0,0.0,0.0,0.0,0.0,0.0,0.0,0.0,0.0,0.0,0.0,0.0,0.0,0.0,-1.3075,-1.4985,-1.44,-1.39,-1.3875,-1.3544,-1.3029,-1.2374,-1.2814,-1.3191,-1.3357,-1.4415,-1.4956,-1.4929,-1.5499,-1.5357,-1.4513,-1.3204,-1.2442,-1.2127,-1.2107,-1.1919,-1.1728,-1.5346,-1.7513,-1.8508,0.0,0.0,0.0,0.0,0.0,0.0,0.0,0.0,0.0,0.0,0.0,0.0,0.0,0.0,0.0,0.0,0.0,0.0,0.0,0.0,0.0,0.0,0.0,0.0,0.0,0.0,0.0,0.0,0.0,0.0,0.0,0.0,0.0,0.0,0.0,0.0,0.0,0.0,0.0,0.0,0.0,-2.5212,-2.5247,0.0,0.0,0.0,0.0,0.0,0.0,0.0,0.0,0.0,0.0,0.0,0.0,0.0,-2.828,-2.9008,-2.9802,-3.0232,-3.0298,-3.0347,-2.9993,-2.9308,-2.9302,-2.8778,-2.776,-2.6908,0.0,-2.4812,-2.3443,0.0,0.0,0.0,0.0,0.0,0.0,0.0,0.0,0.0,0.0,0.0,0.0,0.0,0.0,0.0,0.0,0.0,0.0,0.0,0.0,0.0,-1.3676,-1.3268,-1.3697,-1.2627,-1.174,-1.1332,-1.1814,-1.2075,-1.208,-1.3665,-1.4619,-1.4782,-1.527,-1.4785,-1.329,-1.2279,-1.1327,-1.0344,-1.0368,-1.0036,-0.9596,-1.1627,-1.3934,-1.6352,-1.6971,0.0,0.0,0.0,0.0,0.0,0.0,0.0,0.0,0.0,0.0,0.0,0.0,0.0,0.0,0.0,0.0,0.0,0.0,0.0,0.0,0.0,0.0,0.0,0.0,0.0,0.0,0.0,0.0,0.0,0.0,0.0,0.0,0.0,0.0,0.0,0.0,0.0,0.0,0.0,-2.5841,-2.6288,-2.4935,-2.6116,-2.6623,0.0,0.0,0.0,0.0,0.0,0.0,0.0,0.0,0.0,-2.9883,-2.9805,-3.0156,-3.1012,-3.0937,-3.1132,-3.1598,-3.1601,-3.1638,-3.1616,-3.1148,-3.0646,-3.0114,-2.8698,-2.7636,-2.6687,-2.4822,-2.417,-2.4269,0.0,0.0,0.0,0.0,-2.2318,-2.2208,0.0,0.0,0.0,0.0,0.0,0.0,0.0,0.0,0.0,0.0,0.0,0.0,-1.3702,-1.2945,-1.2544,-1.3163,-1.1733,-1.075,-1.0585,-1.0742,-1.0957,-1.1137,-1.2954,-1.4078,-1.4406,-1.4743,-1.4101,-1.2451,-1.1711,-1.0722,-0.9536,-0.9445,-0.913,-0.866,-0.9103,-1.1018,-1.3988,-1.4675,-1.6069,-1.7845,0.0,0.0,0.0,0.0,0.0,0.0,0.0,0.0,0.0,0.0,0.0,0.0,0.0,0.0,0.0,0.0,0.0,0.0,0.0,0.0,0.0,0.0,0.0,0.0,0.0,0.0,0.0,0.0,0.0,0.0,0.0,0.0,0.0,0.0,0.0,0.0,0.0,-2.6448,-2.7075,-2.48,-2.7032,-2.8067,0.0,0.0,0.0,0.0,0.0,0.0,-3.0508,-3.0586,-3.1289,-3.2773,-3.2422,-3.2617,-3.3516,-3.2851,-3.2851,-3.3516,-3.3047,-3.3006,-3.3307,-3.2446,-3.188,-3.1515,-2.994,-2.8798,-2.7846,-2.6063,-2.4868,-2.4137,-2.3676,-2.3587,-2.3571,-2.2513,-2.1987,-2.1674,0.0,0.0,0.0,0.0,0.0,0.0,0.0,0.0,0.0,0.0,0.0,-1.1333,-1.3557,-1.2624,-1.1771,-1.1619,-1.0834,-1.0223,-0.9963,-0.9249,-0.9491,-1.095,-1.2211,-1.3033,-1.3353,-1.3629,-1.3323,-1.231,-1.1406,-1.0666,-1.0156,-0.9614,-0.9354,-0.9231,-0.8898,-0.9587,-1.1065,-1.1718,-1.2937,-1.4538,-1.5646,0.0,0.0,0.0,0.0,0.0,0.0,0.0,0.0,0.0,0.0,0.0,0.0,0.0,0.0,0.0,0.0,0.0,0.0,0.0,0.0,0.0,0.0,0.0,0.0,0.0,0.0,0.0,0.0,0.0,0.0,0.0,0.0,0.0,0.0,0.0,0.0,0.0,0.0,-2.5476,-2.828,0.0,0.0,0.0,0.0,-3.1682,-3.187,-3.2305,-3.3164,-3.3203,-3.3633,-3.4531,-3.5312,-3.6172,-3.7031,-3.6992,-3.6992,-3.7031,-3.5351,-3.4141,-3.3359,-3.2578,-3.1675,-3.0713,-2.9854,-2.8905,-2.7846,-2.6063,-2.5264,-2.5119,-2.3929,-2.3983,-2.4595,-2.3377,-2.2464,-2.1674,0.0,0.0,0.0,0.0,0.0,-1.0273,-1.0273,-1.0544,-1.0867,-1.1244,-1.1502,-1.1986,-1.2819,-1.2456,-1.2065,-1.2006,-1.0585,-0.9391,-0.8725,-0.8581,-0.8889,-0.9735,-1.1723,-1.312,-1.3795,-1.2548,-1.1833,-1.1727,-1.0543,-0.9674,-0.9213,-0.8691,-0.8307,-0.8165,-0.8438,-0.8995,-0.9698,-0.981,-1.0951,-1.2734,-1.3474,-1.5263,0.0,0.0,0.0,0.0,0.0,0.0,0.0,0.0,0.0,0.0,0.0,0.0,0.0,0.0,0.0,0.0,0.0,0.0,0.0,0.0,0.0,0.0,0.0,0.0,0.0,0.0,0.0,0.0,0.0,0.0,0.0,0.0,0.0,0.0,0.0,0.0,0.0,-3.0269,-3.2357,0.0,-3.2184,-3.2695,-3.3459,-3.4322,-3.4892,-3.5611,-3.6518,-3.6602,-3.7011,-3.7873,-3.7771,-3.8086,-3.8945,-3.8437,-3.7851,-3.7305,-3.668,-3.5625,-3.4219,-3.3359,-3.25,-3.1598,-3.0687,-2.9437,-2.8028,-2.7303,-2.6351,-2.5178,-2.4114,-2.3815,-2.3832,-2.2741,-2.1754,-2.0923,0.0,0.0,0.0,-0.9765,-1.004,-1.0351,-1.0505,-1.0697,-1.0867,-1.1244,-1.1523,-1.1862,-1.2305,-1.2215,-1.2062,-1.2062,-1.0289,-0.9022,-0.8567,-0.816,-0.8312,-0.9174,-1.1105,-1.2401,-1.3002,-1.1801,-1.0985,-1.0554,-0.9707,-0.8798,-0.7858,-0.7397,-0.6974,-0.673,-0.7211,-0.7773,-0.8388,-0.8334,-0.9463,-1.1335,-1.1978,-1.3695,-1.5973,0.0,0.0,0.0,0.0,0.0,0.0,0.0,0.0,0.0,0.0,0.0,0.0,0.0,0.0,0.0,0.0,0.0,0.0,0.0,0.0,0.0,0.0,0.0,0.0,0.0,0.0,0.0,0.0,0.0,0.0,0.0,0.0,0.0,0.0,-3.0991,-3.307,-3.3384,-3.5674,-3.6793,-3.5674,-3.6123,-3.6891,-3.7754,-3.8335,-3.906,-3.9971,-4.0071,-4.0226,-4.051,-4.0096,-3.9995,-4.0269,-3.9453,-3.8593,-3.7652,-3.7105,-3.6048,-3.4593,-3.3469,-3.2651,-3.2067,-3.1168,-2.9779,-2.8139,-2.8067,-2.6963,-2.5244,-2.4509,-2.4143,-2.3903,-2.3197,-2.2315,-2.1353,0.0,-0.7931,-0.8724,-0.8724,-0.9567,-1.0428,-1.0847,-1.0562,-1.0659,-1.1594,-1.0888,-1.0825,-1.213,-1.1867,-1.1562,-1.1562,-0.9943,-0.9125,-0.9534,-0.794,-0.7766,-0.9493,-1.0359,-1.0833,-1.0953,-1.1375,-1.0721,-0.895,-0.8947,-0.8038,-0.6302,-0.5896,-0.5458,-0.5096,-0.5249,-0.5942,-0.6985,-0.7308,-0.8516,-1.0332,-1.1145,-1.2187,-1.3379,0.0,0.0,0.0,0.0,0.0,0.0,0.0,0.0,0.0,0.0,0.0,0.0,0.0,0.0,0.0,0.0,0.0,0.0,0.0,0.0,0.0,0.0,0.0,0.0,0.0,0.0,0.0,0.0,0.0,0.0,0.0,0.0,0.0,-2.8987,-3.2799,-3.5315,-3.4584,-3.8084,-3.9931,-3.8354,-3.9766,-4.117,-4.2008,-4.2159,-4.2576,-4.3402,-4.3402,-4.3022,-4.2127,-4.2181,-4.1866,-4.1012,-4.0267,-3.9409,-3.8362,-3.6719,-3.5441,-3.4432,-3.2786,-3.203,-3.1955,-3.1207,-2.988,-2.8218,-2.8139,-2.7057,-2.5391,-2.5116,-2.4991,-2.4967,-2.4836,-2.4159,-2.3045,-0.7655,-0.8234,-0.8724,-0.8724,-0.9288,-0.9653,-0.9413,-1.021,-1.0651,-1.025,-1.0666,-1.1037,-1.1066,-1.0849,-1.0782,-1.0857,-0.8871,-0.7852,-0.8413,-0.7572,-0.8232,-1.0821,-1.066,-1.0971,-1.1961,-1.0418,-0.9685,-0.9826,-0.8193,-0.7165,-0.6657,-0.5693,-0.5217,-0.5096,-0.5249,-0.5728,-0.6558,-0.7511,-0.85,-0.9512,-1.0404,-1.1672,-1.3087,0.0,0.0,0.0,0.0,0.0,0.0,0.0,0.0,0.0,0.0,0.0,0.0,0.0,0.0,0.0,0.0,0.0,0.0,0.0,0.0,0.0,0.0,0.0,0.0,0.0,0.0,0.0,0.0,0.0,0.0,0.0,-3.0658,-3.3106,-3.359,-3.5787,-3.8123,-4.0392,-4.1662,-4.2431,-4.2547,-4.3018,-4.3397,-4.3667,-4.4253,-4.4476,-4.4051,-4.3557,-4.2881,-4.2039,-4.1505,-4.1091,-4.0857,-4.0064,-3.9213,-3.8293,-3.7202,-3.5943,-3.4471,-3.3414,-3.2619,-3.1955,-3.1207,-3.0232,-2.9079,-2.8372,-2.7412,-2.6265,-2.5524,-2.5122,-2.4979,-2.4981,-2.4238,-2.3135,-0.7359,-0.7896,-0.8309,-0.8191,-0.8593,-0.8938,-0.8929,-0.937,-0.9651,-0.9629,-1.0014,-1.0234,-1.0083,-1.0024,-0.9939,-0.9705,-0.808,-0.7276,-0.7673,-0.7605,-0.8192,-0.9744,-0.952,-0.975,-1.0547,-0.9189,-0.8511,-0.8643,-0.7322,-0.6285,-0.5525,-0.4673,-0.4184,-0.4037,-0.4174,-0.456,-0.5212,-0.6368,-0.7375,-0.8338,-0.9361,-1.0846,-1.2451,-1.2652,-1.3872,-1.5586,-1.6181,-1.6928,-1.7817,-1.846,0.0,0.0,0.0,0.0,0.0,0.0,0.0,0.0,0.0,0.0,0.0,0.0,0.0,0.0,0.0,0.0,0.0,0.0,0.0,0.0,0.0,0.0,0.0,0.0,-3.3515,-3.6061,-3.7966,-3.9162,-4.0816,-4.3299,-4.3932,-4.4316,-4.4778,-4.4855,-4.4855,-4.4855,-4.5316,-4.5355,-4.4855,-4.443,-4.368,-4.2483,-4.2028,-4.1481,-4.0743,-3.998,-3.9132,-3.8236,-3.7381,-3.6229,-3.4885,-3.3784,-3.2971,0.0,-3.1361,-3.0194,-2.8937,-2.8363,-2.739,0.0,0.0,0.0,0.0,0.0,-2.4562,-2.3879,-0.66,-0.7164,-0.7628,-0.7346,-0.7747,-0.8237,-0.8765,-0.8244,-0.8158,-0.9181,-0.9009,-0.8865,-0.9047,-0.9122,-0.8922,-0.8274,-0.7415,-0.7006,-0.7244,-0.7748,-0.7863,-0.7545,-0.7706,-0.7848,-0.7865,-0.7826,-0.7307,-0.6349,-0.6192,-0.5275,-0.3614,-0.3148,-0.2722,-0.2408,-0.2558,-0.2881,-0.3411,-0.4534,-0.5672,-0.6913,-0.8126,-0.9761,-1.1531,-1.134,-1.2493,-1.4192,-1.4341,-1.5213,-1.6409,-1.7314,0.0,0.0,0.0,0.0,0.0,0.0,0.0,0.0,0.0,0.0,0.0,0.0,0.0,0.0,0.0,0.0,0.0,0.0,0.0,0.0,0.0,0.0,0.0,0.0,-3.6496,-3.8338,-4.1619,-4.2427,-4.3094,-4.421,-4.5033,-4.555,-4.555,-4.5568,-4.5586,-4.5586,-4.5586,-4.5586,-4.5586,0.0,0.0,0.0,0.0,-4.2331,-4.0822,-3.9995,-3.9111,-3.8175,-3.7284,-3.6404,-3.543,-3.4002,-3.3283,-3.3109,-3.1663,-3.0117,-2.8555,-2.8309,-2.7164,-2.5584,-2.5391,-2.5312,-2.5293,-2.5094,-2.5027,0.0,-0.6384,-0.6406,-0.6577,-0.6703,-0.7018,-0.7227,-0.7257,-0.7542,-0.7756,-0.7585,-0.7883,-0.8034,-0.7802,-0.739,-0.7151,-0.7106,-0.6275,-0.6107,-0.7005,-0.7418,-0.7635,-0.7646,-0.7461,-0.7277,-0.7127,-0.6702,-0.6151,-0.546,-0.4432,-0.35,-0.2667,-0.2121,-0.1833,-0.1767,-0.1934,-0.2089,-0.2364,-0.3791,-0.4606,-0.5091,-0.7063,-0.8803,-1.0305,-1.128,-1.2163,-1.2997,-1.4042,-1.5076,-1.6068,-1.6951,-1.782,-1.8439,-1.7981,-1.8041,0.0,0.0,0.0,0.0,0.0,0.0,0.0,0.0,0.0,0.0,0.0,0.0,0.0,0.0,0.0,0.0,0.0,0.0,0.0,-3.5698,-3.8479,-4.0812,-4.2416,-4.3278,-4.3895,-4.4486,-4.4935,-4.5201,-4.5201,-4.5438,-4.5586,-4.5586,-4.5586,-4.5586,-4.5586,-4.4932,-4.4393,-4.4085,-4.2771,-4.1902,-4.1594,-4.0097,-3.8915,-3.8026,0.0,0.0,-3.5468,-3.4522,-3.3757,-3.3142,-3.2214,-3.1278,-3.0273,-2.8816,-2.715,-2.5507,-2.5468,-2.5451,-2.544,-2.5352,-2.5215,-2.5022,-0.5192,-0.5627,-0.6053,-0.6135,-0.6098,-0.611,-0.6331,-0.645,-0.6584,-0.6686,-0.6766,-0.6791,-0.6815,-0.6426,-0.6134,-0.604,-0.5648,-0.5546,-0.5912,-0.6432,-0.6428,-0.5869,-0.5838,-0.5594,-0.5217,-0.4663,-0.4054,-0.3493,-0.2879,-0.222,-0.163,-0.137,-0.1266,-0.1246,-0.1297,-0.14,-0.1553,-0.3047,-0.389,-0.4435,-0.5981,-0.7481,-0.8922,-1.0305,-1.1524,-1.255,-1.3202,-1.4175,-1.5194,-1.5615,-1.6569,-1.741,-1.6699,-1.7124,-1.78,0.0,0.0,0.0,0.0,0.0,0.0,0.0,0.0,0.0,0.0,0.0,0.0,0.0,0.0,-2.815,-3.0786,0.0,-3.5562,-3.8383,-4.0434,-4.2022,-4.2987,-4.35,-4.3974,-4.4546,-4.4751,-4.4849,-4.4849,-4.5159,-4.5361,-4.5361,-4.5532,-4.5586,-4.5586,-4.5201,-4.4586,-4.3739,-4.2893,-4.2047,-4.1162,-3.9931,-3.8854,-3.8007,-3.7123,-3.6276,-3.5468,-3.4654,-3.3858,-3.3075,-3.2304,-3.1304,-3.0072,-2.8319,-2.6825,-2.5601,-2.5601,-2.5577,-2.5484,-2.5402,-2.5337,-2.5232,-0.4074,-0.481,-0.5497,-0.5576,-0.5187,-0.5123,-0.5755,-0.5463,-0.539,-0.6017,-0.5868,-0.5785,-0.6008,-0.5702,-0.5405,-0.521,-0.5309,-0.5236,-0.4923,-0.5371,-0.4976,-0.3594,-0.3709,-0.3475,-0.2752,-0.2245,-0.1749,-0.1217,-0.1217,-0.0905,-0.0319,-0.0426,-0.0531,-0.0536,-0.0654,-0.0717,-0.0826,-0.228,-0.326,-0.3897,-0.5046,-0.6308,-0.7664,-0.9079,-1.0733,-1.2341,-1.2602,-1.3367,-1.4237,-1.4474,-1.5222,-1.5962,-1.5702,-1.6233,-1.7045,-1.7093,-1.6617,0.0,0.0,0.0,0.0,0.0,0.0,0.0,0.0,-2.2125,-2.3414,-2.5886,-2.7755,-3.0002,-3.3579,-3.5521,-3.7678,-4.0849,-4.1941,-4.2624,-4.3387,-4.3351,-4.3472,-4.4065,-4.4202,-4.4256,-4.4256,-4.4559,-4.4859,-4.5077,-4.5361,-4.555,-4.5586,-4.5586,-4.4893,-4.3393,-4.3162,-4.2354,-4.0777,-3.9931,-3.9008,-3.8007,-3.7276,-3.643,-3.5468,-3.467,-3.3808,-3.2948,-3.2099,-3.0791,-2.9162,-2.7811,-2.6641,-2.5703,-2.5703,-2.5615,-2.552,-2.5446,-2.546,-2.5402,-0.4118,-0.4034,-0.4261,-0.5027,-0.4593,-0.4482,-0.5557,-0.5143,-0.4864,-0.5349,-0.5578,-0.5625,-0.543,-0.499,-0.4759,-0.486,-0.5094,-0.5151,-0.4985,-0.4742,-0.3753,-0.1838,-0.1821,-0.1273,-0.0049,0.0049,0.0344,0.0937,0.0937,0.1284,0.1836,0.1198,0.0866,0.084,0.0211,-0.0108,-0.0222,-0.1663,-0.2327,-0.2603,-0.4648,-0.5982,-0.6858,-0.8265,-0.9986,-1.1798,-1.2964,-1.3442,-1.369,-1.4725,-1.4947,-1.4832,-1.5308,-1.5584,-1.5799,-1.6337,-1.5752,-1.5264,-1.6912,-1.7021,-1.6837,-1.7409,-1.7974,-1.9155,0.0,-2.3348,-2.495,-2.7347,-2.9999,-3.2387,-3.3989,-3.6543,-3.9076,-4.1063,-4.2118,-4.2848,-4.3426,-4.2873,-4.2466,-4.2529,-4.2835,-4.3005,-4.3005,-4.3299,-4.3966,-4.5017,-4.5137,-4.5283,-4.5586,-4.5586,-4.5163,-4.4201,-4.347,-4.2624,-4.1662,-4.0816,-3.9585,-3.8007,-3.7892,-3.7046,-3.5468,-3.4597,-3.3759,-3.2909,-3.1481,-2.9949,-2.8437,-2.8242,-2.7187,-2.5703,-2.5703,-2.5703,-2.5662,-2.5603,-2.559,-2.5577,-0.2847,-0.2787,-0.3034,-0.3913,-0.3813,-0.3916,-0.4901,-0.4601,-0.4415,-0.482,-0.4799,-0.4658,-0.4555,-0.4135,-0.3859,-0.3915,-0.3787,-0.3433,-0.2875,-0.2634,-0.1532,0.0556,0.0726,0.1383,0.2721,0.3066,0.3366,0.3624,0.3186,0.3097,0.3351,0.2258,0.1516,0.1062,0.076,0.0387,-0.0056,-0.1142,-0.1817,-0.2345,-0.3693,-0.5194,-0.6676,-0.7506,-0.8897,-1.0564,-1.245,-1.313,0.0,-1.3772,-1.4268,-1.4586,-1.3936,-1.4628,-1.5723,-1.5994,-1.566,-1.5443,-1.6489,-1.6896,-1.7125,-1.7676,-1.8478,-1.9669,-2.1725,-2.3688,-2.5812,-2.842,-3.0893,-3.3255,-3.5361,-3.7394,-3.925,-4.084,-4.2011,-4.277,-4.3032,-4.2225,-4.1258,-4.0341,-3.9939,-4.0251,-4.1693,-4.2537,-4.3299,-4.4004,-4.4684,-4.5243,-4.5586,-4.5586,-4.497,-4.3624,-4.3278,-4.2431,-4.1046,-4.0662,-3.9662,-3.8007,-3.8007,-3.7123,-3.5507,-3.5122,-3.4236,-3.2909,-3.1305,-2.9966,-2.8974,-2.8467,-2.7535,-2.6406,-2.5898,-2.5703,-2.5703,-2.5611,-2.5601,-2.559,-0.1764,-0.1809,-0.2009,-0.2633,-0.2758,-0.3126,-0.4274,-0.3968,-0.3789,-0.4178,-0.386,-0.3581,-0.3462,-0.3241,-0.307,-0.2939,-0.2613,-0.2036,-0.1111,-0.0692,0.048,0.2652,0.3006,0.3736,0.4956,0.5417,0.5677,0.5677,0.4922,0.4575,0.4524,0.3176,0.2255,0.1722,0.1283,0.0794,0.0227,-0.0697,-0.139,-0.1982,-0.2989,-0.4511,-0.6236,-0.6867,-0.8126,-0.9806,-1.1903,-1.267,-1.2829,-1.3301,-1.4023,-1.4467,-1.3197,-1.4002,-1.5464,-1.5513,-1.5684,-1.5888,-1.6054,-1.6716,-1.7437,-1.801,-1.897,-2.0193,-2.1718,-2.389,-2.6168,-2.8525,-3.0803,-3.3077,-3.5245,-3.6937,-3.8506,-4.0032,-4.1223,-4.198,-4.2099,-4.1216,-3.9999,-3.8647,-3.7711,-3.7845,-3.9606,-4.0917,-4.1977,-4.2773,-4.3642,-4.4303,-4.4633,-4.4633,-4.3982,-4.2564,-4.2542,-4.1886,-4.0389,-4.0454,-3.9662,-3.8007,-3.8007,-3.7123,-3.5455,-3.5007,-3.4005,-3.259,-3.1137,-3.0114,-2.9367,-2.8509,-2.7705,-2.6867,-2.6013,-2.5662,-2.5663,-2.5659,-2.5613,-2.5605,-0.1318,-0.1305,-0.1338,-0.1371,-0.1371,-0.1966,-0.3756,-0.3304,-0.2892,-0.3298,-0.2946,-0.2495,-0.2098,-0.2383,-0.2482,-0.2087,-0.2021,-0.1573,-0.0501,0.0504,0.1965,0.4066,0.4719,0.5475,0.6504,0.6568,0.6568,0.6568,0.5801,0.5467,0.5412,0.3996,0.334,0.3289,0.179,0.1114,0.0997,-0.0469,-0.1115,-0.1286,-0.2772,-0.4079,-0.5268,-0.6368,-0.7997,-0.9927,-1.1674,-1.2111,-1.2121,-1.4026,-1.4353,-1.3994,-1.3888,-1.4173,-1.458,-1.4754,-1.5605,-1.6318,-1.5542,-1.6314,-1.7464,-1.7845,-1.8853,-2.0296,-2.2141,-2.4069,-2.5881,-2.7302,-2.9803,-3.1945,-3.2588,-3.4497,-3.6597,-3.8432,-3.9371,-4.0079,-4.0678,-3.9799,-3.8796,-3.8002,-3.6978,-3.6376,-3.645,-3.7881,-3.9637,-4.153,-4.167,-4.1836,-4.2195,-4.2219,-4.1841,-4.1009,-4.1238,-4.094,-4.0139,-4.0372,-3.9662,-3.8007,-3.8007,-3.7123,-3.5416,-3.3737,-3.2551,-3.1796,-3.0905,-3.0032,-2.9257,-2.8446,-2.7585,-2.6734,-2.5938,-2.5603,-2.5607,-2.5663,-2.5703,-2.5703,0.0101,-0.0234,-0.0534,-0.0835,-0.1138,-0.1519,-0.2111,-0.1977,-0.1938,-0.2389,-0.1789,0.0,0.0,0.0,0.0,0.0,0.0214,0.0748,0.158,0.2447,0.3577,0.5114,0.6086,0.7138,0.842,0.8201,0.8302,0.8698,0.7534,0.6686,0.6199,0.5265,0.4278,0.3405,0.2945,0.2463,0.1939,0.09,0.0182,-0.0361,-0.188,-0.3309,-0.4581,-0.5586,-0.7107,-0.8936,0.0,-1.223,-1.341,-1.4002,-1.4411,-1.4523,-1.3759,-1.4105,-1.4971,-1.574,-1.638,-1.6811,-1.6477,-1.7022,-1.7943,-1.8715,-1.9951,-2.1234,-2.2325,-2.374,-2.5079,-2.605,-2.7019,-2.8223,-3.0132,-3.1514,-3.334,-3.6208,-3.7998,-3.932,-4.0019,-3.96,-3.8605,-3.6791,-3.6256,-3.596,-3.5779,-3.7071,-3.8493,-3.989,-4.0514,-4.1172,-4.2057,-4.2119,-4.1742,-4.0948,-4.1003,-4.0631,-3.9775,-3.9861,-3.9433,-3.8512,-3.7586,-3.6853,-3.6238,-3.393,-3.2762,-3.2463,-3.1036,-3.0308,-3.0025,-2.9164,-2.8385,-2.7585,-2.6748,-2.608,-2.5603,-2.5611,-2.566,-2.5703,0.0,0.071,0.0403,0.0171,-0.0106,0.0,0.0,0.0,0.0,0.0,0.0,0.0,0.0,0.0,0.0,0.0,0.0,0.1965,0.2675,0.3516,0.4506,0.5667,0.6776,0.784,0.8825,0.8591,0.8687,0.9127,0.8152,0.7332,0.666,0.5995,0.5061,0.3996,0.3675,0.328,0.2759,0.1978,0.1074,0.0174,-0.1113,-0.2507,-0.3982,-0.4976,-0.6449,0.0,-0.9451,-1.1417,-1.3587,-1.4313,-1.4712,-1.4787,-1.4061,-1.4332,-1.5079,-1.586,-1.676,-1.7471,-1.7312,-1.808,-1.9081,-1.9865,-2.0929,-2.1882,-2.236,-2.3139,-2.3849,-2.4207,-2.4455,-2.5177,-2.7079,-2.8315,-3.0022,-3.2914,-3.507,-3.6853,-3.8116,-3.8277,-3.7842,-3.6576,-3.638,-3.6252,-3.6041,-3.6729,-3.7674,-3.8924,-4.0028,-4.0737,-4.0873,-4.1135,-4.0948,-4.0124,-4.0215,-4.0002,-3.9414,-3.9534,-3.9142,-3.8193,-3.708,-3.6389,-3.6059,-3.3903,-3.2891,-3.2814,-3.1121,-3.0398,-3.0414,-2.9516,-2.8711,-2.793,-2.7097,-2.6267,-2.5584,-2.5598,-2.5657,-2.5703,0.0,0.0,0.144,0.0,0.0,0.0,0.0,0.0,0.0,0.0,0.0,0.0,0.0,0.0,0.0,0.0,0.0,0.0,0.2733,0.3816,0.4851,0.5702,0.6859,0.7647,0.7896,0.7923,0.7936,0.797,0.7741,0.7348,0.6786,0.6207,0.5654,0.5112,0.4014,0.355,0.3493,0.2623,0.1633,0.0478,-0.0527,-0.1824,-0.3385,-0.4613,-0.6133,-0.7595,-0.8025,-0.9926,-1.26,-1.472,-1.5129,-1.4744,-1.4794,-1.4825,-1.491,-1.534,-1.6741,-1.8115,-1.8061,-1.9393,-2.0882,-2.1233,-2.1829,-2.2355,-2.2337,-2.2415,-2.2326,-2.1845,-2.2253,-2.2893,-2.3595,-2.508,-2.6969,-2.9145,-3.1153,-3.322,-3.5487,-3.619,-3.6732,-3.7353,-3.7219,-3.7119,-3.7048,-3.6862,-3.7313,-3.8638,0.0,-4.0341,-3.8836,-3.9496,-3.9533,-3.8726,-3.8933,-3.909,-3.909,-3.9389,-3.8765,-3.7128,-3.6596,-3.5889,-3.503,-3.3552,-3.2878,-3.2724,-3.1109,-3.0379,-3.034,-2.9506,-2.8698,-2.7862,-2.7091,-2.6262,-2.5571,-2.5584,-2.5655,-2.5703,0.0,0.0,0.0,0.0,0.0,0.0,0.0,0.0,0.0,0.0,0.0,0.0,0.0,0.0,0.0,0.0,0.0,0.0,0.3925,0.4665,0.5371,0.6055,0.6995,0.7764,0.8342,0.8049,0.816,0.8663,0.8099,0.7468,0.6786,0.665,0.6232,0.5611,0.5405,0.5349,0.5243,0.4053,0.3101,0.223,0.0,-0.141,-0.242,-0.4487,-0.6002,-0.7166,-0.8524,-1.0127,-1.1798,-1.2797,-1.4036,-1.5099,-1.4812,-1.4949,-1.529,-1.5956,-1.6716,-1.7674,-1.9368,-2.0861,-2.2116,-2.3097,-2.3249,-2.3005,-2.259,-2.1398,-2.0497,-2.0924,-2.04,-2.0372,-2.215,-2.4217,-2.6743,-3.0174,-3.3001,-3.5554,-3.7821,-3.8696,-3.8792,-3.7874,-3.8218,-3.838,-3.82,-3.8649,-3.9054,-3.9216,-3.9288,-3.9386,-3.957,-3.979,-3.9533,-3.8726,-3.878,-3.8803,-3.8803,-3.909,-3.8689,-3.7704,-3.7144,-3.6157,-3.4737,-3.3277,-3.2263,-3.1666,-3.0791,-3.0379,-3.0379,-3.016,-2.9583,-2.8709,-2.7932,-2.7082,-2.634,-2.5722,-2.5584,-2.5615,0.0,0.0,0.0,0.0,0.0,0.0,0.0,0.0,0.0,0.0,0.0,0.0,0.0,0.0,0.0,0.0,0.0,0.0,0.0,0.5599,0.607,0.6179,0.7389,0.8089,0.8233,0.8117,0.8203,0.846,0.8203,0.7642,0.6863,0.6939,0.6661,0.606,0.5661,0.5503,0.5452,0.4175,0.2968,0.0,0.0,-0.1455,-0.2687,-0.456,-0.5738,-0.6564,-0.8311,-1.0035,-1.1546,-1.2716,-1.3895,-1.4904,-1.4779,-1.5365,-1.616,-1.6765,-1.7885,-1.9312,-2.1008,-2.2279,-2.3404,-2.4436,-2.4255,-2.3555,-2.2471,-2.1135,-2.0032,-1.9679,-1.9188,-1.9234,-2.0406,-2.2433,-2.4879,-2.7694,-3.0986,-3.41,-3.6637,-3.8227,-3.9073,-3.887,-3.9208,-3.9423,-3.9281,-3.956,-3.9832,-4.0036,-4.0306,-4.0088,-3.9227,-3.9966,-3.9768,-3.8368,-3.8596,-3.8689,-3.8689,-3.8826,-3.8312,-3.7192,-3.7007,-3.5897,-3.3928,-3.2845,-3.1977,-3.1249,0.0,-3.0215,-3.0379,-3.0267,-2.978,-2.9006,-2.8198,-2.7431,-2.6606,-2.5771,-2.5507,-2.5603,0.0,0.0,0.0,0.0,0.0,0.0,0.0,0.0,0.0,0.0,0.5253,0.5164,0.5319,0.53,0.0,0.0,0.0,0.0,0.0,0.0,0.6875,0.6562,0.7931,0.848,0.8044,0.8147,0.8119,0.7919,0.8076,0.7716,0.6901,0.7006,0.6753,0.6237,0.5329,0.4929,0.4775,0.3605,0.2133,0.04,-0.0417,-0.1808,-0.3546,0.0,-0.56,-0.6143,-0.8044,-0.9939,-1.177,-1.3536,-1.4272,-1.4542,-1.4919,-1.5993,-1.7207,-1.7788,-1.9642,-2.1706,-2.2828,-2.3897,-2.4895,-2.5661,-2.5131,-2.4003,-2.2312,-2.1179,-2.0103,-1.8591,-1.8583,-1.8919,-1.9051,-2.0778,-2.2788,-2.464,-2.7969,-3.1415,-3.4641,-3.6806,-3.8565,-3.9918,-4.0087,-4.0087,-4.0087,-3.9898,-4.0043,-4.0745,-4.1747,-4.1189,-3.8624,-4.0022,-3.994,-3.7861,-3.8267,-3.8496,-3.8496,-3.8455,-3.768,-3.6179,-3.6398,-3.5206,-3.2776,-3.2347,-3.1729,-3.1004,0.0,0.0,-3.0343,-3.008,-2.9677,-2.9159,-2.8192,-2.7421,-2.6729,-2.5739,-2.5457,-2.5587,0.0,0.0,0.0,0.0,0.0,0.0,0.0,0.0,0.0,0.0,0.7043,0.6145,0.0,0.0,0.0,0.0,0.0,0.0,0.0,0.0,0.0,0.8218,0.8545,0.8643,0.8561,0.8172,0.7938,0.7919,0.7461,0.6898,0.6349,0.6355,0.6064,0.5489,0.5311,0.4967,0.4426,0.3712,0.242,0.0709,-0.0556,-0.2195,-0.4031,-0.5387,0.0,0.0,-0.9281,-1.0942,-1.2281,-1.3659,-1.437,-1.4904,-1.6022,-1.6835,-1.7701,-1.9539,-2.0706,-2.2064,-2.4959,-2.6235,-2.6882,-2.7827,-2.6316,-2.4296,-2.3016,-2.087,-1.908,-1.8825,-1.876,-1.9001,-1.9897,-2.1424,-2.3824,-2.7865,-3.0161,-3.3014,-3.757,-3.8565,-3.9106,-3.9986,-4.0087,-4.0087,-4.0087,-4.0052,-4.0068,-4.0254,-4.0274,-4.0017,-3.9328,-3.9597,-3.9035,-3.7358,-3.7396,-3.7433,-3.7433,-3.7178,-3.6584,-3.5643,-3.5418,-3.4034,-3.1667,-3.1823,-3.108,-2.9719,-2.9699,0.0,-3.0042,-2.9829,-2.9931,-2.9982,-2.8089,-2.7485,-2.7498,-2.5774,-2.5282,-2.5428,0.0,0.0,0.0,0.0,0.0,0.0,0.0,0.8824,0.9364,0.9592,0.8446,0.7692,0.7959,0.7437,0.7089,0.0,0.0,0.0,0.0,0.0,0.0,0.9298,0.9213,0.9093,0.9031,0.8542,0.8253,0.8117,0.0,0.6912,0.6422,0.6322,0.5947,0.5308,0.4995,0.4172,0.2968,0.2071,0.0625,-0.1183,-0.2187,-0.3381,-0.4718,0.0,0.0,0.0,-1.058,-1.1773,-1.2782,-1.4132,-1.476,-1.5192,-1.6545,-1.789,-1.9356,-2.1336,-2.2515,-2.3728,-2.6511,-2.7677,-2.8168,-2.8335,-2.6811,-2.4849,-2.3252,-2.1079,-1.9286,-1.8979,-1.9067,-1.9371,-1.9919,-2.1126,-2.287,-2.5432,-2.782,-3.07,-3.4667,-3.6363,-3.7787,-3.9343,-3.9851,-4.0087,-4.0087,-4.0087,-4.0087,-4.0087,-3.9637,-3.9135,-3.8693,-3.8196,-3.7677,-3.7208,-3.7173,-3.7173,-3.7173,-3.6649,-3.5898,-3.5113,-3.4591,-3.3219,-3.1101,-3.1221,-3.0586,-2.9394,-2.9336,0.0,-2.9829,-2.9644,-2.975,-2.9855,-2.7925,-2.7386,-2.7496,-2.5707,-2.5149,-2.5266,0.0,0.0,0.0,0.0,0.0,0.0,0.9402,0.9667,0.9882,1.0126,0.9689,0.9281,0.9091,0.8371,0.797,0.0,0.0,0.0,0.0,0.0,0.0,0.0,0.0,0.0,0.9571,0.0,0.0,0.8372,0.7582,0.0,0.0,0.0,0.0,0.0,0.4125,0.2849,0.1175,0.0178,-0.1415,0.0,0.0,-0.471,-0.575,0.0,0.0,0.0,0.0,-1.2264,-1.3086,-1.4501,-1.5079,-1.5446,-1.6749,-1.8566,-2.0586,-2.253,-2.3915,-2.5281,-2.7507,-2.8602,-2.8958,-2.8384,-2.6883,-2.5006,-2.3252,-2.1183,-1.9526,-1.9008,-1.9332,-1.969,-1.969,-2.0472,-2.1476,-2.266,-2.4981,-2.7833,-3.1215,-3.3851,-3.6262,-3.8497,-3.9546,-4.0087,-4.0087,-4.0087,-4.002,-3.9851,-3.8906,-3.8082,-3.7686,-3.6737,-3.6416,-3.6825,-3.6689,-3.6619,-3.6619,-3.5784,-3.501,-3.4411,-3.374,-3.2449,-3.065,-3.065,-3.0114,-2.906,-2.8868,0.0,0.0,-2.9275,-2.9397,-2.9526,-2.7766,-2.722,-2.7224,-2.5551,-2.4953,-2.505,0.0,0.0,0.0,0.0,0.0,0.0,0.9951,1.0803,1.1331,1.1129,1.081,1.0362,0.9768,0.8623,0.816,0.0,0.0,0.0,0.0,0.0,0.0,0.0,0.0,0.0,0.0,0.0,0.0,0.8651,0.7421,0.0,0.0,0.0,0.0,0.0,0.0,0.1017,-0.0662,-0.0922,0.0,0.0,0.0,0.0,0.0,0.0,0.0,0.0,0.0,-1.2295,-1.3047,-1.4109,-1.492,-1.5665,-1.6776,-1.8225,-1.9993,-2.2387,-2.3929,-2.5329,-2.7773,-2.8887,-2.9278,-2.883,-2.6599,-2.4166,-2.2893,-2.074,-1.895,-1.8893,-1.9332,-1.969,-1.969,-1.9792,-2.0679,-2.3192,-2.4343,-2.6526,-3.1031,-3.3582,-3.5733,-3.7773,-3.9242,-4.0087,-4.0087,-4.0087,-3.9817,-3.914,-3.7153,-3.6304,-3.6874,-3.6107,-3.5711,-3.5722,-3.512,-3.4746,-3.4746,-3.38,-3.3234,-3.3164,-3.2791,-3.1756,-3.026,-3.026,-2.9438,-2.8065,-2.801,0.0,0.0,-2.8591,-2.8964,-2.9491,-2.7432,-2.6879,-2.7031,-2.5286,-2.4731,-2.4795,0.0,0.0,0.0,0.0,0.0,0.0,1.0894,1.0991,1.1104,1.1508,1.0781,1.0269,1.0372,0.9242,0.8558,0.8797,0.8847,0.0,0.0,0.0,0.0,0.0,0.0,0.0,0.0,0.0,0.8323,0.7869,0.6625,0.0,0.0,0.0,0.0,0.0,0.0,-0.0753,-0.2924,-0.3411,0.0,0.0,0.0,0.0,0.0,0.0,0.0,0.0,0.0,0.0,-1.2988,-1.3807,-1.4471,-1.5174,-1.5962,-1.7123,-1.8808,-2.197,-2.3799,-2.5355,-2.7837,-2.9267,-2.9707,-2.8412,-2.6001,-2.3714,-2.2748,-2.0372,-1.8626,-1.9258,-1.9551,-1.969,-1.969,-1.969,-2.0189,-2.1667,-2.2331,-2.3927,-2.7602,-2.9416,-3.1622,-3.4988,-3.6288,-3.7387,-3.8592,-3.8351,-3.7629,-3.6481,-3.5603,-3.5031,-3.4857,-3.4562,-3.4202,-3.3824,-3.3529,-3.3168,-3.2787,-3.1913,-3.1683,-3.2049,-3.1433,-3.0688,-2.9787,-2.9787,-2.9074,-2.7897,-2.7897,0.0,0.0,-2.8139,-2.8128,-2.8051,-2.6548,-2.6109,-2.6146,-2.4762,-2.4405,-2.4623,0.0,0.0,0.0,0.0,0.0,1.0663,1.1228,1.0975,1.0871,1.118,1.0372,0.9909,1.0167,0.9368,0.8804,0.8804,0.8962,0.0,0.0,0.0,0.0,0.0,0.0,0.0,0.0,0.0,0.7499,0.6753,0.5712,0.4739,0.0,0.0,0.1558,0.0101,0.0,0.0,0.0,0.0,0.0,0.0,0.0,0.0,0.0,0.0,0.0,0.0,0.0,0.0,0.0,0.0,0.0,-1.456,-1.5353,-1.6175,-1.7485,-2.0705,-2.2814,-2.4507,-2.6634,-2.8213,-2.8864,-2.7193,-2.4875,-2.2884,-2.2125,-1.9816,-1.8131,-1.9043,-1.9258,-1.9295,-1.9442,-1.9442,-1.9693,-2.0281,-2.094,-2.2293,-2.4748,-2.6493,-2.8766,-3.208,-3.3351,-3.4671,-3.6405,-3.6341,-3.5764,-3.4771,-3.4303,-3.3879,-3.3319,-3.294,-3.2645,-3.2592,-3.2175,-3.1775,-3.1293,-3.0509,-3.0384,-3.0817,-3.025,-2.9608,-2.8859,-2.8859,-2.8323,-2.7361,-2.7361,0.0,0.0,-2.7725,-2.7457,-2.6964,-2.5913,-2.5422,-2.5201,-2.4202,-2.4024,-2.4247,0.0,0.0,0.0,0.0,0.0,1.0826,1.0632,1.0938,1.0836,0.9915,0.9821,0.9562,0.891,0.8804,0.8804,0.8804,0.942,0.0,0.0,0.0,0.0,0.0,0.0,0.0,0.8672,0.732,0.6234,0.5496,0.4798,0.4039,0.3259,0.166,0.021,-0.1149,0.0,0.0,0.0,0.0,0.0,0.0,0.0,0.0,0.0,0.0,0.0,0.0,0.0,0.0,0.0,0.0,0.0,0.0,0.0,-1.5599,-1.6044,-1.8337,-2.0614,-2.2573,-2.3728,-2.53,-2.6282,-2.5109,-2.315,-2.1357,-2.0783,-1.891,-1.7476,-1.7973,-1.8131,-1.8288,-1.8817,-1.8893,-1.908,-1.9617,-2.0827,-2.2143,-2.3452,-2.6041,-2.8284,-2.9488,-3.1011,-3.2401,-3.3691,-3.4394,-3.4739,-3.4707,-3.341,0.0,-3.2602,-3.1298,-3.1175,-3.2542,-3.1214,-3.0523,-3.0523,-2.9758,-2.9406,-2.9406,-2.9406,-2.867,-2.7336,-2.7336,-2.6847,0.0,0.0,0.0,0.0,-2.7303,-2.7093,-2.6721,-2.5844,-2.5055,-2.436,-2.3741,-2.3588,-2.3631,0.0,0.0,0.0,0.0,0.0,0.0,1.1571,1.0647,0.9976,1.0426,0.9666,0.9054,0.8804,0.8804,0.8804,0.8804,0.9015,0.0,0.0,0.0,0.0,0.0,0.0,0.0,0.7287,0.6323,0.5,0.3239,0.2528,0.1264,-0.0493,-0.1472,-0.2974,-0.4824,-0.6019,-0.7291,0.0,0.0,0.0,0.0,0.0,0.0,-1.1216,0.0,0.0,0.0,0.0,0.0,0.0,0.0,0.0,0.0,0.0,0.0,0.0,-1.6332,-1.8561,-2.084,-2.197,-2.2949,-2.3452,-2.2723,-2.1167,-1.9763,-1.9582,-1.8332,-1.7476,-1.7973,-1.8092,-1.8131,-1.8327,-1.8664,-1.9257,-2.0352,-2.1198,-2.2134,-2.3425,-2.4741,-2.6443,-2.8682,-3.1321,-3.2977,-3.2916,-3.3073,-3.3012,-3.2553,-3.2114,-3.1641,-3.1157,-3.0388,-3.0081,-3.0532,-2.9644,-2.897,-2.8529,-2.8266,-2.8168,-2.8089,-2.8089,-2.7589,-2.6631,-2.6631,-2.6197,0.0,0.0,0.0,0.0,-2.5859,-2.5379,-2.4596,-2.4363,-2.3629,-2.271,-2.2883,-2.2961,-2.2975,0.0,0.0,0.0,0.0,0.0,0.0,1.1031,1.0124,0.9582,0.9982,0.9316,0.8804,0.8804,0.8804,0.8804,0.8804,0.854,0.0,0.0,0.0,0.0,0.0,0.0,0.0,0.4985,0.4232,0.2743,0.0548,-0.0164,-0.1526,-0.3441,-0.4422,-0.5766,-0.7366,-0.8371,-0.9291,0.0,0.0,0.0,0.0,0.0,0.0,-1.1683,0.0,0.0,0.0,0.0,0.0,0.0,0.0,0.0,0.0,0.0,0.0,0.0,0.0,-1.6854,-1.8487,-1.9885,-2.079,-2.1242,-2.069,-1.9635,-1.8677,-1.8441,-1.7678,-1.7021,-1.7136,-1.7327,-1.749,-1.7464,-1.7746,-1.8353,-1.9636,-2.0284,-2.1053,-2.2047,-2.3612,-2.5383,-2.7506,-2.9982,-3.1279,-3.0482,-3.0889,-3.0918,-3.0279,-3.022,-2.9988,-2.9318,-2.8706,-2.8385,-2.8385,-2.8284,-2.7906,-2.7203,-2.7458,-2.73,-2.6771,-2.6771,-2.6138,-2.4933,-2.5179,-2.4782,0.0,0.0,0.0,0.0,-2.4633,-2.4116,-2.303,-2.3095,-2.2473,-2.1595,-2.1922,-2.2118,-2.2187,0.0,0.0,0.0,0.0,0.0,0.0,0.0,0.9576,0.951,0.8962,0.8804,0.8804,0.8804,0.8752,0.8699,0.8699,0.8049,0.0,0.0,0.0,0.0,0.0,0.0,0.3528,0.2086,0.127,-0.0221,-0.2477,-0.3175,-0.4314,-0.5864,-0.7189,-0.8201,-0.8968,-1.0292,-1.0897,0.0,0.0,0.0,0.0,-1.2559,-1.2871,0.0,0.0,0.0,0.0,0.0,0.0,0.0,0.0,0.0,0.0,0.0,0.0,0.0,0.0,0.0,0.0,0.0,-1.8758,-1.9459,-1.8982,-1.8455,-1.7953,-1.7426,-1.6854,0.0,-1.5776,-1.6107,-1.6411,-1.6454,-1.6429,-1.6786,-1.7963,-1.865,-1.9244,-1.9855,-2.2743,-2.5092,-2.6083,-2.7481,-2.7938,-2.7092,-2.814,-2.8706,-2.8269,-2.8185,-2.788,-2.7242,-2.6687,-2.6325,-2.6157,-2.6939,-2.7063,-2.6385,-2.7012,-2.671,-2.5373,-2.5373,-2.4412,-2.256,-2.3217,-2.2781,0.0,0.0,0.0,0.0,-2.3449,-2.3124,-2.1881,-2.1915,-2.1467,-2.0797,-2.0862,-2.1054,-2.1269,0.0,0.0,0.0,0.0,0.0,0.0,0.0,0.0,0.0,0.0,0.9106,0.8804,0.8804,0.8315,0.7943,0.0,0.0,0.0,0.0,0.0,0.0,0.0,0.3403,0.2032,0.0548,-0.0768,-0.2662,-0.5162,-0.6237,-0.7892,-1.0236,-1.0537,-1.1208,-1.2021,-1.2079,-1.1899,0.0,0.0,0.0,0.0,-1.2412,-1.2559,0.0,0.0,0.0,0.0,-1.2891,-1.2891,0.0,0.0,0.0,0.0,0.0,0.0,0.0,0.0,-1.4215,-1.4512,-1.584,0.0,-1.725,-1.7149,-1.6999,-1.6873,0.0,-1.6249,-1.5908,-1.6238,-1.6039,-1.6098,-1.6985,-1.6748,-1.6913,-1.8605,-1.8924,-1.9378,-2.0505,-2.327,-2.5324,-2.5658,-2.7197,-2.7945,-2.7325,-2.752,-2.7853,-2.8185,-2.7769,-2.7242,-2.6632,-2.6493,-2.5684,-2.4142,-2.4856,-2.5145,-2.4987,-2.5145,-2.461,-2.3364,-2.3364,-2.2623,-2.1315,-2.1499,-2.117,0.0,0.0,0.0,-2.0653,-2.095,-2.0558,-1.9835,-2.0127,-1.9669,-1.8844,-1.9551,-1.9627,-1.948,0.0,0.0,0.0,0.0,0.0,0.0,0.0,0.0,0.0,0.0,0.8527,0.8156,0.7836,0.745,0.7225,0.0,0.0,0.0,0.0,0.0,0.0,0.1913,0.0766,-0.0818,-0.2934,-0.3978,-0.5759,-0.8365,-0.9495,-1.0929,-1.2663,-1.3009,-1.3014,-1.2806,-1.2389,-1.225,0.0,0.0,0.0,0.0,-1.2559,0.0,0.0,0.0,0.0,0.0,-1.2891,-1.2891,0.0,-1.2891,-1.2891,-1.2891,0.0,0.0,0.0,0.0,-1.3815,-1.405,-1.5264,-1.5989,-1.6475,-1.641,-1.643,-1.6386,-1.6001,-1.5541,-1.5197,-1.5242,-1.5242,-1.538,-1.6049,-1.5879,-1.6106,-1.7601,-1.7763,-1.8432,-2.0446,-2.2432,-2.4086,-2.5154,-2.6202,-2.6742,0.0,-2.6312,-2.6206,-2.6259,-2.5967,-2.5409,-2.4558,-2.4189,-2.3425,-2.2065,-2.2102,-2.2467,-2.3124,-2.3447,-2.2855,-2.1277,-2.1041,-2.0317,-1.9126,-1.9227,-1.8786,0.0,0.0,0.0,-1.8452,-1.9305,-1.91,-1.829,-1.8747,-1.8432,-1.7719,-1.8226,-1.8446,-1.8426,0.0,0.0,0.0,0.0,0.0,0.0,0.0,0.0,0.0,0.0,0.0,0.0,0.0,0.0,0.0,0.0,0.0,0.0,0.0,0.0,-0.0804,-0.1937,-0.2419,-0.3996,-0.6699,-0.7367,-0.8843,-1.1287,-1.2447,-1.3491,-1.4255,-1.4716,-1.4034,-1.2413,-1.2052,-1.2203,-1.2725,0.0,0.0,0.0,-1.2949,0.0,0.0,0.0,0.0,0.0,0.0,0.0,0.0,-1.2891,-1.2891,-1.2891,-1.2891,0.0,0.0,0.0,0.0,0.0,-1.5039,-1.5753,-1.6221,-1.6291,-1.6244,-1.608,-1.5415,-1.4915,-1.4422,-1.4003,-1.4283,-1.4628,-1.481,-1.4717,-1.5036,-1.6126,-1.6341,-1.7345,-2.0056,-2.1124,-2.2189,-2.3992,-2.4587,-2.4854,-2.4847,-2.4549,-2.4151,-2.3628,-2.3529,-2.3034,-2.1996,-2.1332,-2.0748,-2.0155,-1.9493,-1.9692,-2.0761,-2.1553,-2.1082,-1.9285,-1.8893,-1.8049,-1.6886,-1.7041,-1.6477,-1.5491,0.0,0.0,-1.6232,-1.7829,-1.7807,-1.6876,-1.7382,-1.7274,-1.6793,-1.6683,-1.7042,-1.7423,0.0,0.0,0.0,0.0,0.0,0.0,0.0,0.0,0.0,0.0,0.0,0.0,0.0,0.0,0.0,0.0,0.0,0.0,0.0,-0.0988,-0.3099,-0.5785,-0.5265,-0.5864,-0.7964,-0.9248,-1.0715,-1.2471,-1.3974,-1.5241,-1.6239,-1.5638,-1.4201,-1.2024,-1.2149,-1.2106,-1.2049,-1.2991,0.0,-1.291,-1.3262,0.0,0.0,0.0,0.0,0.0,0.0,0.0,0.0,-1.2891,-1.2891,-1.2891,-1.2891,0.0,0.0,0.0,0.0,0.0,-1.3909,-1.472,-1.5531,-1.6148,-1.5867,-1.5415,-1.5319,-1.4562,-1.405,-1.4468,-1.4236,-1.4226,-1.5188,-1.4871,-1.4849,-1.6047,-1.6826,-1.7913,-1.9674,-2.0387,-2.074,-2.0625,-2.2076,-2.2647,-2.1468,-2.1973,-2.2194,-2.1835,0.0,-2.09,-2.0305,-2.0159,-1.9667,-1.8817,-1.8679,-1.8191,-1.7296,-1.8544,-1.8723,-1.7888,-1.7797,-1.73,-1.6339,-1.635,-1.5807,0.0,0.0,-1.5222,-1.4971,-1.5267,-1.5244,-1.5084,-1.5174,-1.5174,-1.5039,-1.4426,-1.4676,-1.5106,0.0,0.0,0.0,0.0,0.0,0.0,0.0,0.0,0.0,0.0,0.0,0.0,0.0,0.0,0.0,0.0,0.0,0.0,0.0,-0.258,-0.4931,-0.7724,-0.814,-0.9137,-1.088,-1.1985,-1.3339,-1.486,-1.5864,-1.623,-1.6045,-1.3952,-1.2589,-1.187,-1.1219,-1.1081,-1.1334,-1.247,-1.287,-1.272,0.0,0.0,0.0,0.0,0.0,0.0,0.0,0.0,0.0,0.0,-1.2891,-1.2891,-1.2891,0.0,0.0,0.0,0.0,0.0,-1.3647,-1.4027,-1.4491,-1.5393,-1.564,-1.5382,-1.4546,-1.3736,-1.3072,-1.3093,-1.2588,-1.2499,-1.3551,-1.3801,-1.4379,-1.601,-1.6743,-1.7345,-1.803,-1.8658,-1.923,-1.9597,0.0,-2.1083,-2.1014,-2.1133,-2.1014,-2.0587,0.0,0.0,-1.9149,-1.8747,-1.8202,-1.7448,-1.7026,-1.6222,-1.5039,-1.5636,-1.5843,-1.5583,-1.567,-1.5161,-1.4195,-1.3932,-1.3756,-1.3695,0.0,-1.3328,-1.3679,-1.4007,-1.3705,-1.3165,-1.3867,-1.3705,-1.307,-1.3145,-1.2907,-1.2512,0.0,0.0,0.0,0.0,0.0,0.0,0.0,0.0,0.0,0.0,0.0,0.0,0.0,0.0,0.0,0.0,0.0,0.0,0.0,-0.4212,-0.6566,-0.9063,-1.0653,-1.2091,-1.3367,-1.4197,-1.5279,-1.6675,-1.7168,-1.6674,-1.5156,-1.2482,-1.1291,-1.1327,-1.0508,-1.0325,-1.0772,-1.1973,-1.252,-1.2643,0.0,0.0,0.0,0.0,0.0,0.0,0.0,0.0,0.0,0.0,0.0,0.0,0.0,0.0,0.0,-1.2891,-1.2891,-1.3017,-1.3457,-1.3441,-1.3523,-1.448,-1.5017,-1.5111,-1.4223,-1.335,-1.2555,-1.231,-1.1721,-1.1411,-1.1956,-1.2853,-1.398,-1.5585,-1.6224,-1.6574,-1.667,-1.7165,-1.7917,-1.9027,-1.9426,-1.9854,-2.0555,-2.0314,-1.9874,0.0,0.0,0.0,-1.7977,-1.721,-1.6532,-1.5968,-1.5177,-1.435,-1.3522,-1.3414,-1.3378,-1.3378,-1.357,-1.3146,-1.2271,-1.1899,-1.1972,-1.2363,-1.1747,-1.1828,-1.2385,-1.285,-1.2445,-1.1563,-1.2425,-1.2018,-1.1098,-1.1737,-1.128,-1.0171,0.0,0.0,0.0,0.0,0.0,0.0,0.0,0.0,0.0,0.0,0.0,0.0,0.0,0.0,0.0,0.0,0.0,0.0,-0.4274,-0.6052,-0.8074,-1.0393,-1.2501,-1.3802,-1.43,-1.4963,-1.578,-1.6675,-1.7168,-1.6346,-1.4345,-1.293,-1.1443,-0.9918,-1.0667,-1.0781,-1.0423,-1.1817,-1.2598,-1.2878,-1.2932,0.0,0.0,0.0,0.0,0.0,0.0,0.0,0.0,0.0,0.0,0.0,0.0,0.0,-1.2891,-1.2891,-1.2891,-1.292,-1.2968,-1.2764,-1.2724,-1.3433,-1.3625,-1.3959,-1.5041,-1.42,-1.3252,-1.3756,-1.3117,-1.2289,-1.18,-1.2884,-1.3866,-1.4221,-1.5195,-1.612,-1.6569,-1.6624,-1.7055,-1.7988,-1.8824,-1.9023,-1.8319,-1.8541,-1.8402,0.0,0.0,0.0,-1.6317,-1.5487,-1.4873,-1.4392,-1.3327,-1.273,-1.2714,-1.236,-1.2248,-1.2248,-1.2214,-1.1995,-1.157,-1.1553,-1.1299,-1.0965,-1.0914,-1.0914,-1.0965,-1.1015,-1.0965,-1.0813,-1.0191,-0.9526,-0.8985,-0.968,-0.9475,-0.8724,0.0,0.0,0.0,0.0,0.0,0.0,0.0,0.0,0.0,0.0,0.0,0.0,0.0,0.0,0.0,0.0,0.0,0.0,-0.6651,-0.7824,-0.9615,-1.2371,-1.3243,-1.4105,-1.4982,-1.5817,-1.666,-1.7519,-1.6674,-1.5548,-1.4131,-1.2492,-1.1204,-1.0282,-1.0251,-1.0119,-0.9981,-1.1209,-1.1673,-1.1679,-1.2125,-1.2286,0.0,0.0,0.0,0.0,0.0,0.0,0.0,0.0,-1.1882,-1.2246,-1.2246,-1.2559,-1.2891,-1.2891,-1.2891,-1.2891,-1.2891,-1.2613,-1.2622,-1.3619,-1.3127,-1.2875,-1.468,-1.4162,-1.3364,-1.3412,-1.2933,-1.2508,-1.2619,-1.2636,-1.3014,-1.395,-1.4714,-1.5292,-1.5668,-1.621,-1.6715,-1.706,-1.7969,-1.8228,-1.7703,-1.779,-1.7323,0.0,0.0,0.0,-1.3987,-1.3655,-1.3303,-1.2923,-1.2484,-1.1962,-1.1288,-1.1162,-1.0771,-1.0048,-1.1204,-1.1284,-1.0457,-1.0457,-1.0585,-1.0762,-0.9909,-0.9547,-0.9518,-0.9997,-0.9377,-0.8159,-0.7882,-0.7629,-0.7427,-0.7682,-0.7629,-0.7213,0.0,0.0,0.0,0.0,0.0,0.0,0.0,0.0,0.0,0.0,0.0,0.0,0.0,0.0,0.0,0.0,0.0,0.0,-0.7839,-0.8989,-1.0559,-1.2832,-1.3477,-1.4204,-1.5195,-1.5801,-1.6543,-1.7402,-1.5992,-1.4822,-1.39,-1.2336,-1.1229,-1.0604,-1.0234,-1.01,-1.0161,-1.0802,-1.1137,-1.1209,-1.1547,-1.1566,0.0,0.0,0.0,0.0,0.0,0.0,0.0,0.0,-1.1116,-1.1466,-1.1466,-1.1832,-1.2264,-1.2264,-1.2264,-1.2264,-1.2264,-1.1897,-1.1782,-1.2947,-1.2401,-1.2149,-1.4299,-1.3949,-1.3306,-1.3416,-1.2743,-1.2167,-1.2569,-1.2289,-1.2288,-1.3111,-1.3759,-1.4283,-1.4664,-1.5196,-1.5687,-1.5964,-1.6601,-1.6794,-1.6468,-1.63,-1.567,0.0,0.0,0.0,0.0,-1.2184,-1.1955,-1.1712,-1.136,-1.0816,-1.0097,-0.9764,-0.9247,-0.8487,-0.9486,-0.979,-0.9458,-0.9026,-0.9169,-0.974,-0.862,-0.809,-0.8053,-0.8593,-0.7629,-0.5919,-0.619,-0.5964,-0.5584,-0.5584,-0.5412,-0.5015,0.0,0.0,0.0,0.0,0.0,0.0,0.0,0.0,0.2559,0.0278,0.0,0.0,0.0,0.0,0.0,0.0,0.0,0.0,-0.761,-0.9421,-1.0723,-1.1464,-1.3127,-1.4336,-1.4766,-1.4766,-1.5195,-1.6115,-1.5303,-1.448,-1.36,-1.2629,-1.1646,-1.0645,-1.0862,-1.0995,-1.0969,-1.0688,-1.1045,-1.1735,-1.1285,-1.1282,-1.1464,0.0,0.0,0.0,0.0,0.0,0.0,0.0,-1.0762,-1.0813,-1.0813,-1.0813,-1.0813,-1.0813,-1.0813,-1.0813,-1.0813,-1.032,-1.0052,-1.1064,-1.1302,-1.1875,-1.4028,-1.3677,-1.317,-1.4037,-1.2684,-1.1436,-1.1436,-1.1711,-1.1862,-1.1465,-1.2241,-1.3074,-1.3576,-1.3454,-1.3662,-1.4542,-1.4678,-1.4597,-1.4313,-1.388,0.0,0.0,0.0,0.0,0.0,-1.1287,-1.0891,-1.0891,-0.9771,-0.9176,-0.9176,-0.8184,-0.7717,-0.7676,-0.6966,-0.7343,-0.8752,-0.7289,-0.702,-0.7664,-0.6912,-0.6588,-0.6588,-0.6588,-0.5692,-0.4477,-0.5179,-0.4573,-0.3314,-0.3264,-0.2811,-0.2086,0.0,0.0,0.0,0.0,0.0,0.0,0.0,0.0,0.1337,0.0167,-0.1331,0.0,0.0,0.0,0.0,0.0,0.0,0.0,-0.9079,-0.9687,-1.0415,-1.1464,-1.2699,-1.3348,-1.318,-1.3657,-1.4316,-1.5156,-1.5583,-1.4848,-1.305,-1.3044,-1.2277,-1.0862,-1.0955,-1.0875,-1.0688,-1.0658,-1.0622,-1.0587,-1.0444,-1.0219,-0.9878,0.0,0.0,0.0,0.0,0.0,0.0,0.0,0.0,0.0,-1.0115,-1.0423,-1.0813,-1.0813,-1.0813,-1.0813,-1.0813,-1.0493,-1.0462,-1.176,-1.1556,-1.1558,-1.3349,-1.3424,-1.3182,-1.374,-1.2699,-1.1941,-1.2625,-1.1973,-1.1297,-1.1369,-1.1519,-1.1653,-1.204,-1.2633,-1.3119,-1.339,-1.4047,-1.423,-1.3863,-1.3667,0.0,0.0,0.0,0.0,0.0,-0.9855,-0.9591,-0.9437,-0.9086,-0.8657,-0.8172,-0.7872,-0.745,-0.6912,-0.6199,-0.6308,-0.7235,-0.6804,-0.6696,-0.6912,-0.6696,-0.6308,-0.5764,-0.4718,-0.4326,-0.4313,-0.349,-0.2902,-0.2473,-0.1922,-0.1635,-0.123,0.0,0.0,0.0,0.0,0.0,0.0,0.0,0.0,0.0167,-0.1165,-0.2709,-0.4142,0.0,0.0,0.0,0.0,0.0,0.0,-0.9354,-0.9666,-1.0165,-1.0985,-1.2182,-1.293,-1.3103,-1.3715,-1.418,-1.4531,-1.5039,-1.4538,-1.3109,-1.3244,-1.2721,-1.1703,-1.1425,-1.1249,-1.1128,-1.0835,-1.0568,-1.0287,-1.0287,-0.9873,-0.919,0.0,0.0,0.0,0.0,0.0,0.0,0.0,0.0,0.0,-0.9406,-0.9666,-1.0012,-1.0012,-1.0012,-1.0012,-1.0012,-0.9954,-1.0147,-1.1195,-1.1333,-1.1492,-1.2769,-1.3082,-1.3223,-1.3596,-1.2769,-1.2213,-1.2657,-1.1791,-1.1049,-1.1223,-1.1009,-1.0969,-1.1369,-1.1803,-1.2121,-1.2121,-1.2638,-1.2829,-1.2426,-1.2258,0.0,0.0,0.0,0.0,0.0,-0.8622,-0.8546,-0.8381,-0.8103,-0.7729,-0.7289,-0.6956,-0.6578,-0.6145,-0.5437,-0.5328,-0.5773,-0.5773,-0.5764,-0.5701,-0.5093,-0.4601,-0.41,-0.3234,-0.2943,-0.2983,-0.1827,-0.1215,-0.0884,-0.0212,0.0265,0.074,0.0,0.0,0.2824,0.2227,0.0,0.0,0.0,0.0,-0.1054,-0.3154,-0.4088,-0.514,0.0,0.0,0.0,-0.7771,0.0,0.0,0.0,-0.9354,-0.9866,-1.0191,-1.162,-1.2963,-1.4019,-1.4496,-1.4531,-1.4087,-1.4165,-1.3976,-1.3597,-1.3364,-1.3056,-1.2617,-1.211,-1.1797,-1.1717,-1.1156,-1.0742,-1.0537,-1.0537,-0.998,-0.9216,-0.9539,0.0,0.0,0.0,0.0,0.0,0.0,0.0,0.0,-0.8804,-0.8804,-0.8804,-0.8804,-0.8804,-0.8818,-0.8844,-0.9058,-0.9376,-1.0047,-1.0875,-1.162,-1.2104,-1.2632,-1.3068,-1.336,-1.2879,-1.2251,-1.1931,-1.141,-1.1022,-1.0995,-1.0742,-1.0742,-1.1276,-1.1116,-1.0955,-1.0955,-1.089,-1.077,-1.0478,-1.0089,0.0,0.0,0.0,0.0,0.0,-0.761,-0.761,-0.761,-0.6966,-0.6588,-0.648,-0.5819,-0.5483,0.0,-0.4732,-0.4408,-0.4408,-0.4408,-0.434,-0.4149,-0.2773,-0.222,-0.2213,-0.2085,-0.1634,-0.0946,-0.0254,0.0402,0.1054,0.1758,0.2458,0.3261,0.0,0.0,0.0828,0.1275,0.0,0.0,0.0,0.0,-0.2984,-0.4039,-0.5287,-0.6494,-0.7396,-0.8103,0.0,-0.8593,-0.8699,0.0,0.0,-0.8962,-0.9138,-0.9439,-1.1091,-1.2581,-1.3661,-1.4067,-1.4165,-1.4087,-1.4805,-1.4601,-1.3597,-1.3693,-1.3199,-1.2247,-1.1723,-1.1263,-1.0822,-1.0461,-1.014,-0.9873,-0.9873,-0.9619,-0.919,-0.9256,-0.9112,0.0,0.0,0.0,0.0,0.0,0.0,0.0,-0.8804,-0.8804,-0.8804,-0.8804,-0.8804,-0.8858,-0.903,-0.9365,-0.978,-1.0595,-1.1637,-1.2408,-1.1895,-1.1739,-1.1723,-1.2183,-1.2465,-1.2567,-1.1971,-1.157,-1.1263,-1.1022,-1.0742,-1.0672,-1.0728,-1.0688,-1.0712,-1.0712,-1.0072,-0.9576,-0.9358,0.0,0.0,0.0,0.0,0.0,-0.6869,-0.6858,-0.6858,-0.6858,-0.6696,-0.6308,-0.5764,-0.5592,-0.5218,0.0,-0.3953,-0.3566,-0.3566,-0.3622,-0.3284,-0.2666,-0.2327,-0.2195,-0.2135,-0.1082,-0.0559,-0.0254,0.0906,0.1482,0.1738,0.2923,0.3501,0.3859,0.0,0.0,0.0,0.0,0.0,0.0,0.0,0.0,-0.4975,-0.5366,-0.644,-0.7427,-0.8156,-0.8593,0.0,0.0,-0.8804,-0.8804,-0.8804,-0.8804,-0.9153,-0.9967,-1.1009,-1.2158,-1.3303,-1.3478,-1.3771,-1.4167,-1.4599,-1.4458,-1.3808,-1.366,-1.3262,-1.2617,-1.1902,-1.1316,-1.0742,-1.0461,-1.0074,-0.9686,-0.9686,-0.9328,-0.8732,-0.8732,-0.8336,-0.7729,-0.7729,0.0,0.0,0.0,0.0,0.0,0.0,0.0,-0.7729,-0.7729,-0.7996,-0.83,-0.8438,-0.9058,-0.9967,-1.1116,-1.1611,-1.1917,-1.2195,-1.156,-1.0971,-1.12,-1.1144,-1.0997,-1.0941,-1.0723,-1.0648,-1.077,-1.0328,-0.9983,-0.9983,-0.9542,-0.9194,-0.9194,-0.8776,-0.8416,-0.827,0.0,0.0,0.0,0.0,-0.6653,-0.61,-0.6091,-0.5919,-0.5584,-0.5601,-0.5218,-0.4443,-0.4498,-0.4278,-0.3904,-0.3123,-0.2563,-0.223,-0.2286,-0.2047,-0.1633,-0.0924,-0.0639,-0.0619,0.0405,0.0795,0.0877,0.1866,0.2254,0.2401,0.3612,0.4159,0.4471,0.0,0.0,0.0,0.0,0.0,0.0,0.0,0.0,0.0,-0.6761,-0.7427,-0.8103,-0.8752,-0.8804,-0.8804,0.0,0.0,0.0,-0.8804,-0.8858,-0.9411,-1.0576,-1.1017,-1.1673,-1.2631,-1.2767,-1.3203,-1.3927,-1.4046,-1.4045,-1.3932,-1.349,-1.324,-1.3138,-1.2191,-1.1463,-1.0902,-1.0555,-1.0013,-0.9354,-0.9354,-0.8758,-0.7935,-0.7935,-0.7356,-0.6588,-0.6588,-0.6588,-0.6588,-0.6588,0.0,0.0,0.0,0.0,-0.6588,-0.6588,-0.702,-0.7515,-0.7561,-0.8482,-0.9762,-1.0985,-1.0912,-1.0713,-1.1615,-1.0875,-0.999,-0.9846,-0.9414,-0.9185,-0.958,-0.9581,-0.9628,-1.0085,-0.9524,-0.9064,-0.9018,-0.8248,-0.7665,-0.7685,-0.7411,-0.7279,-0.7249,0.0,0.0,0.0,0.0,-0.5928,-0.5156,-0.5101,-0.4765,-0.4045,-0.4064,-0.3788,-0.3123,-0.3178,-0.3178,-0.3123,-0.223,-0.1442,-0.0769,-0.0611,-0.0603,-0.0691,0.0652,0.1169,0.1158,0.1836,0.2097,0.21,0.2637,0.2954,0.3194,0.4216,0.4808,0.5264,0.0,0.0,0.0,0.0,0.0,0.0,0.0,0.0,0.0,0.0,-0.8209,-0.8699,-0.8804,-0.8804,-0.8804,-0.8804,-0.8804,-0.8804,-0.8804,0.0,0.0,-0.9397,-1.0406,-1.1039,-1.1199,-1.1841,-1.2404,-1.2839,-1.3535,-1.3774,-1.354,-1.3743,-1.3666,-1.3375,-1.2054,-1.1169,-1.0645,-1.0033,-0.9105,-0.7985,-0.7985,-0.7475,-0.6792,-0.6792,-0.6727,-0.6588,-0.6588,-0.6588,-0.6588,-0.6588,-0.6588,0.0,0.0,0.0,-0.6588,-0.6588,-0.6696,-0.6792,-0.7099,-0.7811,-0.8527,-0.8907,-0.9029,-0.8857,-0.8165,-0.7851,-0.7459,-0.661,-0.7744,-0.8803,-0.8643,-0.8581,-0.8554,-0.8387,-0.8226,-0.8089,-0.7944,-0.7757,-0.7675,-0.755,-0.6832,-0.6333,-0.6222,0.0,0.0,0.0,-0.4746,-0.4457,-0.3732,-0.3622,-0.3229,-0.2504,-0.2508,-0.2452,-0.2341,-0.2341,-0.2341,-0.2341,-0.0946,0.0054,0.0666,0.1413,0.1369,0.0691,0.1499,0.1877,0.1902,0.2381,0.2731,0.2973,0.3318,0.3875,0.4537,0.5272,0.5885,0.6533,0.0,0.0,0.0,0.0,0.0,0.0,0.0,0.0,0.0,0.0,0.0,-0.8804,-0.8804,-0.8804,-0.8804,-0.8804,-0.8804,-0.8804,-0.8804,-0.8925,-0.9072,-0.9176,-0.9688,-1.0052,-1.0236,-1.058,-1.113,-1.1878,-1.2077,-1.2727,-1.38,-1.356,-1.3517,-1.348,-1.2398,-1.1503,-1.0755,-0.9573,-0.8539,-0.7664,-0.7235,-0.6642,-0.5982,-0.5982,-0.5764,-0.5445,-0.5445,-0.5445,-0.5445,-0.5445,-0.5445,-0.5445,-0.5445,0.0,0.0,0.0,-0.571,-0.6137,-0.6915,-0.7032,-0.7173,-0.8148,-0.8135,-0.7919,-0.8093,-0.7617,-0.7034,-0.6523,-0.6703,-0.7043,-0.7478,-0.7521,-0.7541,-0.7912,-0.7471,-0.7049,-0.6957,-0.6441,-0.5986,-0.5961,-0.5513,-0.5197,-0.5177,0.0,0.0,0.0,-0.3849,-0.3511,-0.2785,-0.2674,-0.2341,-0.1618,-0.2007,-0.1989,-0.1573,-0.1603,-0.1216,-0.0434,0.0277,0.0926,0.1561,0.2454,0.2385,0.1551,0.2378,0.2659,0.2659,0.3195,0.3649,0.4017,0.4245,0.4687,0.5375,0.6195,0.6637,0.7025,0.0,0.0,0.0,0.0,0.0,0.0,0.0,0.0,0.0,0.0,0.0,-0.8804,-0.8804,0.0,0.0,0.0,-0.8646,-0.854,-0.854,-0.854,-0.8684,-0.907,-0.907,-0.9232,-0.9459,-0.9459,-0.9879,-1.0799,-1.0868,-1.1848,-1.3719,-1.3462,-1.3521,-1.3935,-1.2973,-1.1997,-1.0983,-0.9482,-0.8422,-0.7722,-0.6703,-0.5873,-0.5273,-0.5273,-0.4952,-0.4463,-0.4291,-0.4181,-0.4181,-0.4236,-0.4181,-0.4236,-0.4463,-0.4519,0.0,0.0,0.0,-0.5415,-0.623,-0.6075,-0.5924,-0.7063,-0.691,-0.6781,-0.7632,-0.7229,-0.658,-0.6556,-0.5851,-0.5529,-0.6305,-0.635,-0.6521,-0.7168,-0.6561,-0.5988,-0.5948,-0.524,-0.4674,-0.464,-0.4587,-0.4408,-0.4236,0.0,0.0,0.0,-0.3067,-0.2674,-0.1952,-0.1896,-0.1564,-0.0838,-0.1329,-0.1361,-0.0849,-0.0818,-0.0217,0.0894,0.1196,0.161,0.2195,0.3174,0.3197,0.2522,0.3217,0.3478,0.3414,0.3791,0.4353,0.4912,0.4909,0.5376,0.6202,0.6929,0.7388,0.7766,0.0,0.0,0.0,0.0,0.0,0.0,0.0,0.0,0.0,0.0,0.0,-0.8804,-0.8804,-0.8804,-0.8804,-0.8804,-0.8156,-0.7771,-0.7771,-0.7771,-0.8049,-0.8778,-0.8831,0.0,-0.8844,-0.8858,-0.8991,-0.9285,-1.0377,-1.1594,-1.2898,-1.3615,-1.4285,-1.4843,-1.3681,-1.2505,-1.1288,-0.9965,-0.888,-0.7838,-0.621,-0.5164,-0.4574,-0.4574,-0.4519,-0.4408,-0.3732,-0.34,-0.34,-0.3456,-0.34,-0.3511,-0.4236,-0.4519,-0.4519,0.0,0.0,0.0,-0.4636,-0.4699,-0.4766,-0.4838,-0.4956,-0.5047,-0.5255,-0.5219,-0.526,-0.5463,-0.5308,-0.5142,-0.5212,-0.5212,-0.5205,-0.5269,-0.5082,-0.4937,-0.4793,-0.4759,-0.4633,-0.4546,-0.4525,-0.4236,-0.3511,0.0,0.0,0.0,-0.2286,-0.1952,-0.1174,-0.1174,-0.0838,-0.0056,-0.0109,-0.0107,-0.0053,-0.0053,0.0262,0.0911,0.1623,0.2216,0.2712,0.3705,0.4068,0.3929,0.4082,0.4148,0.4108,0.3921,0.4442,0.5445,0.5057,0.5846,0.7256,0.7407,0.826,0.9308,0.0,0.0,0.0,0.0,0.0,0.0,0.0,0.0,0.0,0.0,0.0,0.0,0.0,-0.8804,-0.8593,-0.8156,-0.7396,-0.7182,-0.7664,-0.7717,-0.8049,-0.8752,-0.8804,-0.8804,-0.8804,-0.8804,-0.8951,-0.919,-0.9425,-1.0361,-1.1891,-1.2054,-1.249,-1.3253,-1.3013,-1.2572,-1.1846,-0.9367,-0.8131,-0.7634,-0.5727,-0.4834,-0.4599,-0.4553,-0.4519,-0.4408,-0.3622,-0.3334,-0.3213,-0.2807,-0.2603,-0.2638,-0.2919,-0.3012,-0.3012,-0.3012,-0.3012,-0.3012,-0.3012,-0.3431,-0.388,-0.3961,-0.4376,-0.4809,-0.4958,-0.4992,-0.4986,-0.4938,-0.4965,-0.4965,-0.4863,-0.4925,-0.4992,-0.4992,-0.487,-0.4755,-0.4701,-0.4606,-0.4356,-0.3855,-0.3788,-0.3511,-0.273,0.0,0.0,0.0,0.0,-0.1174,-0.0448,-0.0392,-0.028,0.0,0.0,0.0,0.0,0.0484,0.0991,0.151,0.2295,0.2977,0.3525,0.3923,0.4178,0.4354,0.4733,0.4718,0.4422,0.4671,0.5242,0.5972,0.6407,0.7165,0.8037,0.8255,0.8644,0.9109,0.0,0.0,0.0,0.0,0.0,-1.3681,-1.3681,-1.2343,-1.1217,-1.0753,0.0,0.0,0.0,0.0,-0.8844,-0.7461,-0.6858,-0.6804,-0.7289,-0.7557,-0.8049,-0.8752,-0.8804,-0.8804,-0.8804,-0.8804,-0.8898,-0.9044,-0.9005,-0.9699,-1.1129,-1.1035,-1.1463,-1.2305,-1.2198,-1.2158,-1.2005,-0.9309,-0.8109,-0.7795,-0.562,-0.4748,-0.483,-0.4728,-0.4539,-0.416,-0.3406,-0.2888,-0.2484,-0.1982,-0.1812,-0.1897,-0.2135,-0.2174,-0.2174,-0.2174,-0.2174,-0.2174,-0.2174,-0.2563,-0.3026,-0.3095,-0.3514,-0.3897,-0.4082,-0.4117,-0.4099,-0.4059,-0.4267,-0.4452,-0.4358,-0.4552,-0.4782,-0.4836,-0.4714,-0.4613,-0.4613,-0.4356,-0.3959,-0.3456,-0.3178,-0.2674,-0.1896,0.0,0.0,0.0,0.0,0.0,0.0,0.0,0.0,0.0,0.0,0.011,0.0385,0.0859,0.1469,0.2254,0.2833,0.3436,0.4022,0.402,0.4206,0.4443,0.5075,0.5169,0.4882,0.5457,0.609,0.6764,0.7314,0.791,0.855,0.8738,0.9054,0.951,0.0,0.0,-1.6154,-1.6154,-1.5371,-1.4805,-1.4805,-1.3528,-1.2516,-1.2516,0.0,0.0,0.0,0.0,0.0,-0.69,-0.6663,-0.6608,-0.6652,-0.7289,-0.7996,-0.8752,-0.8752,-0.8752,-0.8752,-0.8752,-0.8752,-0.8752,-0.9044,-0.9628,-1.0541,-1.0757,-1.1354,-1.2138,-1.1288,-1.1222,-1.1655,-0.981,-0.8827,-0.8353,-0.5715,-0.487,-0.5128,-0.5058,-0.4552,-0.3718,-0.3099,-0.2074,-0.1098,-0.1086,-0.1064,-0.1177,-0.1899,-0.2122,-0.2119,-0.2119,-0.2119,-0.2119,0.0,0.0,0.0,-0.2174,-0.2174,-0.225,-0.2441,-0.2517,-0.2539,-0.2681,-0.3173,-0.3571,-0.3571,-0.405,-0.4455,-0.4602,-0.4558,-0.4463,-0.4463,-0.3793,-0.3345,-0.3345,-0.2619,-0.1896,-0.1118,0.0,0.0,0.0,0.0,0.0,0.0,0.0,0.0,0.0,0.0,0.0373,0.1116,0.1169,0.1806,0.3081,0.3134,0.3442,0.4029,0.4172,0.4246,0.4312,0.5193,0.5538,0.5638,0.6191,0.6911,0.7694,0.7602,0.8075,0.8804,0.8804,0.9666,1.0813,0.0,-1.6328,-1.6543,-1.6543,-1.582,-1.5234,-1.5234,-1.4347,-1.3468,0.0,0.0,0.0,-1.1818,-1.0906,-0.978,-0.8433,-0.7677,-0.7401,-0.7733,-0.7715,-0.7783,-0.7996,-0.7996,-0.7783,-0.7235,-0.7717,-0.7729,-0.7235,-0.7909,-0.8235,-0.821,-0.8392,-0.8776,-0.9321,-0.9051,-0.9003,-0.9022,-0.8133,-0.7713,-0.7364,-0.5545,-0.4965,-0.5044,-0.4278,-0.3745,-0.3274,-0.2056,-0.1371,-0.1037,-0.0458,-0.0289,-0.0359,-0.0526,-0.0628,-0.0616,-0.0616,-0.0616,-0.0616,-0.0616,0.0,0.0,0.0,0.0,0.0,-0.2257,-0.2264,-0.2267,-0.2348,-0.2448,-0.2603,-0.2603,-0.2751,-0.285,-0.288,-0.3309,-0.3456,-0.2901,-0.2674,-0.2341,-0.1785,-0.1564,-0.1118,-0.0392,0.0,0.0,0.0,0.0,0.0,0.0,0.0,0.0,0.0,0.0497,0.0882,0.1102,0.2199,0.288,0.3134,0.3661,0.3964,0.4185,0.4611,0.496,0.5193,0.643,0.7007,0.7117,0.7264,0.7499,0.7771,0.8227,0.8881,0.951,0.951,1.0064,1.0864,-1.6621,-1.6816,-1.7051,-1.7227,-1.6699,-1.6289,-1.6465,-1.5762,-1.5042,0.0,0.0,0.0,-1.2865,-1.1419,-1.0004,-0.8572,-0.7928,-0.7519,-0.7302,-0.7723,-0.7812,-0.7477,-0.7812,-0.7644,-0.6803,-0.7253,-0.7253,-0.6803,-0.7323,-0.7459,-0.724,-0.7399,-0.7631,-0.7879,-0.784,-0.7603,-0.7238,-0.6835,-0.6757,-0.6679,-0.5421,-0.5081,-0.5166,-0.417,-0.3528,-0.3011,-0.1783,-0.1072,-0.0587,-0.0117,0.0,0.0,0.0,0.0,0.0,0.0,0.0,0.0,0.0,-0.0112,-0.0167,-0.0167,0.0,0.0,-0.039,-0.0612,-0.0836,-0.0836,-0.1339,-0.1729,-0.1729,-0.2007,-0.2119,-0.1785,-0.2119,-0.2341,-0.223,-0.1952,-0.1564,-0.1174,-0.0838,-0.0448,0.0,0.0,0.0,0.0,0.0,0.0,0.0,0.028,0.0448,0.0448,0.1174,0.1729,0.2063,0.2901,0.3479,0.3684,0.4381,0.4755,0.4755,0.5431,0.5816,0.6027,0.7134,0.7629,0.7717,0.8049,0.8156,0.8209,0.8646,0.9211,0.9821,0.9821,1.0423,1.1266,0.0,-1.7422,-1.7578,-1.8008,-1.7734,-1.7598,-1.8008,-1.7344,-1.6753,0.0,-1.6254,-1.5357,-1.3899,-1.2175,-1.0339,-0.8217,-0.7986,-0.7417,-0.625,-0.7498,-0.7881,-0.7002,-0.7704,-0.7704,-0.6883,-0.6942,-0.6942,-0.6883,-0.6962,-0.6981,-0.6861,-0.713,-0.7279,-0.724,-0.7089,-0.6694,-0.6036,-0.581,-0.5875,-0.6029,-0.5149,-0.5041,-0.531,-0.414,-0.3271,-0.2614,-0.1884,-0.0891,0.0,0.0,0.0,0.0,0.0,0.0,0.0,0.0,0.0058,0.0117,0.0171,0.0679,0.1299,0.1237,0.1745,0.0,0.2233,0.1734,0.1235,0.1229,0.0112,-0.0838,-0.0838,-0.1451,-0.1729,-0.1062,-0.0894,-0.1116,-0.184,-0.1397,-0.095,-0.095,-0.0392,0.0,0.0,0.0,0.0,0.0,0.0056,0.0112,0.0112,0.0838,0.1229,0.1229,0.1952,0.2674,0.34,0.3511,0.3898,0.4622,0.5273,0.5592,0.5647,0.6362,0.6696,0.675,0.7503,0.7836,0.7889,0.854,0.8804,0.8804,0.8857,0.9316,0.9909,1.0012,1.0813,1.1913,-1.7383,-1.7656,-1.8027,-1.8437,-1.8164,-1.8027,-1.8457,-1.7793,-1.71,-1.651,-1.5653,-1.486,-1.4484,-1.355,-1.2257,-1.0335,-0.9639,-0.8734,-0.7471,-0.7379,-0.7002,-0.6233,-0.6344,-0.6113,-0.5336,-0.5932,-0.5932,-0.5336,-0.601,-0.6075,-0.5527,-0.5689,-0.5697,-0.5564,-0.5402,-0.5275,-0.5154,-0.5125,-0.4776,-0.4271,-0.4064,-0.4159,-0.4153,-0.2461,-0.164,-0.1349,-0.0607,-0.0186,0.0,0.0,0.0,0.0,0.0,0.0,0.0,0.0,0.0478,0.1063,0.1023,0.1691,0.234,0.2281,0.2429,0.0,0.2261,0.2221,0.219,0.202,0.1283,0.0671,0.0671,0.0056,-0.0392,-0.0224,0.028,0.0391,-0.0336,-0.028,-0.0224,-0.0224,-0.0112,0.0,0.0,0.0,0.0,0.0,0.056,0.0894,0.0894,0.1564,0.2007,0.2007,0.273,0.3234,0.3345,0.4498,0.5156,0.5328,0.6036,0.6372,0.6416,0.7128,0.7503,0.7503,0.8262,0.8593,0.8593,0.8752,0.8804,0.8857,0.9406,1.0012,1.0661,1.1216,1.1931,1.2676,-1.7734,-1.8027,-1.8457,-1.8887,-1.8789,-1.8705,-1.8807,-1.8227,-1.7623,-1.6874,-1.5931,-1.5124,-1.4662,-1.3973,-1.2849,-1.1055,-0.9967,-0.8827,-0.7493,-0.7149,-0.6612,-0.5769,-0.6132,-0.5951,-0.5142,-0.5516,-0.5516,-0.5142,-0.5588,-0.5632,-0.525,-0.5325,-0.5277,-0.5128,-0.5053,-0.4986,-0.4925,-0.4992,-0.4771,-0.4391,-0.3958,-0.3594,-0.3188,-0.1734,-0.1186,-0.1081,-0.0296,0.0,0.0,0.0,0.031,0.0647,0.0588,0.0891,0.1263,0.1263,0.1563,0.1929,0.1959,0.2581,0.3245,0.3195,0.3421,0.0,0.0,0.3147,0.2915,0.2915,0.2257,0.1684,0.1769,0.1412,0.1118,0.1118,0.1397,0.1506,0.1174,0.0783,0.0392,0.0056,0.0,0.0,0.0,0.0,0.0168,0.0504,0.0894,0.1285,0.1618,0.2341,0.273,0.273,0.3511,0.3959,0.3904,0.4615,0.5164,0.5483,0.6253,0.6804,0.7182,0.7943,0.8262,0.8262,0.8646,0.8804,0.8804,0.8804,0.9015,0.9316,0.9666,1.0407,1.1366,1.1683,1.2246,1.2891,-1.8086,-1.8281,-1.8652,-1.9082,-1.9073,-1.8938,-1.8897,-1.8404,-1.7709,-1.6879,-1.6064,-1.5416,-1.4787,-1.413,-1.2982,-1.121,-0.9916,-0.8505,-0.7086,-0.6733,-0.6233,-0.5473,-0.6094,-0.6137,-0.5425,-0.5425,-0.5425,-0.5425,-0.5425,-0.5425,-0.5425,-0.5425,-0.5291,-0.5176,-0.5114,-0.5074,-0.5047,-0.4885,-0.4785,-0.4601,-0.367,-0.3083,-0.2595,-0.137,-0.0956,-0.0973,-0.0238,0.0,0.0,0.0,0.0575,0.1272,0.1165,0.1744,0.2513,0.2556,0.2616,0.2772,0.2931,0.3499,0.412,0.4036,0.4442,0.4762,0.0,0.0,0.0,0.376,0.3067,0.2475,0.26,0.2388,0.2174,0.2174,0.0,0.0,0.0,0.1785,0.0,0.0504,0.0448,0.0,0.0224,0.0224,0.0448,0.1062,0.1341,0.1785,0.2397,0.3123,0.3511,0.3511,0.4181,0.4519,0.4519,0.4622,0.5062,0.571,0.647,0.7182,0.7943,0.854,0.8804,0.8804,0.8804,0.8804,0.8804,0.8962,0.9368,1.0012,1.0012,1.0712,1.1814,1.195,1.2363,1.2891,-1.8086,-1.8047,-1.8223,-1.8633,-1.8209,-1.8004,-1.8362,-1.751,-1.6588,-1.5816,-1.5078,-1.4751,-1.4913,-1.4408,-1.3335,-1.1389,-1.0084,-0.8581,-0.6869,-0.6043,-0.5575,-0.5555,-0.5568,-0.5491,-0.5425,-0.5425,-0.5425,-0.5425,-0.5425,-0.5425,-0.5425,-0.5425,-0.5418,-0.5325,-0.506,-0.5155,-0.542,-0.4273,-0.3508,-0.3071,-0.1992,-0.206,-0.2536,-0.0781,-0.0118,-0.0118,-0.0059,0.0,0.0,0.0,0.0609,0.131,0.1313,0.1845,0.2527,0.2652,0.3126,0.367,0.3796,0.4509,0.0,0.0,0.5031,0.0,0.4748,0.0,0.4512,0.4399,0.0,0.3178,0.3193,0.0,0.0,0.2174,0.0,0.0,0.2286,0.2674,0.2785,0.2063,0.1952,0.0,0.0,0.095,0.1006,0.1118,0.2286,0.3067,0.3178,0.3959,0.4346,0.4346,0.4463,0.4519,0.4519,0.5109,0.5764,0.648,0.7235,0.7943,0.8699,0.8752,0.8804,0.8804,0.8804,0.8804,0.8857,0.9458,1.0064,1.0661,1.0661,1.1166,1.1864,1.251,1.2822,1.2891,-1.7097,-1.7404,-1.7417,-1.7063,-1.6788,-1.658,-1.655,-1.6108,-1.5618,-1.5245,-1.5259,-1.5257,-1.5217,-1.4843,-1.433,-1.3562,-1.1327,-0.9627,-0.881,-0.6942,-0.5915,-0.5976,-0.5745,-0.5616,-0.5616,-0.5535,-0.5454,-0.5425,-0.5425,-0.5425,-0.5425,-0.5425,-0.5311,-0.5223,-0.5094,-0.5101,-0.5132,-0.4143,-0.3577,-0.3283,-0.1884,-0.1564,-0.1759,-0.0475,0.0,0.0,0.0,0.0,0.0,0.0,0.0602,0.0,0.0,0.2481,0.3352,0.3867,0.425,0.4577,0.4766,0.5029,0.0,0.0,0.0,0.0,0.483,0.0,0.4592,0.0,0.0,0.0,0.0,0.0,0.0,0.0,0.3788,0.0,0.0,0.0,0.3566,0.0,0.0,0.0,0.0,0.0,0.0,0.0,0.2952,0.3511,0.3959,0.4298,0.4519,0.4519,0.4897,0.5054,0.5054,0.5764,0.6524,0.7235,0.7557,0.8103,0.8804,0.8804,0.8804,0.8804,0.8804,0.8804,0.8804,0.9106,0.9873,1.0813,1.0813,1.1484,1.251,1.2774,1.2891,1.2891,-1.572,-1.6227,-1.6436,-1.5769,-1.5569,-1.537,-1.5139,-1.4933,-1.4897,-1.5057,-1.5444,-1.5698,-1.5645,-1.5378,-1.5206,-1.4965,-1.2292,-1.0508,-1.007,-0.7749,-0.6261,-0.6139,-0.6003,-0.5867,-0.5745,-0.5677,-0.5576,-0.5426,-0.5452,-0.5425,-0.5425,-0.5425,-0.5304,-0.5196,-0.5196,-0.5135,-0.4984,-0.4175,-0.3689,-0.3396,-0.1882,-0.1101,-0.0898,-0.0236,0.0,0.0,0.0,0.0,0.0,0.0,0.0597,0.0,0.18,0.2747,0.3872,0.4442,0.4774,0.5053,0.5243,0.0,0.0,0.0,0.0,0.0,0.0,0.0,0.0,0.0,0.0,0.0,0.0,0.0,0.4572,0.4587,0.0,0.4567,0.4525,0.4519,0.0,0.0,0.0,0.0,0.0,0.0,0.0,0.3289,0.3511,0.3904,0.4463,0.4519,0.4567,0.4787,0.5273,0.5592,0.5819,0.6308,0.6966,0.7717,0.7717,0.8103,0.8804,0.8804,0.8804,0.8804,0.8804,0.891,0.9106,0.9263,1.0012,1.1065,1.1283,1.1999,1.2891,1.2891,1.2891,1.2891,-1.3954,-1.4601,-1.5259,-1.5242,-1.4875,-1.4641,-1.4521,-1.4509,-1.4736,-1.5311,-1.5404,-1.5618,-1.6179,-1.5979,-1.5544,-1.5009,-1.2731,-1.084,-0.9855,-0.7712,-0.6268,-0.5833,-0.6091,-0.6044,-0.5603,-0.5725,-0.5725,-0.5583,-0.5433,-0.5425,-0.5425,-0.5425,-0.5425,-0.5418,-0.5418,-0.5418,-0.5338,-0.4218,-0.3411,-0.2646,-0.1552,-0.065,-0.0059,0.0,0.0,0.0,0.0,0.0,0.0,0.0,0.0589,0.0,0.0,0.0,0.0,0.0,0.0,0.0,0.0,0.0,0.0,0.5128,0.0,0.0,0.0,0.0,0.6307,0.0,0.0,0.0,0.0,0.4911,0.4857,0.4707,0.468,0.0,0.0,0.4519,0.0,0.0,0.0,0.0,0.0,0.0,0.3289,0.34,0.407,0.4463,0.4519,0.4519,0.4787,0.5437,0.5483,0.5819,0.6534,0.6588,0.6966,0.7717,0.7717,0.8103,0.8804,0.8804,0.8804,0.8804,0.8804,0.9159,0.9806,1.0474,1.1166,1.1814,1.2559,1.2871,1.2891,1.2891,1.2891,1.2891,-1.4067,-1.396,-1.3748,-1.3375,-1.3365,-1.365,-1.4349,-1.5525,-1.6253,-1.6249,-1.6259,-1.6567,-1.7355,-1.7181,-1.6896,-1.6768,-1.3945,-1.199,-1.1441,-0.8721,-0.7048,-0.6993,-0.6898,-0.6729,-0.6485,-0.6322,-0.6125,-0.5881,-0.5725,-0.565,-0.565,-0.5555,-0.5515,-0.5508,-0.5406,-0.499,-0.4313,-0.3457,-0.2506,-0.154,-0.0685,-0.0254,0.0,0.0,0.0,0.0,0.0,0.0,0.0,0.0,0.0174,0.0587,0.1564,0.2359,0.3079,0.4124,0.4624,0.0,0.0,0.0,0.4863,0.4965,0.0,0.0,0.0,0.0,0.0,0.0,0.0,0.0,0.0,0.5275,0.4904,0.485,0.4755,0.4674,0.0,0.458,0.0,0.4519,0.4236,0.407,0.0,0.0,0.0,0.4125,0.4346,0.4519,0.4519,0.4897,0.5273,0.5483,0.646,0.7074,0.7343,0.7836,0.8156,0.8421,0.8421,0.854,0.8804,0.8804,0.8804,0.8804,0.9263,0.9614,0.9858,1.0509,1.1216,1.1814,1.208,1.2461,1.2891,1.2891,1.2891,1.2968,-1.3844,-1.3535,-1.3053,-1.2545,-1.2799,-1.3427,-1.4509,-1.5973,-1.6862,-1.672,-1.6887,-1.7275,-1.7956,-1.7862,-1.7742,-1.7742,-1.5231,-1.3243,-1.236,-0.9845,-0.8088,-0.7366,-0.7272,-0.7082,-0.677,-0.6681,-0.6437,-0.603,-0.5989,-0.5908,-0.58,-0.5705,-0.5637,-0.5589,-0.5243,-0.461,-0.3768,-0.3041,-0.2082,-0.1033,-0.0314,0.0,0.0,0.0,0.0,0.0,0.0,0.0,0.0,0.0,0.0,0.0234,0.1412,0.2069,0.2602,0.3823,0.4442,0.4782,0.4891,0.485,0.0,0.4958,0.4958,0.0,0.5101,0.0,0.0,0.0,0.0,0.0,0.0,0.5406,0.5102,0.5297,0.5247,0.5195,0.0,0.5298,0.5171,0.4897,0.4622,0.4519,0.4519,0.4519,0.4519,0.4519,0.4732,0.4842,0.0,0.0,0.6036,0.6244,0.7224,0.7836,0.8103,0.8593,0.8804,0.8804,0.8804,0.8804,0.8804,0.8804,0.891,0.9159,0.9614,1.0064,1.0509,1.0965,1.1566,1.2178,1.2178,1.251,1.2891,1.2891,1.2891,1.3017,-1.3386,-1.3267,-1.3186,-1.2983,-1.34,-1.4058,-1.4856,-1.5806,-1.6478,-1.67,-1.7261,-1.7742,-1.805,-1.8103,-1.8103,-1.809,-1.6605,-1.4723,-1.2639,-1.11,-0.9242,-0.7201,-0.7258,-0.7129,-0.6539,-0.6797,-0.6654,-0.6071,-0.62,-0.6112,-0.5833,-0.582,-0.5739,-0.5484,-0.4792,-0.4211,-0.3599,-0.2969,-0.2033,-0.1005,-0.0306,0.0,0.0,0.0,0.0,0.0,0.0,0.0,0.0,0.0,0.0,0.0117,0.0908,0.1623,0.2345,0.3132,0.3916,0.4538,0.4836,0.4918,0.4952,0.5094,0.0,0.0,0.0,0.0,0.6705,0.0,0.0,0.0,0.0,0.0,0.5517,0.5945,0.6061,0.6162,0.6494,0.6598,0.6327,0.5609,0.4952,0.4574,0.4574,0.4574,0.4574,0.4629,0.5218,0.5538,0.5538,0.0,0.6966,0.7676,0.7717,0.8103,0.8804,0.8804,0.8804,0.8804,0.8804,0.8804,0.8804,0.8857,0.9211,0.9821,0.9858,1.061,1.1814,1.1814,1.2295,1.2891,1.2891,1.2891,1.2891,1.2891,1.2939,1.3113,-1.4914,-1.4518,-1.4229,-1.4376,-1.5078,-1.5519,-1.5359,-1.6588,-1.7597,-1.7365,-1.7889,-1.845,-1.8971,-1.9025,-1.8945,-1.8718,-1.7179,-1.5837,-1.4862,-1.2206,-1.0339,-0.9575,-0.8466,-0.7692,-0.7319,-0.7163,-0.6959,-0.6695,-0.6403,-0.6274,-0.6295,-0.6071,-0.55,-0.4803,-0.4566,-0.3514,-0.1912,-0.1922,-0.1277,-0.0253,-0.0064,0.0,0.0,0.0,0.0,0.0,0.0,0.0,0.0,0.0,0.0,0.0236,0.1674,0.2148,0.2479,0.4024,0.4546,0.4674,0.4863,0.4918,0.4952,0.5094,0.5162,0.5209,0.0,0.0,0.0,0.0,0.0,0.0,0.0,0.0,0.5417,0.6013,0.6614,0.6787,0.6237,0.6604,0.6717,0.5975,0.5963,0.5828,0.5273,0.5218,0.5492,0.6046,0.6209,0.6308,0.6308,0.0,0.0,0.7664,0.8209,0.8593,0.8804,0.8804,0.8804,0.8804,0.8804,0.8804,0.8804,0.9316,0.9614,0.9858,1.0864,1.1466,1.1864,1.2393,1.2725,1.2891,1.2891,1.2891,1.2891,1.2891,1.319,1.3695,-1.5149,-1.5048,-1.515,-1.5311,-1.5943,-1.6345,-1.5833,-1.6732,-1.7512,-1.758,-1.8116,-1.8611,-1.8945,-1.9212,-1.9252,-1.8945,-1.7966,-1.6882,-1.5684,-1.3793,-1.2093,-1.0483,-0.9498,-0.8542,-0.7509,-0.7265,-0.7007,-0.6729,-0.6478,-0.6363,-0.6376,-0.6207,-0.579,-0.5121,-0.4265,-0.3158,-0.1983,-0.1236,-0.0545,0.0,0.0,0.0,0.0,0.0,0.0,0.0,0.0,0.0,0.0,0.0,0.0,0.0307,0.1965,0.24,0.2696,0.4381,0.4857,0.4823,0.4972,0.5013,0.5047,0.5196,0.523,0.5257,0.5345,0.5822,0.614,0.0,0.0,0.0,0.0,0.0,0.0,0.658,0.731,0.756,0.7053,0.7306,0.7161,0.5931,0.6406,0.6579,0.6046,0.5982,0.6145,0.6588,0.6912,0.7074,0.0,0.0,0.0,0.8156,0.8828,0.9221,0.9211,0.9343,0.9343,0.9211,0.9031,0.9085,0.9263,0.9614,1.0115,1.0712,1.1466,1.1963,1.2295,1.2725,1.2891,1.2891,1.2891,1.2891,1.2891,1.2891,1.3286,1.3909,-1.479,-1.5404,-1.5979,-1.5899,-1.6406,-1.6767,-1.6593,-1.674,-1.7074,-1.7622,-1.8223,-1.8611,-1.8611,-1.9065,-1.9252,-1.8945,-1.8691,-1.7838,-1.6065,-1.5422,-1.3898,-1.083,-1.0401,-0.9268,-0.7499,-0.721,-0.6919,-0.6532,-0.6451,-0.6369,-0.6288,-0.6268,-0.611,-0.5757,-0.3943,-0.2856,-0.2382,-0.0684,0.0,0.0,0.0,0.0,0.0,0.0,0.0,0.0,0.0,0.0,0.0,0.0,0.0,0.0321,0.2005,0.2537,0.283,0.4467,0.4965,0.4979,0.5121,0.5162,0.5189,0.5325,0.5425,0.5425,0.5425,0.5491,0.5508,0.5162,0.5301,0.538,0.0,0.0,0.0,0.7317,0.7968,0.827,0.8303,0.8232,0.7678,0.6073,0.6753,0.0,0.6975,0.6846,0.6836,0.6858,0.7503,0.0,0.0,0.0,0.0,0.8871,0.9392,0.0,0.9857,0.0,1.0034,1.0016,0.9617,0.9644,1.0098,1.0156,1.0794,1.1886,1.195,1.2295,1.2891,1.2891,1.2891,1.2891,1.2891,1.2891,1.2891,1.2891,1.3286,1.3909,-1.5618,-1.6313,-1.6767,-1.6286,-1.6874,-1.7582,-1.8036,-1.7943,-1.7943,-1.829,-1.8851,-1.9212,-1.9212,-1.9305,-1.9252,-1.8945,-1.8878,-1.8486,-1.7672,-1.607,-1.4389,-1.2454,-1.087,-0.9235,-0.7563,-0.717,-0.6926,-0.6851,-0.6349,-0.622,-0.643,-0.6315,-0.5777,-0.4892,-0.3663,-0.2125,-0.0505,-0.0141,0.0,0.0,0.0,0.0,0.0,0.0,0.0,0.0,0.0,0.0,0.0,0.0,0.0,0.0324,0.2101,0.2621,0.2853,0.4751,0.5196,0.5128,0.5277,0.5318,0.5325,0.5418,0.5425,0.5425,0.5425,0.5947,0.6221,0.5283,0.5721,0.5974,0.5227,0.0,0.0,0.0,0.0,0.0,0.0,0.8551,0.8282,0.8062,0.8494,0.8818,0.8779,0.8269,0.8062,0.8394,0.854,0.0,0.0,0.0,0.0,0.0,0.9499,0.0,0.0,0.0,1.0203,1.1017,1.0751,1.101,1.1721,1.1903,1.2182,1.2371,1.2613,1.2774,1.2891,1.2891,1.2891,1.2891,1.2891,1.2891,1.2891,1.2891,1.3286,1.3909,-1.6914,-1.7074,-1.7208,-1.7395,-1.7769,-1.825,-1.8851,-1.8958,-1.8905,-1.8731,-1.8958,-1.9078,-1.8931,-1.9185,-1.9252,-1.8945,-1.8784,-1.8517,-1.8076,-1.6324,-1.4537,-1.2823,-1.1189,-0.9533,-0.7611,-0.7156,-0.6892,-0.681,-0.6288,-0.6146,-0.6363,-0.6295,-0.6022,-0.5467,-0.3857,-0.1971,0.0,0.0,0.0,0.0,0.0,0.0,0.0,0.0,0.0,0.0,0.0,0.0,0.0,0.0,0.0,0.0331,0.2134,0.2628,0.2974,0.4851,0.5311,0.527,0.5345,0.5425,0.5345,0.5264,0.5304,0.5338,0.5257,0.5625,0.5858,0.5394,0.5575,0.5762,0.5315,0.5439,0.0,0.0,0.0,0.0,0.0,0.0,0.8468,0.7913,0.8477,0.8777,0.8433,0.8588,0.0,0.8778,0.8804,0.8804,0.0,0.0,0.0,0.0,0.0,0.0,0.0,0.0,0.0,1.1579,1.1725,1.2101,1.2639,1.2735,1.3019,1.3336,1.3459,1.3535,1.3535,1.3535,1.3535,1.3516,1.3281,1.3203,1.3184,1.2969,1.3065,1.343,-1.805,-1.7862,-1.7822,-1.8464,-1.8731,-1.9011,-1.9479,-1.98,-1.9773,-1.9185,-1.9052,-1.8931,-1.8704,-1.9092,-1.9225,-1.8865,-1.8624,-1.822,-1.7525,-1.6086,-1.4444,-1.2412,-1.1187,-0.9638,-0.7658,-0.7204,-0.6885,0.0,0.0,0.0,-0.6213,-0.6247,-0.6163,-0.5816,-0.4208,0.0,0.0,0.0,-0.0285,-0.0288,-0.007,0.0,0.0,0.0,0.0,0.0,0.0,0.0,0.0,0.0,0.0,0.0269,0.1877,0.2542,0.3013,0.4622,0.5226,0.5425,0.5425,0.5338,0.5284,0.4964,0.4958,0.5016,0.49,0.4984,0.516,0.5359,0.5425,0.5425,0.5425,0.5264,0.0,0.0,0.0,0.0,0.0,0.0,0.8644,0.7777,0.8422,0.864,0.7991,0.0,0.0,0.0,0.0,0.8804,0.8804,0.9138,0.0,0.0,0.0,1.1387,1.1048,0.0,1.2842,0.0,1.283,1.3182,1.3571,1.3479,1.377,1.4223,1.4126,1.4087,1.4087,1.4087,1.4087,1.4048,1.3769,1.3594,1.3477,1.3145,1.2949,1.2988,-1.8437,-1.8838,-1.9105,-1.8918,-1.9546,-2.0094,-2.0147,-2.0401,-2.0388,-1.98,-1.9492,-1.9319,-1.9292,-1.9332,-1.9145,-1.8584,-1.8504,-1.7689,-1.5815,-1.5196,-1.3663,-1.1052,-1.0322,-0.9355,-0.7794,-0.7353,-0.698,0.0,0.0,-0.6173,0.0,-0.6193,-0.572,0.0,0.0,0.0,0.0,-0.1723,-0.136,-0.1119,-0.0342,0.0,0.0,0.0,0.0,0.0,0.0,0.0,0.0,0.0,0.0,0.0135,0.114,0.2008,0.288,0.388,0.4755,0.5425,0.5425,0.5257,0.4957,0.4296,0.4046,0.3988,0.4105,0.4132,0.435,0.5226,0.5425,0.5425,0.5425,0.5418,0.5668,0.0,0.0,0.0,0.0,0.0,0.9005,0.9382,0.9781,0.9623,0.8778,0.9495,0.0,0.0,0.8951,0.8804,0.8804,0.9339,0.9646,0.9646,0.0,1.1157,1.2045,1.1977,0.0,1.4444,1.4183,1.4436,1.5158,1.479,1.4671,1.4707,1.4297,1.4087,1.4087,1.4087,1.4087,1.4068,1.4029,1.3848,1.3496,1.3457,1.3203,1.3076,-1.9533,-1.9439,-1.9492,-1.9907,-1.9973,0.0,0.0,-2.0561,-2.0321,-2.0094,-1.9813,-1.9559,-1.9386,-1.9372,-1.8774,-1.7266,-1.7216,-1.6318,-1.4266,-1.3077,-1.1907,-1.075,-0.9595,-0.8656,-0.7814,-0.755,-0.7224,0.0,0.0,0.0,0.0,0.0,0.0,0.0,0.0,-0.4059,-0.2928,-0.262,-0.2478,-0.2341,-0.2029,-0.1512,-0.0933,-0.0933,-0.0559,0.0,0.0,0.0,0.0,0.0,0.0,0.0135,0.1006,0.154,0.2008,0.2943,0.348,0.3747,0.3747,0.3718,0.3591,0.3214,0.3143,0.3132,0.3088,0.3563,0.4084,0.4483,0.502,0.5425,0.5425,0.5425,0.5683,0.0,0.0,0.0,0.0,0.0,0.0,0.9174,0.9235,0.9112,0.862,0.0,0.0,0.0,0.0,0.9339,0.9339,0.9726,0.994,0.994,0.0,1.1527,1.1959,1.2813,1.3606,1.4387,1.4762,1.5118,1.541,1.5234,1.5156,1.5156,1.498,1.4902,1.4902,1.4902,1.4902,1.4883,1.4629,1.4414,1.4238,1.3984,1.4029,1.4327,-2.0347,0.0,-1.9973,0.0,-2.0388,-2.0294,-2.1002,-2.0535,-2.0134,-2.0227,-1.9535,-1.9103,-1.9386,-1.901,-1.8058,-1.6458,-1.585,-1.4744,-1.2753,-1.1567,-1.0632,-1.0032,-0.8955,0.0,-0.7882,-0.7733,-0.7461,-0.7061,-0.7014,0.0,0.0,0.0,0.0,0.0,-0.5126,-0.4683,-0.3874,-0.3687,-0.3544,-0.3503,-0.3209,-0.2657,-0.2037,-0.2053,-0.136,-0.0483,-0.0487,-0.0278,0.0,0.0,0.0,0.0138,0.0742,0.1073,0.1408,0.2075,0.2476,0.2676,0.2676,0.2662,0.2556,0.2202,0.2186,0.2226,0.2139,0.2716,0.3347,0.388,0.4584,0.5158,0.5426,0.546,0.5691,0.6352,0.0,0.0,0.0,0.8788,0.0,0.846,0.8494,0.8527,0.8387,0.911,0.0,0.0,0.0,0.986,0.9699,0.9953,0.0,0.0,0.0,0.0,0.0,1.376,1.4496,1.4754,1.5176,1.541,1.541,1.541,1.541,1.541,1.541,1.541,1.541,1.541,1.541,1.5391,1.5078,1.4883,1.4746,1.4434,1.47,1.5257,-2.0615,-2.0668,-2.0762,-2.1056,-2.0855,-2.0762,-2.1069,-2.0361,-1.9907,-2.0201,-1.8376,-1.7689,-1.9243,-1.7923,-1.6866,-1.6346,-1.4837,-1.3179,-1.1236,-1.0932,-1.0216,0.0,0.0,-0.8201,-0.8038,-0.7889,-0.7665,-0.7366,0.0,0.0,-0.6471,0.0,-0.6179,-0.5962,-0.6193,-0.6091,-0.5741,-0.499,-0.4599,-0.4421,-0.3487,-0.3125,-0.306,-0.3064,-0.245,-0.1602,-0.1571,-0.0892,0.0,0.0,0.0,0.0,0.0,0.0605,0.1274,0.1341,0.1941,0.2676,0.2676,0.2625,0.2317,0.1543,0.1224,0.1159,0.1288,0.1315,0.1808,0.3613,0.4104,0.4463,0.5444,0.5698,0.5793,0.58,0.0,0.0,0.0,0.7681,0.0,0.7558,0.7825,0.0,0.8351,0.8951,0.0,0.0,0.0,0.0,0.0,0.0,0.0,1.0604,1.1789,0.0,1.4065,1.4611,1.5303,1.6055,1.5625,1.541,1.541,1.541,1.541,1.541,1.541,1.541,1.541,1.541,1.541,1.541,1.541,1.5156,1.4785,1.4785,1.4962,1.5351,-2.0949,-2.0975,-2.1002,-2.1096,-2.0869,-2.0708,-2.0802,-1.9351,-1.8237,-1.8323,-1.6578,-1.5548,-1.6031,-1.5666,-1.4769,0.0,-1.2803,-1.162,0.0,-0.9441,-0.9053,-0.8486,-0.8248,-0.8092,-0.8038,-0.7991,-0.7821,-0.7529,0.0,0.0,0.0,-0.6675,-0.6478,-0.6329,-0.6281,-0.6207,-0.6118,-0.5854,-0.5771,-0.5727,-0.5424,-0.4838,-0.417,-0.4208,-0.356,-0.2617,-0.2642,-0.1975,-0.1091,-0.1091,-0.0582,0.0,0.0,0.0213,0.0283,-0.0485,0.0069,0.0826,0.0878,0.0802,0.073,0.0465,0.0399,0.0332,0.0399,0.0881,0.1662,0.2893,0.3134,0.3299,0.3585,0.4185,0.4687,0.4604,0.5916,0.0,0.0,0.0,0.7091,0.6966,0.7127,0.0,0.0,0.9029,0.0,0.0,0.0,0.0,0.0,0.0,0.0,0.0,1.1505,0.0,1.4082,1.4292,1.5078,1.6523,1.6387,1.6309,1.6309,1.6309,1.6309,1.6309,1.6309,1.6309,1.6309,1.6309,1.6133,1.5859,1.5859,1.5586,1.5215,1.5215,1.5572,1.6229,-2.1109,-2.1109,-2.1069,-2.0962,-2.0708,-2.0385,-1.9743,-1.8276,-1.7113,-1.6605,-1.485,-1.3646,-1.3646,-1.3168,0.0,-1.1816,-1.1216,-1.0387,-0.8954,-0.8757,-0.8601,-0.8486,-0.8303,-0.8153,-0.8038,0.0,0.0,-0.7767,-0.774,-0.7529,-0.7136,-0.6898,-0.6702,-0.6552,-0.6464,-0.6424,-0.6424,-0.6424,-0.6424,-0.6424,-0.6424,-0.6015,-0.5343,-0.5343,-0.4649,-0.3659,-0.3213,-0.2467,-0.1571,-0.1123,-0.0524,-0.0075,-0.0449,-0.03,-0.0223,-0.1291,-0.1137,-0.0567,-0.0627,-0.0278,0.0,0.0,0.0,0.0,0.0,0.0421,0.107,0.1955,0.227,0.2357,0.2725,0.3339,0.3786,0.3653,0.4973,0.5951,0.5795,0.0,0.6281,0.0,0.0,0.0,0.0,0.8837,0.9717,0.0,0.0,0.0,0.0,0.0,0.0,1.2123,1.2794,0.0,1.5018,1.523,1.59,1.6973,1.6816,1.6675,1.6675,1.6675,1.6675,1.6675,1.6675,1.6675,1.6675,1.6675,1.6562,1.6309,1.6309,1.6152,1.5898,1.6257,1.6829,1.7564,-2.1109,-2.1109,-2.1015,0.0,-2.0305,0.0,-1.8081,-1.7159,-1.6216,-1.5003,-1.3166,-1.1976,-1.1976,-1.0657,-1.0292,-1.1586,0.0,0.0,0.0,-0.892,-0.8777,-0.8492,-0.8465,-0.8323,-0.8045,-0.8038,-0.8038,-0.8038,-0.7753,-0.7468,-0.7183,-0.7034,-0.6878,-0.6729,-0.6722,-0.6709,-0.6702,-0.6702,-0.6702,-0.6702,-0.6702,-0.6614,-0.6485,-0.6404,-0.5683,-0.4555,-0.3452,-0.2437,-0.1417,-0.0473,-0.0079,-0.0158,-0.1182,-0.0867,-0.0313,-0.1334,-0.1531,-0.1459,-0.1459,-0.0729,0.0,0.0,0.0,0.0,0.0,0.0,0.022,0.1028,0.1348,0.1752,0.2585,0.286,0.3051,0.3041,0.3891,0.4461,0.4277,0.0,0.0,0.0,0.0,0.0,0.0,0.8523,0.9416,0.0,0.0,0.0,0.0,0.0,1.3059,1.3219,1.4985,1.6111,1.6489,1.7044,1.7356,1.7422,1.7012,1.6816,1.6816,1.6816,1.6816,1.6816,1.6816,1.6816,1.6816,1.6816,1.6733,1.6777,1.6777,1.6758,1.6782,1.7637,1.8412,1.9171,0.0,0.0,-2.1015,-2.0722,-1.942,-1.8289,-1.7588,-1.5121,-1.3186,-1.2871,-1.1405,-1.0422,-1.0422,-1.0058,-0.982,-0.9982,-0.9613,-0.9252,-0.896,-0.8716,-0.856,-0.8486,-0.8262,-0.8113,-0.8038,-0.8038,-0.8038,-0.8038,-0.7855,-0.7726,-0.7645,-0.7387,-0.7183,-0.7034,-0.6926,-0.681,-0.6702,-0.6702,-0.6702,-0.6702,-0.6702,-0.6681,-0.6565,-0.5653,-0.5136,-0.47,-0.3542,-0.2473,-0.1569,-0.1321,-0.0661,-0.0083,-0.0331,-0.0744,-0.1305,-0.1528,-0.1049,-0.0375,-0.0375,-0.0222,0.0,0.0,0.0,0.0,0.0,0.0,0.0078,0.0243,0.0327,0.0411,0.0657,0.138,0.2146,0.2679,0.3647,0.4467,0.5024,0.5299,0.0,0.0,0.5664,0.6572,0.8714,0.8836,0.9586,0.0,0.0,0.0,0.0,1.2927,1.32,1.2563,1.369,1.4648,1.5508,1.6347,1.7135,1.7871,1.7754,1.7715,1.7715,1.7715,1.7715,1.7715,1.7715,1.7715,1.7715,1.7715,1.7519,1.7227,1.7227,1.7031,1.6738,1.6908,1.7513,1.8351,-2.1109,-2.1109,-2.075,-1.9699,-1.8667,-1.7276,-1.5439,-1.3416,-1.1976,-1.1261,-1.0301,-0.9822,-0.9822,-0.9822,-0.9734,-0.9503,-0.9422,-0.9252,-0.896,-0.8716,-0.8554,-0.8486,-0.833,-0.8214,-0.8147,-0.8147,-0.8113,-0.8038,-0.7957,-0.7882,-0.7807,-0.7645,-0.7495,-0.7346,-0.7272,-0.6828,-0.6216,-0.6216,-0.5857,-0.5323,-0.5889,-0.6091,-0.586,-0.5204,-0.4984,-0.4689,-0.3016,-0.2095,-0.1509,-0.1007,-0.0505,0.0,0.0,-0.0421,-0.0836,-0.0895,-0.0801,-0.0715,-0.0715,-0.0394,0.0,0.0,0.0,0.0,0.0,0.0,0.0,0.0,0.0,0.0,0.0,0.0908,0.1685,0.2009,0.3377,0.4442,0.4827,0.5287,0.0,0.5677,0.5881,0.6826,0.8885,0.9129,0.9958,1.1933,0.0,0.0,1.2265,1.2931,1.3237,1.3163,1.4109,1.5122,1.6323,1.7332,1.7967,1.8301,1.8301,1.8203,1.8008,1.8008,1.8008,1.8008,1.8008,1.8008,1.8008,1.8008,1.7871,1.7676,1.7676,1.7519,1.7305,1.776,1.8426,1.9288,-2.1109,-2.1109,-2.0498,-1.8423,-1.7789,-1.6418,-1.2891,-1.2092,-1.1374,-0.9943,-0.9822,-0.9822,-0.9822,-0.9822,-0.9768,-0.9618,-0.949,-0.9286,-0.8988,-0.8804,-0.8655,-0.852,-0.8472,-0.8404,-0.8303,-0.8282,-0.8194,-0.8038,-0.8038,-0.797,-0.7848,-0.7848,-0.7671,-0.7341,-0.7341,-0.6567,-0.5308,-0.5308,-0.4647,-0.3695,-0.4749,-0.5036,-0.4858,-0.4682,-0.4515,-0.4189,-0.2138,-0.1369,-0.1199,-0.0343,0.0,0.0,0.0,0.0,0.0,0.0,-0.0609,-0.1367,-0.1363,-0.0682,0.0,0.0,0.0,0.0,0.0,0.0,0.0,0.0,0.0,0.0086,0.0256,0.1003,0.1629,0.1828,0.3308,0.4482,0.4468,0.0,0.582,0.5867,0.6105,0.7057,0.9045,0.9443,1.0362,1.2302,1.2438,1.2545,0.0,1.2889,1.3209,1.4092,1.4997,1.6154,1.771,1.8618,1.8957,1.873,1.873,1.8555,1.8203,1.8144,1.8144,1.8203,1.8066,1.8047,1.8105,1.8047,1.8047,1.8086,1.8027,1.8047,1.8154,1.8885,1.9683,2.0526,-2.1109,-2.1109,-2.0498,-1.8423,-1.6908,-1.5062,-1.2768,-1.1126,-1.0058,-0.9822,-0.9822,-0.9822,-0.9822,-0.9822,-0.9768,-0.9618,-0.9591,-0.9442,-0.9137,-0.8866,-0.8703,-0.8676,-0.8438,-0.835,-0.8445,-0.833,-0.8194,-0.8038,-0.8038,-0.8024,-0.8004,-0.8004,-0.7328,-0.6123,-0.6123,-0.5298,-0.3891,-0.3891,-0.3796,-0.3607,-0.3782,-0.3866,-0.3759,-0.2722,-0.234,-0.2147,-0.0748,-0.0281,-0.0187,-0.0094,0.0,0.0,0.0,0.0,0.0,0.0,-0.0094,-0.028,-0.0275,-0.0091,0.0,0.0,0.0,0.0,0.0,0.0,0.0,0.0,0.0,0.0279,0.137,0.1587,0.2215,0.4076,0.4403,0.4811,0.5619,0.0,0.5901,0.6159,0.6234,0.7196,0.9518,0.9847,1.0759,1.2909,1.3066,1.3093,1.3133,1.3133,1.3333,1.3655,1.4408,1.5739,1.771,1.7859,1.8359,1.918,1.918,1.916,1.9082,1.8711,1.873,1.9043,1.832,1.8203,1.8516,1.8164,1.8223,1.8496,1.8144,1.8223,1.8496,1.8262,1.871,1.9617,-1.9546,-1.9419,-1.8465,-1.591,-1.5179,-1.4025,-1.1695,-1.0585,-0.9944,-0.9944,-0.9869,-0.9822,-0.9822,-0.9822,-0.9795,-0.9727,-0.9652,-0.9551,-0.9408,-0.9042,-0.8798,-0.8716,-0.8581,-0.8499,-0.8479,-0.8418,-0.8269,-0.8038,-0.8038,-0.8038,-0.7939,-0.7235,-0.6603,-0.5852,-0.5156,-0.4044,-0.2742,-0.2742,-0.2353,-0.1765,-0.2329,-0.2608,-0.2603,-0.2005,-0.1808,-0.1618,-0.0476,0.0,0.0,0.0,0.0,0.0,0.0,0.0,0.0,0.0,0.0,0.0,0.0,0.0,0.0,0.0,0.0,0.0,0.0,0.0,0.0,0.0,0.0,0.038,0.1693,0.2268,0.316,0.4865,0.5409,0.0,0.0,0.6261,0.6247,0.6471,0.7127,0.8171,0.9766,1.0539,1.163,1.3055,1.3213,1.328,1.344,1.344,1.3507,1.3641,1.4603,1.5648,1.6602,1.7778,1.8537,1.8789,1.9312,1.9512,1.9277,1.9082,1.8965,1.8926,1.8769,1.8672,1.8633,1.8672,1.8809,1.8945,1.8516,1.8613,1.8906,1.8242,1.867,1.9624,-1.7602,-1.7462,-1.6431,-1.3709,-1.3683,-1.3215,-1.0897,-1.027,-1.0093,-1.0053,-0.9944,-0.9863,-0.9822,-0.9822,-0.9822,-0.9822,-0.972,-0.9646,-0.9612,-0.9286,-0.9008,-0.8825,-0.8784,-0.8662,-0.8438,-0.8465,-0.8336,-0.8038,-0.8038,-0.8038,-0.7939,-0.6631,-0.5827,-0.5527,-0.4117,-0.2814,-0.1511,-0.1511,-0.0907,-0.0101,-0.0994,-0.1381,-0.1379,-0.1359,-0.1352,-0.1255,-0.029,0.0,0.0,0.0,0.0,0.0,0.0,0.0,0.0,0.0,0.0,0.0,0.0,0.0,0.0,0.0,0.0,0.0,0.0,0.0,0.0097,0.0386,0.0483,0.0964,0.2587,0.344,0.4344,0.5673,0.0,0.0,0.0,0.6702,0.6668,0.679,0.8029,0.9186,1.0108,1.1394,1.2541,1.3453,1.352,1.3587,1.3734,1.3748,1.3748,1.3748,1.4696,1.5389,1.5696,1.7658,1.8558,1.8506,1.9526,1.9902,1.959,1.9473,1.9297,1.9082,1.9219,1.916,1.8945,1.9199,1.9355,1.9394,1.8965,1.9062,1.9336,1.8574,1.8914,1.9741,-1.6043,-1.6043,-1.5394,-1.3578,-1.3172,-1.2548,-1.0746,-1.0365,-1.0209,-1.0066,-1.0039,-0.9978,-0.9836,-0.9822,-0.9822,-0.9822,-0.9815,-0.9747,-0.9618,-0.9578,-0.9429,-0.913,-0.8994,-0.8723,-0.8296,-0.8418,-0.8336,-0.8038,-0.8038,-0.8038,-0.7939,-0.6631,-0.5322,-0.4117,-0.2714,-0.141,-0.0101,-0.0101,-0.0101,0.0,-0.0101,-0.0101,-0.0101,-0.0101,-0.0101,-0.0101,0.0,0.0,0.0,0.0,0.0,0.0,0.0,0.0,0.0,0.0,0.0,0.0,0.0,0.0,0.0,0.0,0.0,0.0,0.0,0.0,0.0402,0.1605,0.1805,0.2591,0.5085,0.5456,0.5815,0.7099,0.0,0.0,0.7109,0.7095,0.7095,0.7109,0.8391,0.9741,1.0868,1.2249,1.3468,1.4356,1.4416,1.4322,1.4068,1.4055,1.4055,1.4055,1.3884,1.4365,1.5696,1.6846,1.7963,1.9,2.0041,2.0508,2.0449,2.0059,2.0078,2.0371,1.9629,1.9492,1.9785,1.9434,1.9512,1.9824,1.9414,1.9492,1.9805,1.9355,1.9272,1.9436,-1.4101,-1.3456,-1.2413,-1.1762,-1.1709,-1.141,-1.0761,-1.0507,-1.0358,-1.0209,-1.0107,-0.9992,-0.9836,-0.9822,-0.9822,-0.9822,-0.9822,-0.9795,-0.9741,-0.9741,-0.9564,-0.9171,-0.9103,-0.8906,-0.8554,-0.8506,-0.8425,-0.8316,-0.8126,-0.8092,-0.818,-0.5856,-0.4518,-0.3917,-0.1712,-0.0504,0.0,0.0,0.0,0.0,0.0,0.0,0.0,0.0,0.0,0.0,0.0,0.0,0.0,0.0,0.0,0.0,0.0,0.0,0.0,0.0,0.0,0.0,0.0,0.0,0.0,0.0,0.0,0.0,0.0,0.0621,0.1435,0.1946,0.2635,0.381,0.5575,0.5771,0.6187,0.7581,0.0,0.7346,0.7529,0.74,0.7319,0.7414,0.9292,1.0697,1.1151,1.3062,1.4462,1.4803,1.479,1.475,1.4629,1.4629,1.4549,1.4362,1.4242,1.4642,1.5696,1.6764,1.79,1.9036,2.0079,2.0566,2.0566,2.0391,2.0254,2.0156,2.0098,2.0019,1.9922,2.0039,2.0176,2.0273,1.9844,1.9941,2.0234,1.9551,1.9453,1.9703,-1.2281,-1.1505,-1.0717,-1.0717,-1.0717,-1.0717,-1.0717,-1.0629,-1.0514,-1.0365,-1.0215,-1.0066,-0.991,-0.9849,-0.9822,-0.9822,-0.9822,-0.9822,-0.9822,-0.9822,-0.9666,-0.9313,-0.9205,-0.9035,-0.8791,-0.8628,-0.8315,-0.7842,-0.7552,-0.7304,-0.6872,-0.4497,-0.3344,-0.3243,-0.1011,0.0,0.0,0.0,0.0,0.0,0.0,0.0,0.0,0.0,0.0,0.0,0.0,0.0,0.0,0.0,0.0,0.0,0.0,0.0,0.0,0.0,0.0,0.0,0.0,0.0,0.0,0.0,0.0,0.0,0.0,0.1055,0.2192,0.2606,0.3814,0.52,0.6497,0.662,0.686,0.7766,0.7746,0.7638,0.7787,0.7678,0.7785,0.8219,1.0144,1.1651,1.2042,1.3964,1.5204,1.511,1.5097,1.5057,1.4963,1.4963,1.487,1.4669,1.4656,1.5057,1.601,1.6876,1.7806,1.8735,2.0112,2.084,2.0977,2.084,2.0605,2.0332,2.0488,2.0391,2.0137,2.0449,2.0566,2.0527,2.0234,2.0293,2.0488,1.9902,1.9863,2.0078,-1.0717,-1.0717,-1.0717,-1.0717,-1.0717,-1.0717,-1.0717,-1.0717,-1.0663,-1.0514,-1.0371,-1.0222,-1.0066,-0.991,-0.9822,-0.9822,-0.9822,-0.9822,-0.9822,-0.9822,-0.9754,-0.9618,-0.932,-0.9089,-0.8836,-0.8791,-0.788,-0.6258,-0.6253,-0.551,-0.3925,-0.2609,-0.1967,-0.1965,-0.0611,0.0,0.0,0.0,0.0,0.0,0.0,0.0,0.0,0.0,0.0,0.0,0.0,0.0,0.0,0.0,0.0,0.0,0.0,0.0,0.0,0.0,0.0,0.0,0.0,0.0,0.0,0.0,0.0,0.0,0.0,0.1172,0.2551,0.3928,0.5409,0.6857,0.809,0.8269,0.8167,0.7862,0.7943,0.7984,0.7834,0.7943,0.847,0.9644,1.1038,1.2341,1.3543,1.4986,1.5712,1.5418,1.5404,1.5271,1.499,1.4977,1.4977,1.4963,1.4963,1.5486,1.6595,1.7032,1.7532,1.8062,2.0142,2.1465,2.1875,2.1445,2.125,2.1211,2.0762,2.0586,2.0586,2.0586,2.0586,2.0586,2.0566,2.0566,2.0566,2.0566,2.0566,2.0566,-1.0717,-1.0717,-1.0717,-1.0717,-1.0717,-1.0717,-1.0717,-1.0717,-1.0663,-1.0514,-1.0371,-1.0222,-1.0066,-0.991,-0.9822,-0.9822,-0.9822,-0.9822,-0.9822,-0.9822,-0.931,-0.8049,-0.7892,-0.7635,-0.7508,-0.6182,-0.5337,-0.5035,-0.4751,-0.4482,-0.4105,-0.2658,-0.2004,-0.1899,-0.0631,0.0,0.0,0.0,0.0,0.0,0.0,0.0,0.0,0.0,0.0,0.0,0.0,0.0,0.0,0.0,0.0,0.0,0.0,0.0,0.0,0.0,0.0,0.0,0.0,0.0,0.0,0.0,0.0,0.0218,0.132,0.2619,0.4,0.5508,0.6951,0.8046,0.8425,0.8336,0.8241,0.8147,0.8079,0.8024,0.7977,0.8011,0.8513,0.982,1.1132,1.2404,1.3671,1.5007,1.5792,1.5712,1.5698,1.5658,1.5578,1.5565,1.5484,1.5271,1.5271,1.5345,1.5486,1.6314,1.7717,1.9446,2.0032,2.0874,2.1875,2.1758,2.1699,2.168,2.1543,2.1484,2.1484,2.1484,2.1484,2.1465,2.1152,2.1035,2.0996,2.0684,2.0566,2.0566,-1.0717,-1.0717,-1.0717,-1.0717,-1.0717,-1.0717,-1.0717,-1.0717,-1.0683,-1.0595,-1.0453,-1.0331,-1.0236,-1.0093,-1.0005,-1.0005,-0.9944,-0.9883,-0.9822,-0.9207,-0.8465,-0.7484,-0.6085,-0.5534,-0.6033,-0.4962,-0.4107,-0.3548,-0.3331,-0.3069,-0.2531,-0.1626,-0.1183,-0.1183,-0.0321,0.0,0.0,0.0,0.0,0.0,0.0,0.0,0.0,0.0,0.0,0.0,0.0,0.0,0.0,0.0,0.0,0.0,0.0,0.0,0.0,0.0,0.0,0.0,0.0,0.0467,0.0937,0.1033,0.1021,0.1239,0.2032,0.3804,0.5541,0.6389,0.7636,0.8642,0.8581,0.8506,0.8425,0.8364,0.8228,0.8133,0.8133,0.8471,0.9312,1.0583,1.194,1.3199,1.4555,1.5343,1.5832,1.5832,1.5832,1.5832,1.5832,1.5832,1.5752,1.5578,1.5565,1.5484,1.5311,1.5923,1.7175,1.8866,1.9832,2.0796,2.1665,2.202,2.2129,2.2129,2.1953,2.1894,2.1894,2.1894,2.1894,2.1836,2.1406,2.1348,2.1426,2.0801,2.0684,2.0801,-1.0717,-1.0717,-1.0717,-1.0717,-1.0717,-1.0717,-1.0717,-1.0717,-1.0717,-1.0717,-1.0588,-1.0493,-1.0493,-1.0365,-1.0283,-1.0283,-1.0141,-0.9985,-0.9829,-0.8343,-0.7362,-0.724,-0.4177,-0.3056,-0.4213,-0.4148,-0.3384,-0.1957,-0.1954,-0.1368,0.0,0.0,0.0,0.0,0.0,0.0,0.0,0.0,0.0,0.0,0.0,0.0,0.0,0.0,0.0,0.0,0.0,0.0,0.0,0.0,0.0,0.0,0.0,0.0,0.0,0.0,0.0118,0.0237,0.0236,0.1415,0.2712,0.2712,0.2829,0.2934,0.2651,0.4815,0.6961,0.6974,0.7955,0.8913,0.8777,0.873,0.8662,0.8526,0.8384,0.8385,0.8473,0.9338,1.0502,1.195,1.3199,1.4364,1.5629,1.5832,1.5832,1.5832,1.5832,1.5832,1.5832,1.5832,1.5832,1.5832,1.5832,1.5832,1.5832,1.5832,1.6327,1.7296,1.9516,2.0853,2.1373,2.2198,2.2559,2.2539,2.2168,2.1992,2.1992,2.1992,2.1992,2.1953,2.1523,2.1602,2.1836,2.0957,2.0879,2.1172,-1.0717,-1.0717,-1.0717,-1.0717,-1.0717,-1.0717,-1.0717,-1.0717,-1.0717,-1.0717,-1.0588,-1.0493,-1.0493,-1.0365,-1.0283,-1.0283,-1.0141,-0.9985,-0.9829,-0.8343,-0.6869,-0.5529,-0.3566,-0.2092,-0.0982,-0.0967,-0.0838,-0.0477,-0.0471,-0.0348,0.0,0.0,0.0,0.0,0.0,0.0,0.0,0.0,0.0,0.0,0.0,0.0,0.0,0.0,0.0,0.0,0.0,0.0,0.0,0.0,0.0,0.0,0.0,0.0,0.0,0.0,0.0958,0.1947,0.1922,0.3138,0.4383,0.4383,0.535,0.627,0.6102,0.6527,0.7338,0.859,0.8957,0.9096,0.9062,0.8866,0.8703,0.8669,0.8533,0.8806,0.9681,1.0029,1.0943,1.3221,1.368,1.4364,1.5629,1.5832,1.5832,1.5832,1.5832,1.5832,1.5832,1.5832,1.5832,1.5832,1.5832,1.5832,1.5832,1.5832,1.6438,1.7579,1.9109,2.0318,2.1391,2.2484,2.3008,2.3008,2.291,2.2871,2.2871,2.2871,2.2871,2.2832,2.2402,2.2285,2.2266,2.1406,2.1152,2.1172,-1.0717,-1.0717,-1.0717,-1.0717,-1.0717,-1.0717,-1.0717,-1.0717,-1.0717,-1.0717,-1.0649,-1.0602,-1.0602,-1.0534,-1.046,-1.0385,-1.0243,-0.9712,-0.8817,-0.7148,-0.5525,-0.3812,-0.2216,-0.0863,0.0,0.0,0.0,0.0,0.0,0.0,0.0,0.0,0.0,0.0,0.0,0.0,0.0,0.0,0.0,0.0,0.0,0.0,0.0,0.0,0.0,0.0,0.0,0.0,0.0,0.0,0.0,0.0,0.0,0.0,0.0,0.0,0.1218,0.2459,0.256,0.4276,0.6141,0.6141,0.7362,0.8291,0.7267,0.7707,0.8518,0.9278,0.932,0.9259,0.9259,0.9076,0.892,0.892,0.8737,0.9082,1.0335,1.0884,1.1924,1.3877,1.4533,1.5045,1.5737,1.5832,1.5832,1.5832,1.5832,1.5832,1.5832,1.5832,1.5832,1.5832,1.5832,1.5832,1.5832,1.5832,1.648,1.7684,1.8948,2.0116,2.1391,2.258,2.3144,2.3144,2.3144,2.3144,2.3144,2.3144,2.3144,2.3105,2.2676,2.2637,2.2715,2.1855,2.1406,2.1172,-1.0717,-1.0717,-1.0717,-1.0717,-1.0717,-1.0717,-1.0717,-1.0717,-1.0717,-1.0717,-1.0717,-1.0717,-1.0717,-1.0717,-1.0656,-1.0507,-1.0385,-0.9735,-0.8198,-0.6106,-0.433,-0.2964,-0.1114,0.0,0.0,0.0,0.0,0.0,0.0,0.0,0.0,0.0,0.0,0.0,0.0,0.0,0.0,0.0,0.0,0.0,0.0,0.0,0.0,0.0,0.0,0.0,0.0,0.0,0.0,0.0,0.0,0.0,0.0,0.0,0.0,0.037,0.1602,0.2954,0.3321,0.5525,0.785,0.785,0.8836,0.9418,0.7851,0.8677,0.9612,0.9483,0.9435,0.9422,0.9422,0.9273,0.915,0.915,0.8927,0.9269,1.1043,1.1897,1.2867,1.4529,1.5383,1.5885,1.5832,1.5832,1.5832,1.5832,1.5832,1.5832,1.5832,1.5832,1.5832,1.5832,1.5832,1.5832,1.5832,1.5832,1.648,1.7684,1.8948,2.0116,2.1391,2.258,2.3144,2.3144,2.3144,2.3144,2.3144,2.3144,2.3144,2.3105,2.2754,2.2832,2.3047,2.2285,2.1719,2.1289,-1.0717,-1.0717,-1.0717,-1.0717,-1.0717,-1.0717,-1.0717,-1.0717,-1.0717,-1.0717,-1.0717,-1.0717,-1.0717,-1.0717,-1.0656,-1.0507,-1.0473,-1.027,-1.0002,-0.6896,-0.495,-0.4761,-0.1758,0.0,0.0,0.0,0.0,0.0,0.0,0.0,0.0,0.0,0.0,0.0,0.0,0.0,0.0,0.0,0.0,0.0,0.0,0.0,0.0,0.0,0.0,0.0,0.0,0.0,0.0,0.0,0.0,0.0,0.0,0.0,0.0247,0.1725,0.3323,0.4916,0.6381,0.8099,0.9451,0.9451,0.9694,0.9694,0.9552,0.9667,0.9788,0.9768,0.9666,0.9578,0.9578,0.9347,0.915,0.915,0.9015,0.9727,1.2221,1.267,1.3599,1.606,1.6295,1.6112,1.5858,1.5832,1.5832,1.5832,1.5832,1.5832,1.5832,1.5832,1.5832,1.5832,1.5832,1.5832,1.5832,1.5832,1.648,1.7684,1.8948,2.0116,2.1391,2.258,2.3144,2.3144,2.3144,2.3144,2.3144,2.3144,2.3144,2.3125,2.3086,2.3086,2.3086,2.2598,2.2168,2.1797,-1.0717,-1.0717,-1.0717,-1.0717,-1.0717,-1.0717,-1.0717,-1.0717,-1.0717,-1.0717,-1.0717,-1.0717,-1.0717,-1.0717,-1.0697,-1.0622,-1.0541,-1.0071,-0.9098,-0.6575,-0.4737,-0.3817,-0.1404,0.0,0.0,0.0,0.0,0.0,0.0,0.0,0.0,0.0,0.0,0.0,0.0,0.0,0.0,0.0,0.0,0.0,0.0,0.0,0.0,0.0,0.0,0.0,0.0,0.0,0.0,0.0,0.0,0.0,0.0,0.0,0.037,0.1971,0.3692,0.5284,0.6991,0.8587,0.9822,0.9822,0.9822,0.9822,0.9822,0.9822,0.9822,0.9822,0.9774,0.9727,0.9727,0.9551,0.9408,0.9408,0.988,1.0896,1.2891,1.3625,1.4734,1.6526,1.6593,1.646,1.6339,1.6166,1.6072,1.6072,1.5925,1.5832,1.5832,1.5832,1.5832,1.5832,1.5832,1.5832,1.5832,1.5832,1.648,1.7684,1.8226,1.9497,2.1391,2.258,2.3144,2.3144,2.3144,2.3144,2.3144,2.3144,2.3144,2.3144,2.3144,2.3144,2.3086,2.2676,2.2402,2.2207]},{"header":{"parameterUnit":"m.s-1","parameterCategory":1,"la1":30.6,"la2":28.766,"lo1":-90.7593,"lo2":-88.6598,"dy":0.0162,"dx":0.0183,"nx":116,"ny":114,"refTime":"2024-05-11T06:00:00:Z","depth":0,"parameterNumber":3,"parameterNumberName":"V-component_of_WINDS"},"data":[0.0,0.0,0.0,0.0,0.0,0.0,0.0,0.0,0.0,0.0,0.0,0.0,0.0,0.0,0.0,0.0,0.0,0.0,0.0,0.0,0.0,0.0,0.0,0.0,0.0,0.0,0.0,0.0,0.0,0.0,0.0,0.0,0.0,0.0,0.0,0.0,0.0,0.0,0.0,0.0,0.0,0.0,0.0,0.0,0.0,0.0,0.0,0.0,0.0,0.0,0.0,0.0,0.0,0.0,0.0,0.0,0.0,0.0,0.0,0.0,0.0,0.0,0.0,0.0,0.0,0.0,0.0,0.0,0.0,0.0,0.0,0.0,0.0,0.0,0.0,0.0,0.0,0.0,0.0,0.0,0.0,0.0,0.0,0.0,0.0,0.0,0.0,0.0,0.0,0.0,0.0,0.0,0.0,0.0,0.0,0.0,0.0,0.0,0.0,0.0,0.0,0.0,0.0,0.0,0.0,0.0,0.0,0.0,0.0,0.0,0.0,0.0,0.0,0.0,0.0,0.0,0.0,0.0,0.0,0.0,0.0,0.0,0.0,0.0,0.0,0.0,0.0,0.0,0.0,0.0,0.0,0.0,0.0,0.0,0.0,0.0,0.0,0.0,0.0,0.0,0.0,0.0,0.0,0.0,0.0,0.0,0.0,0.0,0.0,0.0,0.0,0.0,0.0,0.0,0.0,0.0,0.0,0.0,0.0,0.0,0.0,0.0,0.0,0.0,0.0,0.0,0.0,0.0,0.0,0.0,0.0,0.0,0.0,0.0,0.0,0.0,0.0,0.0,0.0,0.0,0.0,0.0,0.0,0.0,0.0,0.0,0.0,0.0,0.0,0.0,0.0,0.0,0.0,0.0,0.0,0.0,0.0,0.0,0.0,0.0,0.0,0.0,0.0,0.0,0.0,0.0,0.0,0.0,0.0,0.0,0.0,0.0,0.0,0.0,0.0,0.0,0.0,0.0,0.0,0.0,0.0,0.0,0.0,0.0,0.0,0.0,0.0,0.0,0.0,0.0,0.0,0.0,0.0,0.0,0.0,0.0,0.0,0.0,0.0,0.0,0.0,0.0,0.0,0.0,0.0,0.0,0.0,0.0,0.0,0.0,0.0,0.0,0.0,0.0,0.0,0.0,0.0,0.0,0.0,0.0,0.0,0.0,0.0,0.0,0.0,0.0,0.0,0.0,0.0,0.0,0.0,0.0,0.0,0.0,0.0,0.0,0.0,0.0,0.0,0.0,0.0,0.0,0.0,0.0,0.0,0.0,0.0,0.0,0.0,0.0,0.0,0.0,0.0,0.0,0.0,0.0,0.0,0.0,0.0,0.0,0.0,0.0,0.0,0.0,0.0,0.0,0.0,0.0,0.0,0.0,0.0,0.0,0.0,0.0,0.0,0.0,0.0,0.0,0.0,0.0,0.0,0.0,0.0,0.0,0.0,0.0,0.0,0.0,0.0,0.0,0.0,0.0,0.0,0.0,0.0,0.0,0.0,0.0,0.0,0.0,0.0,0.0,0.0,0.0,0.0,0.0,0.0,0.0,0.0,0.0,0.0,0.0,0.0,0.0,0.0,0.0,0.0,0.0,0.0,0.0,0.0,0.0,0.0,0.0,0.0,0.0,0.0,0.0,0.0,0.0,0.0,0.0,0.0,0.0,0.0,0.0,0.0,0.0,0.0,0.0,0.0,0.0,0.0,0.0,0.0,0.0,0.0,0.0,0.0,0.0,0.0,0.0,0.0,0.0,0.0,0.0,0.0,0.0,0.0,0.0,0.0,0.0,0.0,0.0,0.0,0.0,0.0,0.0,0.0,0.0,0.0,0.0,0.0,0.0,0.0,0.0,0.0,0.0,0.0,0.0,0.0,0.0,0.0,0.0,0.0,0.0,0.0,0.0,0.0,0.0,0.0,0.0,0.0,0.0,0.0,0.0,0.0,0.0,0.0,0.0,0.0,0.0,0.0,0.0,0.0,0.0,0.0,0.0,0.0,0.0,0.0,0.0,0.0,0.0,0.0,0.0,0.0,0.0,0.0,0.0,0.0,0.0,0.0,0.0,0.0,0.0,0.0,0.0,0.0,0.0,0.0,0.0,0.0,0.0,0.0,0.0,0.0,0.0,0.0,0.0,0.0,0.0,0.0,0.0,0.0,0.0,0.0,0.0,0.0,0.0,0.0,0.0,0.0,0.0,0.0,0.0,0.0,0.0,0.0,0.0,0.0,0.0,0.0,0.0,0.0,0.0,0.0,0.0,0.0,0.0,0.0,0.0,0.0,0.0,0.0,0.0,0.0,0.0,0.0,0.0,0.0,0.0,0.0,0.0,0.0,0.0,0.0,0.0,0.0,0.0,0.0,0.0,0.0,0.0,0.0,0.0,0.0,0.0,0.0,0.0,0.0,0.0,0.0,0.0,0.0,0.0,0.0,0.0,0.0,0.0,0.0,0.0,0.0,0.0,0.0,0.0,0.0,0.0,0.0,0.0,0.0,0.0,0.0,0.0,0.0,0.0,0.0,0.0,0.0,0.0,0.0,0.0,0.0,0.0,0.0,0.0,0.0,0.0,0.0,0.0,0.0,0.0,0.0,0.0,0.0,0.0,0.0,0.0,0.0,0.0,0.0,0.0,0.0,0.0,0.0,0.0,0.0,0.0,0.0,0.0,0.0,0.0,0.0,0.0,0.0,0.0,0.0,0.0,0.0,0.0,0.0,0.0,0.0,0.0,0.0,0.0,0.0,0.0,0.0,0.0,0.0,0.0,0.0,0.0,0.0,0.0,0.0,0.0,0.0,0.0,0.0,0.0,0.0,0.0,0.0,0.0,0.0,0.0,0.0,0.0,0.0,0.0,0.0,0.0,0.0,0.0,0.0,0.0,0.0,0.0,0.0,0.0,0.0,0.0,0.0,0.0,0.0,0.0,0.0,0.0,0.0,0.0,0.0,0.0,0.0,0.0,0.0,0.0,0.0,0.0,0.0,0.0,0.0,0.0,0.0,0.0,0.0,0.0,0.0,0.0,0.0,0.0,0.0,0.0,0.0,0.0,0.0,0.0,0.0,0.0,0.0,0.0,0.0,0.0,0.0,0.0,0.0,0.0,0.0,0.0,0.0,0.0,0.0,0.0,0.0,0.0,0.0,0.0,0.0,0.0,0.0,0.0,0.0,0.0,0.0,0.0,0.0,0.0,0.0,0.0,0.0,0.0,0.0,0.0,0.0,0.0,0.0,0.0,0.0,0.0,0.0,0.0,0.0,0.0,0.0,0.0,0.0,0.0,0.0,0.0,0.0,0.0,0.0,0.0,0.0,0.0,0.0,0.0,0.0,0.0,0.0,0.0,0.0,0.0,0.0,0.0,0.0,0.0,0.0,0.0,0.0,0.0,0.0,0.0,0.0,0.0,0.0,0.0,0.0,0.0,0.0,0.0,0.0,0.0,0.0,0.0,0.0,0.0,0.0,0.0,0.0,0.0,0.0,0.0,0.0,0.0,0.0,0.0,0.0,0.0,0.0,0.0,0.0,0.0,0.0,0.0,0.0,0.0,0.0,0.0,0.0,0.0,0.0,0.0,0.0,0.0,0.0,0.0,0.0,0.0,0.0,0.0,0.0,0.0,0.0,0.0,0.0,0.0,0.0,0.0,0.0,0.0,0.0,0.0,0.0,0.0,0.0,0.0,0.0,0.0,0.0,0.0,0.0,0.0,0.0,0.0,0.0,0.0,0.0,0.0,0.0,0.0,0.0,0.0,0.0,0.0,0.0,0.0,0.0,0.0,0.0,0.0,0.0,0.0,0.0,0.0,0.0,0.0,0.0,0.0,0.0,0.0,0.0,0.0,0.0,0.0,0.0,0.0,0.0,0.0,0.0,0.0,0.0,0.0,0.0,0.0,0.0,0.0,0.0,0.0,0.0,0.0,0.0,0.0,0.0,0.0,0.0,0.0,0.0,0.0,0.0,0.0,0.0,0.0,0.0,0.0,0.0,0.0,0.0,0.0,0.0,0.0,0.0,0.0,0.0,0.0,0.0,0.0,0.0,0.0,0.0,0.0,0.0,0.0,0.0,0.0,0.0,0.0,0.0,0.0,0.0,0.0,0.0,0.0,0.0,0.0,0.0,0.0,0.0,0.0,0.0,0.0,0.0,0.0,0.0,0.0,0.0,0.0,0.0,0.0,0.0,0.0,0.0,0.0,0.0,0.0,0.0,0.0,0.0,0.0,0.0,0.0,0.0,0.0,0.0,0.0,0.0,0.0,0.0,0.0,0.0,0.0,0.0,0.0,0.0,0.0,0.0,0.0,0.0,0.0,0.0,0.0,0.0,0.0,0.0,0.0,0.0,0.0,0.0,0.0,0.0,0.0,0.0,0.0,0.0,0.0,0.0,0.0,0.0,0.0,0.0,0.0,0.0,0.0,0.0,0.0,0.0,0.0,0.0,0.0,0.0,0.0,0.0,0.0,0.0,0.0,0.0,0.0,0.0,0.0,0.0,0.0,0.0,0.0,0.0,0.0,0.0,0.0,0.0,0.0,0.0,0.0,0.0,0.0,0.0,0.0,0.0,0.0,0.0,0.0,0.0,0.0,0.0,0.0,0.0,0.0,0.0,0.0,0.0,0.0,0.0,0.0,0.0,0.0,0.0,0.0,0.0,0.0,0.0,0.0,0.0,0.0,0.0,0.0,0.0,0.0,0.0,0.0,0.0,0.0,0.0,0.0,0.0,0.0,0.0,0.0,0.0,0.0,0.0,0.0,0.0,0.0,0.0,0.0,0.0,0.0,0.0,0.0,0.0,0.0,0.0,0.0,0.0,0.0,0.0,0.0,0.0,0.0,0.0,0.0,0.0,0.0,0.0,0.0,0.0,0.0,0.0,0.0,0.0,0.0,0.0,0.0,0.0,0.0,0.0,0.0,0.0,0.0,0.0,0.0,0.0,0.0,0.0,0.0,0.0,0.0,0.0,0.0,0.0,0.0,0.0,0.0,0.0,0.0,0.0,0.0,0.0,0.0,0.0,0.0,0.0,0.0,0.0,0.0,0.0,0.0,0.0,0.0,0.0,0.0,0.0,0.0,0.0,0.0,0.0,0.0,0.0,0.0,0.0,0.0,0.0,0.0,0.0,0.0,0.0,0.0,0.0,0.0,0.0,0.0,0.0,0.0,0.0,0.0,0.0,0.0,0.0,0.0,0.0,0.0,0.0,0.0,0.0,0.0,0.0,0.0,0.0,0.0,0.0,0.0,0.0,0.0,0.0,0.0,0.0,0.0,0.0,0.0,0.0,0.0,0.0,0.0,0.0,0.0,0.0,0.0,0.0,0.0,0.0,0.0,0.0,0.0,0.0,0.0,0.0,0.0,0.0,0.0,0.0,0.0,0.0,0.0,0.0,0.0,0.0,0.0,0.0,0.0,0.0,0.0,0.0,0.0,0.0,0.0,0.0,0.0,0.0,0.0,0.0,0.0,0.0,0.0,0.0,0.0,0.0,0.0,0.0,0.0,0.0,0.0,0.0,0.0,0.0,0.0,0.0,0.0,0.0,0.0,0.0,0.0,0.0,0.0,0.0,0.0,0.0,0.0,0.0,0.0,0.0,0.0,0.0,0.0,0.0,0.0,0.0,0.0,0.0,0.0,0.0,0.0,0.0,0.0,0.0,0.0,0.0,0.0,0.0,0.0,0.0,0.0,0.0,0.0,0.0,0.0,0.0,0.0,0.0,0.0,0.0,0.0,0.0,0.0,0.0,0.0,0.0,0.0,0.0,0.0,0.0,0.0,0.0,0.0,0.0,0.0,0.0,0.0,0.0,0.0,0.0,0.0,0.0,0.0,0.0,0.0,0.0,0.0,0.0,0.0,0.0,0.0,0.0,0.0,0.0,0.0,0.0,0.0,0.0,0.0,0.0,0.0,0.0,0.0,0.0,0.0,0.0,0.0,0.0,0.0,0.0,0.0,0.0,0.0,0.0,0.0,0.0,0.0,0.0,0.0,0.0,0.0,0.0,0.0,0.0,0.0,0.0,0.0,0.0,0.0,0.0,0.0,0.0,0.0,0.0,0.0,0.0,0.0,0.0,0.0,0.0,0.0,0.0,0.0,0.0,0.0,0.0,0.0,0.0,0.0,0.0,0.0,-0.4101,0.0,0.0,0.0,0.0,0.0,0.0,0.0,0.0,0.0,0.0,0.0,0.0,0.0,0.0,0.0,0.0,0.0,0.0,0.0,0.0,0.0,0.0,0.0,0.0,1.5435,1.447,1.3648,1.239,1.1415,1.0797,0.0,0.0,0.0,0.0,0.0,1.3855,1.3861,1.3729,1.3547,1.3663,1.3795,1.3947,1.4838,1.4558,1.3321,0.0,0.0,0.0,0.0,0.0,0.0,0.0,0.0,0.0,0.0,0.0,0.0,0.0,0.0,0.0,0.0,0.0,0.0,0.0,0.0,0.0,0.0,0.0,0.0,0.0,0.0,0.0,0.0,0.0,0.0,0.0,0.0,0.0,0.0,0.0,0.0,0.0,0.0,0.0,0.0,0.0,0.0,0.0,0.0,0.0,0.0,0.0,0.0,0.0,0.0,0.0,0.0,0.0,0.0,0.0,0.0,0.0,0.0,0.0,0.0,0.0,0.0,0.0,0.0,0.0,0.0,0.0,0.0,0.0,0.0,0.0,-0.4883,0.0,0.0,0.0,0.0,0.0,0.0,0.0,0.0,0.0,0.0,0.0,0.0,0.0,0.0,0.0,0.0,0.0,0.0,0.0,0.0,0.0,1.6749,1.6087,1.5466,1.4662,1.3563,1.2717,1.1858,1.085,1.0824,0.0,0.0,0.0,1.2669,1.3048,1.3107,1.3141,1.315,1.3402,1.3794,1.4339,1.4906,1.5422,1.5786,1.4462,0.0,0.0,0.0,0.0,0.0,0.0,0.0,0.0,0.0,0.0,0.0,0.0,0.0,0.0,0.0,0.0,0.0,0.0,0.0,0.0,0.0,0.0,0.0,0.0,0.0,0.0,0.0,0.0,0.0,0.0,0.0,0.0,0.0,0.0,0.0,0.0,0.0,0.0,0.0,0.0,0.0,0.0,0.0,0.0,0.0,0.0,0.0,0.0,0.0,0.0,0.0,0.0,0.0,0.0,0.0,0.0,0.0,0.0,0.0,0.0,0.0,0.0,0.0,-0.1323,-0.1946,-0.2293,-0.2911,-0.3651,-0.4487,-0.4339,-0.4556,-0.4956,-0.4725,0.0,0.0,0.0,0.0,0.0,0.0,0.0,0.0,0.0,0.0,0.0,0.0,0.0,0.0,0.0,0.0,0.0,0.0,0.0,1.7195,1.5722,1.5307,1.4972,1.4621,1.3079,1.2203,1.232,1.1337,1.0587,1.0249,1.1621,1.2439,1.2472,1.2947,1.3116,1.2953,1.3147,1.3818,1.4909,1.6066,1.7261,1.8233,1.4186,1.2377,1.2308,0.0,0.0,0.0,0.0,0.0,0.0,0.0,0.0,0.0,0.0,0.0,0.0,0.0,0.0,0.0,0.0,0.0,0.0,0.0,0.0,0.0,0.0,0.0,0.0,0.0,0.0,0.0,0.0,0.0,0.0,0.0,0.0,0.0,0.0,0.0,0.0,0.0,0.0,0.0,0.0,0.0,0.3319,0.3044,0.0,0.0,0.0,0.0,0.0,0.0,0.0,0.0,0.0,0.0,0.0,0.0,0.0,-0.0308,-0.095,-0.039,-0.0396,-0.0926,-0.053,-0.0654,-0.128,-0.1407,-0.2265,-0.3716,-0.3602,0.0,-0.4599,-0.4876,0.0,0.0,0.0,0.0,0.0,0.0,0.0,0.0,0.0,0.0,0.0,0.0,0.0,0.0,0.0,0.0,0.0,0.0,0.0,0.0,0.0,1.5595,1.5535,1.4947,1.485,1.4369,1.3386,1.3121,1.245,1.1216,1.2143,1.2596,1.2404,1.2365,1.2461,1.2667,1.3225,1.405,1.5121,1.6275,1.7209,1.7859,1.6225,1.5206,1.453,1.2789,0.0,0.0,0.0,0.0,0.0,0.0,0.0,0.0,0.0,0.0,0.0,0.0,0.0,0.0,0.0,0.0,0.0,0.0,0.0,0.0,0.0,0.0,0.0,0.0,0.0,0.0,0.0,0.0,0.0,0.0,0.0,0.0,0.0,0.0,0.0,0.0,0.0,0.0,0.0,0.4151,0.3812,0.2676,0.2227,0.1745,0.0,0.0,0.0,0.0,0.0,0.0,0.0,0.0,0.0,0.0,0.0,-0.0132,-0.0474,-0.0135,-0.0136,-0.0483,-0.0138,-0.0414,-0.1242,-0.1224,-0.1874,-0.3099,-0.346,-0.3761,-0.4048,-0.4544,-0.5027,-0.5492,0.0,0.0,0.0,0.0,-0.8123,-0.8083,0.0,0.0,0.0,0.0,0.0,0.0,0.0,0.0,0.0,0.0,0.0,0.0,1.5624,1.6057,1.6274,1.5827,1.6149,1.5789,1.4569,1.4062,1.3292,1.21,1.2509,1.262,1.2304,1.2207,1.2476,1.3064,1.3834,1.4758,1.5871,1.6693,1.7354,1.7854,1.8158,1.7804,1.6818,1.4934,1.3483,1.238,0.0,0.0,0.0,0.0,0.0,0.0,0.0,0.0,0.0,0.0,0.0,0.0,0.0,0.0,0.0,0.0,0.0,0.0,0.0,0.0,0.0,0.0,0.0,0.0,0.0,0.0,0.0,0.0,0.0,0.0,0.0,0.0,0.0,0.0,0.0,0.0,0.0,0.4307,0.4349,0.2826,0.2901,0.2764,0.0,0.0,0.0,0.0,0.0,0.0,0.0,0.0,0.0,0.0,0.0,0.0,0.0,0.0,0.0,0.0,0.0,-0.036,-0.0945,-0.0991,-0.1462,-0.2342,-0.2883,-0.3281,-0.3666,-0.4245,-0.4721,-0.5185,-0.5958,-0.6597,-0.7206,-0.7807,-0.8003,-0.7835,0.0,0.0,0.0,0.0,0.0,0.0,0.0,0.0,0.0,0.0,0.0,1.6337,1.6667,1.6753,1.7126,1.7978,1.6063,1.5156,1.6022,1.3027,1.1565,1.2322,1.2426,1.2314,1.2023,1.2934,1.3797,1.4606,1.5274,1.6268,1.7591,1.7893,1.8557,1.9573,1.8866,1.8614,1.8598,1.721,1.6264,1.5659,1.551,0.0,0.0,0.0,0.0,0.0,0.0,0.0,0.0,0.0,0.0,0.0,0.0,0.0,0.0,0.0,0.0,0.0,0.0,0.0,0.0,0.0,0.0,0.0,0.0,0.0,0.0,0.0,0.0,0.0,0.0,0.0,0.0,0.0,0.0,0.0,0.0,0.0,0.0,0.4435,0.4226,0.0,0.0,0.0,0.0,0.1522,0.0556,0.0,0.0,0.0,0.0,0.0,0.0,0.0,0.0,0.0,0.0,0.0,0.0,0.0,-0.0073,-0.0071,-0.0553,-0.1341,-0.1303,-0.2148,-0.3666,-0.4245,-0.4512,-0.4656,-0.5911,-0.6482,-0.6763,-0.7936,-0.8176,-0.7835,0.0,0.0,0.0,0.0,0.0,1.7794,1.7794,1.7635,1.7392,1.715,1.7214,1.7358,1.7483,1.8124,1.8667,1.9029,1.7792,1.6768,1.6154,1.4212,1.2755,1.2021,1.23,1.2505,1.2641,1.3456,1.4291,1.5078,1.5928,1.7012,1.8278,1.8532,1.9219,2.021,1.9758,1.9511,1.9346,1.7697,1.6782,1.6373,1.5096,1.5065,0.0,0.0,0.0,0.0,0.0,0.0,0.0,0.0,0.0,0.0,0.0,0.0,0.0,0.0,0.0,0.0,0.0,0.0,0.0,0.0,0.0,0.0,0.0,0.0,0.0,0.0,0.0,0.0,0.0,0.0,0.0,0.0,0.0,0.0,0.0,0.0,0.0,0.4659,0.4692,0.0,0.4523,0.3581,0.3001,0.3003,0.2746,0.2568,0.2474,0.1678,0.1212,0.1157,0.0412,0.0,0.0,0.0,0.0,0.0,0.0,0.0,0.0,0.0,-0.0142,-0.0483,-0.1005,-0.18,-0.2761,-0.3595,-0.4174,-0.4553,-0.5291,-0.5883,-0.6442,-0.7116,-0.7491,-0.7615,0.0,0.0,0.0,1.8078,1.7927,1.7749,1.7658,1.7542,1.7392,1.715,1.7575,1.8007,1.8416,1.9174,1.9684,1.9684,1.828,1.7058,1.637,1.4278,1.286,1.2455,1.2497,1.2786,1.3347,1.4064,1.471,1.5356,1.6315,1.7174,1.7966,1.854,1.9161,1.9826,1.9947,1.9861,1.9524,1.861,1.7797,1.7044,1.5968,1.6249,1.7205,0.0,0.0,0.0,0.0,0.0,0.0,0.0,0.0,0.0,0.0,0.0,0.0,0.0,0.0,0.0,0.0,0.0,0.0,0.0,0.0,0.0,0.0,0.0,0.0,0.0,0.0,0.0,0.0,0.0,0.0,0.0,0.0,0.0,0.0,0.5325,0.5682,0.5213,0.5491,0.5663,0.5491,0.4836,0.4366,0.4385,0.4114,0.3933,0.3849,0.3154,0.2637,0.2478,0.1313,0.0611,0.0615,0.0172,0.0168,0.0575,0.0567,0.0708,0.1057,0.073,0.057,0.049,-0.0476,-0.1235,-0.1906,-0.2764,-0.349,-0.4168,-0.4931,-0.5518,-0.6015,-0.6542,-0.7036,-0.7457,0.0,1.8912,1.8603,1.8603,1.8184,1.7704,1.7358,1.7579,1.7566,1.6869,1.7425,1.8286,1.9412,1.9848,2.0027,2.0027,1.7308,1.5886,1.6597,1.2956,1.1677,1.362,1.3023,1.3142,1.4146,1.4758,1.524,1.5581,1.6478,1.6853,1.6744,1.7881,1.8427,1.8531,1.942,1.9587,1.9323,2.0079,1.9469,1.7986,1.8367,1.8588,1.867,0.0,0.0,0.0,0.0,0.0,0.0,0.0,0.0,0.0,0.0,0.0,0.0,0.0,0.0,0.0,0.0,0.0,0.0,0.0,0.0,0.0,0.0,0.0,0.0,0.0,0.0,0.0,0.0,0.0,0.0,0.0,0.0,0.0,0.6227,0.6301,0.6227,0.6098,0.6715,0.7041,0.6763,0.6121,0.5695,0.5624,0.471,0.41,0.4084,0.4084,0.3953,0.3871,0.2672,0.2011,0.188,0.0703,0.0602,0.1675,0.1683,0.2168,0.3088,0.2077,0.1609,0.1535,0.0477,-0.0391,-0.117,-0.1906,-0.2665,-0.3456,-0.4882,-0.5483,-0.5592,-0.6308,-0.6871,-0.7321,1.9067,1.8825,1.8603,1.8603,1.8328,1.7872,1.7247,1.7334,1.7296,1.6809,1.8289,1.9607,2.0172,2.0952,2.1161,2.0418,1.7225,1.5245,1.5256,1.2357,1.1594,1.3604,1.3829,1.4428,1.5588,1.6197,1.669,1.7105,1.7471,1.7623,1.757,1.8193,1.8497,1.8531,1.942,1.9976,2.0336,2.0919,2.117,2.0993,1.9464,1.9235,1.9679,0.0,0.0,0.0,0.0,0.0,0.0,0.0,0.0,0.0,0.0,0.0,0.0,0.0,0.0,0.0,0.0,0.0,0.0,0.0,0.0,0.0,0.0,0.0,0.0,0.0,0.0,0.0,0.0,0.0,0.0,0.0,0.8864,0.8178,0.6529,0.6471,0.6722,0.7122,0.7346,0.7482,0.7502,0.7295,0.7165,0.7209,0.7009,0.6846,0.678,0.5831,0.5265,0.5069,0.3814,0.3144,0.3126,0.2714,0.257,0.2846,0.2765,0.2829,0.3092,0.2044,0.1567,0.1535,0.0477,-0.0396,-0.1143,-0.1922,-0.2639,-0.34,-0.4386,-0.5054,-0.5538,-0.571,-0.6438,-0.7294,1.8681,1.8715,1.8663,1.8289,1.8016,1.7542,1.6532,1.6646,1.68,1.6678,1.8254,1.9554,2.0114,2.0666,2.049,1.9255,1.6659,1.4835,1.428,1.2975,1.2798,1.4111,1.473,1.5603,1.6716,1.7102,1.7449,1.7819,1.7896,1.7872,1.7795,1.84,1.8678,1.879,1.9639,2.0154,2.052,2.1498,2.2041,2.2155,2.1402,2.1173,2.1137,2.0053,2.009,2.0683,2.0071,1.9908,1.9701,1.822,0.0,0.0,0.0,0.0,0.0,0.0,0.0,0.0,0.0,0.0,0.0,0.0,0.0,0.0,0.0,0.0,0.0,0.0,0.0,0.0,0.0,0.0,0.0,0.0,1.0487,1.0001,0.8678,0.8146,0.7841,0.7732,0.7746,0.7814,0.7896,0.7909,0.7909,0.7909,0.7991,0.7997,0.7909,0.7136,0.6625,0.6444,0.516,0.4451,0.4372,0.3762,0.3596,0.3934,0.3846,0.3968,0.4361,0.2881,0.2233,0.0,0.0616,-0.0263,-0.0695,-0.1424,-0.1975,0.0,0.0,0.0,0.0,0.0,-0.5954,-0.6566,1.8133,1.8422,1.853,1.7844,1.7503,1.6887,1.5731,1.5922,1.6273,1.6393,1.7681,1.8796,1.9401,1.9452,1.8812,1.7347,1.5722,1.4445,1.3624,1.4195,1.471,1.5051,1.5799,1.6641,1.7664,1.7681,1.786,1.8181,1.8111,1.7952,1.7761,1.8563,1.9064,1.9264,2.0111,2.0502,2.0658,2.2038,2.2539,2.2436,2.3601,2.3566,2.2753,2.2017,2.2194,2.2822,2.2729,2.2344,2.1677,2.0452,0.0,0.0,0.0,0.0,0.0,0.0,0.0,0.0,0.0,0.0,0.0,0.0,0.0,0.0,0.0,0.0,0.0,0.0,0.0,0.0,0.0,0.0,0.0,0.0,1.1682,1.1813,1.1738,1.0677,0.9554,0.8394,0.8245,0.8237,0.8237,0.8137,0.8038,0.8038,0.8038,0.8038,0.8038,0.0,0.0,0.0,0.0,0.5855,0.5646,0.438,0.4197,0.5111,0.4991,0.536,0.6247,0.4175,0.3205,0.2969,0.1037,0.0131,-0.0062,-0.0803,-0.1127,-0.1453,-0.3456,-0.4236,-0.4346,-0.4992,-0.532,0.0,1.7422,1.7247,1.7475,1.7928,1.7261,1.6622,1.6395,1.6266,1.5992,1.538,1.7399,1.8699,1.816,1.829,1.7923,1.6843,1.4693,1.3401,1.3528,1.4326,1.5398,1.6777,1.7159,1.7788,1.8687,1.8926,1.9072,1.92,1.8821,1.8659,1.8678,1.8983,1.9484,2.0196,2.1044,2.2207,2.3475,2.3604,2.3976,2.4476,2.4429,2.4024,2.3419,2.2748,2.2997,2.3568,2.2915,2.3326,2.3935,2.2393,2.181,2.1495,2.0235,1.9602,0.0,0.0,0.0,0.0,0.0,0.0,0.0,0.0,0.0,0.0,0.0,0.0,0.0,0.0,0.0,0.0,0.0,0.0,0.0,1.2817,1.3626,1.4053,1.3171,1.3025,1.2587,1.1298,1.0271,0.9608,0.9608,0.8627,0.8038,0.8038,0.8038,0.8038,0.8038,0.7923,0.7828,0.7773,0.7349,0.7106,0.7054,0.653,0.6251,0.6363,0.0,0.0,0.6254,0.5005,0.3921,0.3045,0.1829,0.0819,-0.0066,-0.0818,-0.1423,-0.2007,-0.2452,-0.2619,-0.273,-0.345,-0.4106,-0.4751,1.622,1.6818,1.7457,1.6972,1.6528,1.6023,1.5474,1.5382,1.5325,1.5196,1.6435,1.7351,1.73,1.7073,1.6515,1.5632,1.398,1.3473,1.4632,1.5432,1.6529,1.7931,1.8515,1.9039,1.9469,1.961,1.9704,1.9812,1.9555,1.9483,1.962,2.0227,2.0703,2.1135,2.1993,2.2887,2.3699,2.3948,2.4221,2.4524,2.4676,2.4468,2.4022,2.3419,2.3498,2.3853,2.3454,2.3474,2.3621,2.2826,2.229,2.1789,2.0807,2.0408,2.0031,0.0,0.0,0.0,0.0,0.0,0.0,0.0,0.0,0.0,0.0,0.0,0.0,0.0,0.0,1.5284,1.4849,0.0,1.5095,1.5216,1.5218,1.5087,1.4697,1.4766,1.4076,1.2145,1.1365,1.0974,1.0974,0.9805,0.9023,0.9023,0.8336,0.8038,0.8038,0.797,0.7862,0.7712,0.7563,0.7414,0.7258,0.7041,0.6851,0.6702,0.6546,0.6396,0.6254,0.5179,0.4382,0.3695,0.2259,0.123,0.0591,-0.0247,-0.0761,-0.1118,-0.1118,-0.1564,-0.2286,-0.3063,-0.3561,-0.3996,1.5206,1.6501,1.7435,1.5968,1.5729,1.5421,1.461,1.4514,1.4708,1.5179,1.5488,1.5894,1.6395,1.5882,1.5159,1.4316,1.3652,1.4098,1.5977,1.6778,1.7794,1.9158,2.0011,2.0489,2.0559,2.0502,2.0511,2.0628,2.0628,2.0722,2.0857,2.1675,2.2142,2.2337,2.3038,2.3466,2.3657,2.4229,2.4353,2.4259,2.4804,2.4836,2.4493,2.3963,2.3827,2.3962,2.3826,2.327,2.2564,2.283,2.2148,2.1183,2.0743,2.0778,2.0677,1.9405,1.9456,0.0,0.0,0.0,0.0,0.0,0.0,0.0,0.0,1.7364,1.7804,1.7296,1.7938,1.8475,1.8137,1.7614,1.7171,1.7234,1.6415,1.5831,1.5792,1.5778,1.4968,1.2844,1.2362,1.2169,1.2169,1.1007,1.0253,0.9993,0.9023,0.8237,0.8038,0.8038,0.7916,0.7651,0.7611,0.7468,0.719,0.7041,0.6878,0.6702,0.6573,0.6424,0.6254,0.5336,0.4751,0.4411,0.2385,0.1344,0.1018,0.0303,0.0,0.0,0.0,-0.0727,-0.184,-0.2674,-0.2901,-0.3063,1.5235,1.5741,1.6328,1.5945,1.5384,1.5131,1.5478,1.5043,1.4643,1.4598,1.5221,1.5454,1.4818,1.4807,1.4431,1.3445,1.3901,1.4958,1.6694,1.7696,1.9088,2.1013,2.1917,2.2425,2.25,2.2461,2.2497,2.2598,2.2598,2.262,2.2699,2.2859,2.3343,2.4048,2.4179,2.4687,2.5429,2.5375,2.5323,2.5296,2.5081,2.4917,2.4731,2.4173,2.4107,2.419,2.363,2.282,2.2122,2.3225,2.2476,2.1183,2.166,2.1848,2.1547,1.9995,2.0162,2.0534,1.92,1.9155,1.9369,1.875,1.9024,1.9239,0.0,1.9332,2.0025,1.9778,2.014,2.0336,1.9723,1.9635,1.9059,1.743,1.7338,1.7095,1.5913,1.5605,1.5352,1.506,1.3918,1.3251,1.3251,1.211,1.0962,1.0083,0.9903,0.9213,0.8038,0.8038,0.7963,0.7794,0.7665,0.7516,0.7346,0.7197,0.698,0.6702,0.6681,0.6532,0.6254,0.6023,0.5347,0.4406,0.227,0.085,0.0124,0.0062,0.0,0.0,0.0,-0.0112,-0.0336,-0.1062,-0.1341,-0.1564,1.5363,1.5414,1.5606,1.5409,1.5153,1.5005,1.5083,1.4932,1.4785,1.4616,1.4993,1.5119,1.4783,1.4784,1.4657,1.4237,1.4514,1.5483,1.7183,1.8169,1.9471,2.1243,2.2176,2.2614,2.2571,2.2527,2.2523,2.2562,2.2668,2.2759,2.2762,2.3446,2.3936,2.4313,2.4871,2.5309,2.5742,2.6147,2.5991,2.5517,2.587,2.5532,2.47,2.3806,2.3028,2.2399,2.2576,2.196,0.0,2.1005,2.0955,2.0831,1.9903,2.0226,2.0677,1.9316,1.9687,2.04,1.9564,1.9266,1.9272,1.946,1.9729,2.0103,2.0348,2.1328,2.2046,2.1611,2.2342,2.2855,2.1989,2.1481,2.0869,1.9809,1.8485,1.7498,1.6951,1.5892,1.5017,1.4683,1.3947,1.3762,1.4254,1.331,1.211,1.0972,1.0316,0.941,0.8038,0.8038,0.7929,0.7692,0.7631,0.7482,0.7238,0.717,0.6993,0.6702,0.6702,0.6546,0.6261,0.6193,0.5576,0.4406,0.3359,0.2095,0.0759,0.0745,0.0481,0.0,0.0,0.0,-0.0112,-0.0838,-0.1118,-0.1341,1.5486,1.5284,1.5259,1.5124,1.5062,1.503,1.4785,1.5072,1.5199,1.4813,1.506,1.5209,1.4996,1.4926,1.4922,1.4948,1.5207,1.6004,1.7543,1.8659,1.9994,2.1596,2.2456,2.294,2.3067,2.3004,2.2981,2.2981,2.3155,2.3265,2.3275,2.4128,2.4545,2.4627,2.5554,2.6003,2.6054,2.6631,2.6526,2.5901,2.6236,2.5582,2.4331,2.3184,2.2025,2.1029,2.1584,2.0777,1.9474,1.9535,1.9842,2.0004,1.8847,1.9184,1.9793,1.8902,1.9368,2.0154,2.0273,1.9833,1.9622,2.0627,2.0976,2.1279,2.2197,2.3171,2.3769,2.3306,2.3958,2.4253,2.3328,2.2635,2.1897,2.1062,1.9552,1.8362,1.8087,1.6443,1.5154,1.4642,1.3912,1.3774,1.4416,1.3989,1.3135,1.1962,1.1287,1.0228,0.8878,0.8878,0.8749,0.8467,0.8173,0.7858,0.7577,0.7224,0.6993,0.6702,0.6702,0.6546,0.6331,0.6173,0.5538,0.4435,0.4099,0.3099,0.1668,0.1619,0.127,0.0645,0.0397,0.028,0.0224,-0.0504,-0.0783,-0.1006,1.5452,1.5296,1.5293,1.529,1.529,1.5186,1.4925,1.5711,1.5991,1.5033,1.5703,1.5978,1.5168,1.5047,1.5031,1.5091,1.5888,1.6723,1.7649,1.9251,2.0884,2.2487,2.3197,2.3953,2.4705,2.4728,2.4728,2.4728,2.4879,2.4915,2.4927,2.5232,2.5367,2.5413,2.6424,2.6852,2.6856,2.6871,2.6891,2.6766,2.5828,2.4705,2.3519,2.2393,2.1532,2.0929,2.0952,1.9194,1.7311,2.0031,1.9846,1.8655,1.965,1.9687,1.9436,1.9403,1.9531,2.0061,2.1589,2.1357,2.1091,2.284,2.3386,2.3659,2.4269,2.4815,2.5102,2.5018,2.4459,2.3746,2.2925,2.2617,2.199,2.0327,2.0386,2.0202,1.8968,1.7305,1.607,1.5741,1.4195,1.324,1.3267,1.3788,1.3745,1.2995,1.2939,1.2392,1.1109,1.1017,1.0918,1.0701,0.9615,0.8983,0.8807,0.7665,0.6993,0.6702,0.6702,0.6546,0.6325,0.5949,0.5228,0.4186,0.4069,0.3488,0.2624,0.2489,0.2474,0.2339,0.1416,0.1062,0.095,0.0224,-0.0056,-0.0168,1.5468,1.5311,1.5303,1.529,1.5779,1.614,1.6033,1.5814,1.5504,1.5085,1.5404,0.0,0.0,0.0,0.0,0.0,1.6327,1.7132,1.8526,1.9574,2.055,2.151,2.2714,2.3347,2.329,2.3988,2.4284,2.4062,2.4452,2.4737,2.4864,2.5038,2.5226,2.5437,2.6359,2.6801,2.6883,2.7485,2.7734,2.7576,2.6065,2.5135,2.4418,2.2198,2.0936,2.0308,0.0,1.9764,1.8887,1.9184,1.9124,1.8841,1.8342,1.8718,1.9335,1.9524,1.9959,2.0667,2.2066,2.2487,2.2862,2.4389,2.4859,2.4862,2.4577,2.5237,2.5521,2.4186,2.3695,2.3059,2.1593,2.1457,2.124,2.0486,2.0311,2.0143,2.0062,1.8782,1.7492,1.6573,1.6047,1.5357,1.4365,1.3952,1.3348,1.2482,1.258,1.2294,1.1171,1.1089,1.099,1.0781,1.0413,1.013,1.0009,0.9662,0.8923,0.801,0.7051,0.6498,0.639,0.5983,0.563,0.5287,0.5055,0.4394,0.3554,0.3516,0.3109,0.2474,0.2164,0.1652,0.1062,0.0838,0.0448,-0.0112,0.0,1.5492,1.5385,1.5702,1.6211,0.0,0.0,0.0,0.0,0.0,0.0,0.0,0.0,0.0,0.0,0.0,0.0,1.794,1.9032,1.9688,2.0327,2.0966,2.1824,2.2294,2.226,2.2978,2.3234,2.3022,2.3344,2.3614,2.3813,2.427,2.4602,2.4876,2.6149,2.6713,2.6811,2.7429,2.7323,2.664,2.5483,2.4363,2.3176,2.1342,2.0453,0.0,1.9815,1.9975,2.0143,1.9343,1.9435,1.9623,1.8408,1.8594,1.93,1.9325,2.0152,2.1288,2.2561,2.335,2.4204,2.5772,2.6077,2.5848,2.5385,2.5474,2.5242,2.3685,2.2804,2.1886,2.0405,2.0104,1.9965,1.9777,1.964,1.9802,2.0588,1.9609,1.8559,1.8037,1.7547,1.6905,1.5953,1.4933,1.3899,1.293,1.3199,1.304,1.2204,1.2282,1.2227,1.1981,1.1532,1.1282,1.1209,1.0778,1.0123,0.9081,0.7797,0.7073,0.6928,0.6131,0.58,0.5786,0.5488,0.5087,0.4478,0.4411,0.3971,0.3306,0.3027,0.2298,0.1453,0.1174,0.0616,-0.0056,0.0,0.0,1.5676,0.0,0.0,0.0,0.0,0.0,0.0,0.0,0.0,0.0,0.0,0.0,0.0,0.0,0.0,0.0,1.9142,1.9632,2.0207,2.0916,2.0648,2.0869,2.1694,2.1767,2.1804,2.175,2.1708,2.1803,2.2025,2.2965,2.355,2.3793,2.5704,2.6521,2.6529,2.6629,2.5769,2.4331,2.4135,2.2543,2.0227,1.9982,2.006,2.018,1.9254,1.98,2.0866,2.0448,2.0634,2.0863,1.9812,1.9496,1.9431,1.8943,2.0219,2.2073,2.3117,2.4055,2.5107,2.6934,2.6957,2.6523,2.6385,2.5336,2.4152,2.3426,2.1773,2.0165,1.9278,1.8643,1.8276,1.83,1.8534,1.918,2.0488,1.9957,1.9531,1.9861,1.876,1.7904,1.787,1.6605,1.536,1.4446,0.0,1.4683,1.4135,1.4376,1.4389,1.4095,1.3027,1.2419,1.2419,1.1295,1.0478,0.9948,0.8871,0.8121,0.7846,0.6522,0.5871,0.5844,0.5555,0.5425,0.5418,0.5203,0.506,0.485,0.3988,0.3108,0.2181,0.1453,0.0672,0.0056,0.0,0.0,0.0,0.0,0.0,0.0,0.0,0.0,0.0,0.0,0.0,0.0,0.0,0.0,0.0,0.0,0.0,0.0,1.9731,1.981,1.9873,1.9961,2.0314,2.0493,2.0517,2.1387,2.1679,2.1441,2.166,2.1844,2.2025,2.2271,2.2472,2.2716,2.3888,2.4381,2.4404,2.455,2.4807,2.4861,2.3008,2.226,2.2094,2.0451,2.01,2.0378,1.9721,2.0311,2.1285,2.0883,2.1205,2.1664,2.0862,2.0957,2.1337,2.0794,2.1983,2.3561,2.4024,2.4972,2.6009,2.6453,2.6163,2.5437,2.4013,2.3148,2.2173,2.0562,1.919,1.7945,1.6691,1.7036,1.7701,1.8041,1.9246,2.0527,2.1836,2.2116,2.1947,2.1428,2.1294,2.0838,1.9674,1.9481,1.8837,1.7563,1.5476,1.4335,1.4402,1.4482,1.4389,1.4095,1.3828,1.3646,1.3646,1.2419,1.1736,1.1348,1.004,0.9183,0.8742,0.7454,0.6784,0.6587,0.5776,0.5425,0.5425,0.5318,0.5216,0.4998,0.4674,0.4047,0.3117,0.225,0.1453,0.0727,0.0,0.0,0.0,0.0,0.0,0.0,0.0,0.0,0.0,0.0,0.0,0.0,0.0,0.0,0.0,0.0,0.0,0.0,0.0,1.9688,1.9548,1.9596,1.9632,1.965,1.9633,2.0607,2.0825,2.03,2.0825,2.0996,2.0812,2.1198,2.1451,2.1668,2.2703,2.3144,2.3156,2.338,2.3328,0.0,0.0,2.1474,2.1119,2.0154,2.0176,2.0662,2.0065,2.0574,2.16,2.2248,2.2455,2.2411,2.2866,2.2995,2.2971,2.297,2.3842,2.4718,2.4489,2.5404,2.6338,2.5977,2.5449,2.4713,2.3371,2.2271,2.1109,1.9765,1.8368,1.7167,1.6451,1.6374,1.6624,1.7305,1.8434,1.9687,2.1152,2.207,2.2559,2.2441,2.2637,2.2418,2.1551,2.1034,2.0515,1.9852,1.7213,1.5791,1.6048,1.5241,1.477,1.4824,1.4334,1.4082,1.4082,1.3464,1.2912,1.2444,1.1226,1.0293,0.9649,0.8418,0.753,0.6856,0.0,0.6079,0.5425,0.5815,0.5654,0.5114,0.4972,0.4345,0.3503,0.2936,0.2007,0.1062,0.0,0.0,0.0,0.0,0.0,0.0,0.0,0.0,0.0,0.0,1.7592,1.7862,1.8549,1.8636,0.0,0.0,0.0,0.0,0.0,0.0,1.928,1.9471,1.8912,1.8715,1.8949,1.9668,1.9722,1.9002,1.974,1.9842,1.9353,2.0062,2.0478,2.0722,2.1779,2.2234,2.2227,2.2447,2.1653,2.0348,2.1246,2.0663,1.9366,0.0,2.0539,2.1076,2.0552,2.0837,2.179,2.3803,2.3871,2.3386,2.5077,2.5104,2.4575,2.5169,2.5598,2.564,2.4912,2.5626,2.6349,2.5438,2.4696,2.4003,2.3307,2.1741,2.0279,1.9677,1.8262,1.7109,1.7079,1.6233,1.5808,1.6698,1.7307,1.8321,2.0,2.125,2.2266,2.3047,2.3144,2.3144,2.3144,2.1889,2.1291,2.1551,1.9356,1.8124,1.8011,1.6374,1.5632,1.5876,1.4977,1.4489,1.4489,1.4378,1.3994,1.3437,1.2355,1.1354,1.0492,0.9352,0.8206,0.7229,0.0,0.0,0.5624,0.6531,0.6173,0.5142,0.5225,0.465,0.3757,0.3503,0.2563,0.1397,0.0,0.0,0.0,0.0,0.0,0.0,0.0,0.0,0.0,0.0,1.9219,1.9197,0.0,0.0,0.0,0.0,0.0,0.0,0.0,0.0,0.0,1.8789,1.8643,1.8641,1.8678,1.9022,1.9163,1.9002,1.9312,1.9479,1.9541,1.9704,1.9836,1.9962,2.0172,2.0299,2.0384,2.0526,2.0443,2.03,2.1243,2.1333,2.0983,2.1604,0.0,0.0,2.1734,2.1475,2.1596,2.3778,2.4765,2.5177,2.564,2.6049,2.6367,2.6166,2.6503,2.6766,2.6073,2.6465,2.6648,2.4728,2.3488,2.2459,2.1369,1.9546,1.8028,1.7786,1.6818,1.5944,1.5898,1.6291,1.6915,1.7838,1.8664,1.9837,2.1801,2.2266,2.2578,2.3086,2.3144,2.3144,2.3144,2.2892,2.2785,2.2775,2.1189,1.9626,1.8443,1.8046,1.7584,1.7025,1.6846,1.6764,1.6764,1.5686,1.4874,1.4491,1.3242,1.2136,1.1214,1.0263,0.9502,0.8874,0.8236,0.0,0.6523,0.7437,0.6841,0.5422,0.6485,0.5967,0.4663,0.4313,0.3666,0.2841,0.0,0.0,0.0,0.0,0.0,0.0,0.0,1.9589,1.9856,2.0223,2.039,2.0436,2.0334,2.0572,2.0736,0.0,0.0,0.0,0.0,0.0,0.0,1.9714,1.8889,1.8643,1.9149,1.9883,2.0047,1.9596,0.0,2.096,2.0215,2.0206,2.0075,1.9809,1.985,1.984,1.9858,2.0128,2.0459,2.0826,2.1255,2.1652,2.196,0.0,0.0,0.0,2.2306,2.2143,2.2029,2.3636,2.4444,2.4913,2.6096,2.6523,2.6641,2.6703,2.7557,2.8278,2.7453,2.7677,2.768,2.5625,2.393,2.2374,2.0936,1.9147,1.775,1.7391,1.6648,1.6111,1.6058,1.6358,1.6769,1.7479,1.798,1.8906,2.0727,2.1313,2.1816,2.2715,2.3008,2.3144,2.3144,2.3144,2.3144,2.3144,2.2198,2.1248,2.025,1.9252,1.8275,1.735,1.7334,1.7334,1.7334,1.6413,1.5889,1.5541,1.4683,1.3506,1.2173,1.1751,1.0756,0.9268,0.932,0.0,0.7437,0.8291,0.7902,0.6824,0.7157,0.6575,0.5532,0.5113,0.4491,0.3776,0.0,0.0,0.0,0.0,0.0,0.0,1.9492,1.971,2.0039,2.0877,2.1384,2.1734,2.1814,2.1808,2.175,0.0,0.0,0.0,0.0,0.0,0.0,0.0,0.0,0.0,1.9843,0.0,0.0,2.0463,2.2177,0.0,0.0,0.0,0.0,0.0,2.0049,1.9954,1.9926,2.0429,2.089,0.0,0.0,2.2161,2.2641,0.0,0.0,0.0,0.0,2.2588,2.2439,2.332,2.3556,2.3784,2.5546,2.6149,2.6349,2.709,2.8375,2.947,2.8987,2.9233,2.9212,2.729,2.5069,2.3014,2.14,1.9496,1.7893,1.7418,1.6879,1.6522,1.6522,1.643,1.6479,1.6921,1.7169,1.7817,1.9411,2.034,2.1253,2.2227,2.2832,2.3144,2.3144,2.3144,2.3105,2.3008,2.2689,2.232,2.1758,2.0259,1.8957,1.806,1.7894,1.786,1.786,1.7164,1.6699,1.6413,1.5823,1.4703,1.3168,1.3168,1.2014,1.0148,1.0793,0.0,0.0,0.9512,0.9128,0.7981,0.7896,0.723,0.641,0.6016,0.5475,0.4812,0.0,0.0,0.0,0.0,0.0,0.0,1.9217,1.9692,2.0338,2.1378,2.2412,2.3137,2.3437,2.2464,2.1679,0.0,0.0,0.0,0.0,0.0,0.0,0.0,0.0,0.0,0.0,0.0,0.0,2.1277,2.1861,0.0,0.0,0.0,0.0,0.0,0.0,2.0248,2.0223,2.1113,0.0,0.0,0.0,0.0,0.0,0.0,0.0,0.0,0.0,2.2527,2.2372,2.269,2.2541,2.2269,2.2671,2.4075,2.5821,2.7158,2.8517,2.9788,3.071,3.1386,3.1397,2.9338,2.6599,2.4061,2.2793,1.9854,1.7365,1.7312,1.6879,1.6522,1.6522,1.6461,1.6671,1.7319,1.7931,1.8574,1.9484,2.0781,2.1683,2.1918,2.2656,2.3144,2.3144,2.3144,2.2988,2.2598,2.2656,2.2247,2.1289,2.0742,2.0411,2.0313,1.987,1.9658,1.9658,1.7972,1.7117,1.7081,1.5816,1.4808,1.395,1.395,1.3493,1.2642,1.2765,0.0,0.0,1.119,1.0186,0.8109,0.9112,0.8539,0.718,0.7191,0.6858,0.647,0.0,0.0,0.0,0.0,0.0,0.0,1.9553,2.0035,2.0773,2.2106,2.2988,2.3477,2.3432,2.3313,2.3198,2.3067,2.3048,0.0,0.0,0.0,0.0,0.0,0.0,0.0,0.0,0.0,2.241,2.2533,2.3295,0.0,0.0,0.0,0.0,0.0,0.0,2.1549,2.1482,2.1845,0.0,0.0,0.0,0.0,0.0,0.0,0.0,0.0,0.0,0.0,2.2271,2.2096,2.176,2.1372,2.1183,2.1818,2.302,2.5051,2.7499,2.9818,3.0916,3.1939,3.2277,3.0335,2.74,2.4343,2.216,1.9673,1.7598,1.6964,1.6625,1.6522,1.6522,1.6522,1.6716,1.7312,1.729,1.7705,1.9148,1.9748,2.0732,2.2505,2.3229,2.4048,2.5062,2.4787,2.432,2.3578,2.3565,2.3297,2.2637,2.2445,2.2211,2.1861,2.167,2.1437,2.109,2.0136,1.932,1.8784,1.8056,1.6749,1.4932,1.4932,1.4259,1.3009,1.3009,0.0,0.0,1.2381,1.1507,1.0071,1.0726,0.9697,0.7869,0.8105,0.7812,0.7235,0.0,0.0,0.0,0.0,0.0,1.8562,1.9947,2.0532,2.1335,2.2797,2.3432,2.3631,2.3522,2.3935,2.419,2.419,2.4132,0.0,0.0,0.0,0.0,0.0,0.0,0.0,0.0,0.0,2.3603,2.3746,2.4499,2.4666,0.0,0.0,2.3777,2.3203,0.0,0.0,0.0,0.0,0.0,0.0,0.0,0.0,0.0,0.0,0.0,0.0,0.0,0.0,0.0,0.0,0.0,2.1086,2.0467,2.0426,2.1023,2.3198,2.6129,2.8949,3.0104,3.1471,3.2198,3.0601,2.7748,2.4647,2.2125,1.9903,1.8052,1.7146,1.6964,1.6921,1.6752,1.6752,1.682,1.7093,1.7032,1.7339,1.8565,1.916,2.0142,2.2151,2.2922,2.3829,2.5373,2.5328,2.4926,2.4234,2.4356,2.4277,2.3986,2.4042,2.3718,2.2715,2.2425,2.2043,2.1709,2.1263,2.0687,2.0108,1.9833,1.8591,1.6578,1.6578,1.5619,1.4016,1.4016,0.0,0.0,1.3373,1.2658,1.1654,1.1809,1.0791,0.911,0.9109,0.8803,0.829,0.0,0.0,0.0,0.0,0.0,1.9233,2.0316,2.1125,2.2095,2.3502,2.371,2.3816,2.4151,2.419,2.419,2.419,2.3915,0.0,0.0,0.0,0.0,0.0,0.0,0.0,2.3988,2.4516,2.4774,2.4789,2.4973,2.5146,2.5181,2.4514,2.4101,2.3918,0.0,0.0,0.0,0.0,0.0,0.0,0.0,0.0,0.0,0.0,0.0,0.0,0.0,0.0,0.0,0.0,0.0,0.0,0.0,2.033,2.0628,2.2244,2.4567,2.6901,2.8278,3.0018,3.1183,2.9924,2.759,2.5116,2.3285,2.0819,1.8741,1.821,1.8052,1.7894,1.7394,1.7312,1.7105,1.6607,1.7476,1.8091,1.7753,1.9446,2.0549,2.0267,2.1016,2.1958,2.3047,2.3749,2.4212,2.4189,2.4722,0.0,2.5016,2.5345,2.4687,2.2786,2.1755,2.1174,2.1174,2.0837,2.059,2.059,2.059,2.0075,1.9052,1.9052,1.8108,0.0,0.0,0.0,0.0,1.4213,1.3508,1.2389,1.2051,1.1617,1.1166,1.0446,1.0012,0.9909,0.0,0.0,0.0,0.0,0.0,0.0,2.0875,2.1709,2.2539,2.328,2.3774,2.4056,2.419,2.419,2.419,2.419,2.4112,0.0,0.0,0.0,0.0,0.0,0.0,0.0,2.4404,2.4671,2.4854,2.5026,2.5107,2.5164,2.5112,2.4957,2.4665,2.4251,2.3701,2.33,0.0,0.0,0.0,0.0,0.0,0.0,2.2996,0.0,0.0,0.0,0.0,0.0,0.0,0.0,0.0,0.0,0.0,0.0,0.0,2.0998,2.2717,2.4837,2.6183,2.735,2.7949,2.7081,2.5226,2.3241,2.1844,2.0182,1.8741,1.821,1.8092,1.8052,1.7854,1.7558,1.7492,1.8085,1.8185,1.8409,1.9054,2.0035,2.1223,2.2611,2.4691,2.5997,2.5949,2.619,2.6142,2.5778,2.5889,2.5852,2.5456,2.5162,2.4797,2.4177,2.3474,2.2941,2.249,2.2383,2.181,2.088,2.088,2.0044,1.8561,1.8561,1.8089,0.0,0.0,0.0,0.0,1.6553,1.5628,1.4272,1.4208,1.3368,1.2203,1.1534,1.1199,1.1082,0.0,0.0,0.0,0.0,0.0,0.0,2.1649,2.2473,2.3133,2.3516,2.3955,2.419,2.419,2.419,2.419,2.419,2.4284,0.0,0.0,0.0,0.0,0.0,0.0,0.0,2.4777,2.4956,2.5046,2.5111,2.5038,2.4953,2.488,2.4764,2.4487,2.4094,2.3805,2.3587,0.0,0.0,0.0,0.0,0.0,0.0,2.2807,0.0,0.0,0.0,0.0,0.0,0.0,0.0,0.0,0.0,0.0,0.0,0.0,0.0,2.1283,2.2627,2.3803,2.4777,2.5315,2.4657,2.34,2.2062,2.1028,1.9982,1.9155,1.8948,1.8826,1.8674,1.8646,1.8377,1.8273,1.8634,1.8915,1.9291,1.9764,2.0708,2.2065,2.391,2.6063,2.731,2.7326,2.7691,2.7717,2.7144,2.7091,2.6765,2.6167,2.5621,2.5335,2.5335,2.4264,2.3624,2.3543,2.3245,2.2705,2.1873,2.1873,2.1166,1.9921,1.9672,1.9102,0.0,0.0,0.0,0.0,1.7328,1.6497,1.5243,1.5214,1.4524,1.3429,1.3042,1.2706,1.2425,0.0,0.0,0.0,0.0,0.0,0.0,0.0,2.3262,2.3837,2.4132,2.419,2.419,2.419,2.4209,2.4228,2.4228,2.441,0.0,0.0,0.0,0.0,0.0,0.0,2.5105,2.5109,2.5281,2.5311,2.5152,2.4955,2.4783,2.4664,2.427,2.3988,2.3671,2.3254,2.3106,0.0,0.0,0.0,0.0,2.2426,2.2293,0.0,0.0,0.0,0.0,0.0,0.0,0.0,0.0,0.0,0.0,0.0,0.0,0.0,0.0,0.0,0.0,0.0,2.2454,2.3191,2.2622,2.1994,2.1395,2.0767,2.0175,0.0,2.0193,1.998,1.9732,1.9696,1.9666,1.931,1.8439,1.9567,2.0457,2.0029,2.1488,2.3093,2.4323,2.5515,2.6512,2.7211,2.8263,2.8581,2.8023,2.7941,2.7638,2.7006,2.6455,2.621,2.6157,2.4256,2.3526,2.4284,2.3585,2.3218,2.325,2.325,2.2964,2.2462,2.184,2.0875,0.0,0.0,0.0,0.0,1.7037,1.6418,1.5536,1.5488,1.5242,1.4903,1.488,1.447,1.4011,0.0,0.0,0.0,0.0,0.0,0.0,0.0,0.0,0.0,0.0,2.4036,2.419,2.419,2.4321,2.4445,0.0,0.0,0.0,0.0,0.0,0.0,0.0,2.5004,2.5113,2.5111,2.5144,2.5329,2.5658,2.598,2.6221,2.6322,2.6245,2.5625,2.4647,2.3964,2.3354,0.0,0.0,0.0,0.0,2.2508,2.2426,0.0,0.0,0.0,0.0,2.2327,2.2327,0.0,0.0,0.0,0.0,0.0,0.0,0.0,0.0,2.1274,2.1214,2.0736,0.0,2.0557,2.0438,2.0258,2.0109,0.0,2.0066,2.0089,1.9874,1.9984,2.0238,2.0422,1.9959,1.9716,2.0039,2.0382,2.0599,2.0595,2.2967,2.4778,2.4995,2.6494,2.7461,2.7088,2.7281,2.7611,2.7941,2.7528,2.7006,2.64,2.6263,2.6022,2.5664,2.464,2.4177,2.4341,2.4177,2.3662,2.276,2.276,2.2232,2.1222,2.1035,2.0533,0.0,0.0,0.0,1.9091,1.9114,1.8674,1.8017,1.7573,1.7325,1.7192,1.6261,1.6108,1.6346,0.0,0.0,0.0,0.0,0.0,0.0,0.0,0.0,0.0,0.0,2.4247,2.4375,2.4479,2.4559,2.4789,0.0,0.0,0.0,0.0,0.0,0.0,2.5005,2.5066,2.4987,2.4788,2.5117,2.545,2.5745,2.6266,2.6549,2.6549,2.6381,2.568,2.4469,2.3673,2.3039,0.0,0.0,0.0,0.0,2.2426,0.0,0.0,0.0,0.0,0.0,2.2327,2.2327,0.0,2.2327,2.2327,2.2327,0.0,0.0,0.0,0.0,2.1582,2.143,2.0534,2.0373,2.0436,2.0538,2.0472,2.0508,2.076,2.0717,2.0632,2.0599,2.0599,2.0691,2.0822,2.0508,2.043,2.0976,2.1452,2.2064,2.3009,2.4373,2.5716,2.6857,2.7371,2.7935,0.0,2.834,2.8226,2.8283,2.7968,2.7367,2.6451,2.663,2.6477,2.5949,2.5764,2.5394,2.4797,2.4493,2.4085,2.3734,2.3368,2.2863,2.2295,2.1637,2.114,0.0,0.0,0.0,1.9701,1.9475,1.9183,1.8775,1.8262,1.8193,1.8349,1.7678,1.7505,1.7639,0.0,0.0,0.0,0.0,0.0,0.0,0.0,0.0,0.0,0.0,0.0,0.0,0.0,0.0,0.0,0.0,0.0,0.0,0.0,0.0,2.6316,2.5317,2.5118,2.4876,2.4572,2.5073,2.5502,2.5804,2.6392,2.662,2.653,2.6277,2.5449,2.4101,2.3276,2.271,2.2377,0.0,0.0,0.0,2.2429,0.0,0.0,0.0,0.0,0.0,0.0,0.0,0.0,2.2327,2.2327,2.2327,2.2327,0.0,0.0,0.0,0.0,0.0,2.0699,2.1095,2.1624,2.1521,2.1459,2.1534,2.2015,2.1601,2.1181,2.146,2.1275,2.1087,2.1151,2.1215,2.1374,2.1694,2.2699,2.4094,2.6019,2.597,2.6561,2.8719,2.816,2.8341,3.0142,2.978,2.9298,2.8919,2.8798,2.8193,2.6922,2.7303,2.7162,2.6386,2.683,2.6491,2.541,2.4793,2.4683,2.5133,2.44,2.4061,2.3893,2.2717,2.2066,2.1818,0.0,0.0,1.9778,1.9372,1.918,1.9075,1.8722,1.8769,1.9148,1.9192,1.8927,1.8684,0.0,0.0,0.0,0.0,0.0,0.0,0.0,0.0,0.0,0.0,0.0,0.0,0.0,0.0,0.0,0.0,0.0,0.0,0.0,2.6622,2.6184,2.5565,2.5038,2.4905,2.5259,2.4901,2.5242,2.6294,2.7426,2.8217,2.8557,2.8802,2.7573,2.5209,2.4235,2.338,2.266,2.3079,0.0,2.2361,2.297,0.0,0.0,0.0,0.0,0.0,0.0,0.0,0.0,2.2327,2.2327,2.2327,2.2327,0.0,0.0,0.0,0.0,0.0,2.1521,2.2345,2.3025,2.1823,2.1739,2.2015,2.2082,2.1794,2.143,2.115,2.1306,2.1595,2.1792,2.2151,2.2541,2.2812,2.4031,2.5702,2.771,2.845,2.8677,2.8519,2.89,2.9249,2.9548,2.9027,2.9055,3.0054,0.0,2.8898,2.8075,2.8132,2.7572,2.6259,2.6309,2.6222,2.5886,2.5878,2.5652,2.5194,2.5067,2.4366,2.3227,2.3028,2.2264,0.0,0.0,2.0856,2.0797,2.0726,2.0695,2.0667,2.0601,2.0601,2.0699,2.0989,2.0863,2.0602,0.0,0.0,0.0,0.0,0.0,0.0,0.0,0.0,0.0,0.0,0.0,0.0,0.0,0.0,0.0,0.0,0.0,0.0,0.0,2.7418,2.6935,2.6718,2.5817,2.5274,2.5171,2.5702,2.6609,2.7801,2.8767,2.9279,2.9247,2.8137,2.6843,2.5454,2.4335,2.3495,2.2982,2.3453,2.3459,2.3185,0.0,0.0,0.0,0.0,0.0,0.0,0.0,0.0,0.0,0.0,2.2327,2.2327,2.2327,0.0,0.0,0.0,0.0,0.0,2.1735,2.2557,2.3418,2.2929,2.3187,2.3686,2.4208,2.3553,2.2988,2.338,2.2946,2.2549,2.2891,2.2969,2.335,2.4536,2.6155,2.7623,2.8576,2.8731,2.8916,2.9329,0.0,2.9152,2.9872,2.9356,2.9057,2.9265,0.0,0.0,2.7221,2.7404,2.7113,2.6113,2.6344,2.6343,2.6048,2.6151,2.598,2.5681,2.5077,2.4381,2.3508,2.3073,2.2448,2.1705,0.0,2.1749,2.1576,2.1364,2.1513,2.1802,2.1456,2.1513,2.1859,2.1769,2.1911,2.2228,0.0,0.0,0.0,0.0,0.0,0.0,0.0,0.0,0.0,0.0,0.0,0.0,0.0,0.0,0.0,0.0,0.0,0.0,0.0,2.7768,2.7348,2.7284,2.6367,2.5782,2.5542,2.6561,2.7707,2.9028,2.9736,2.9926,2.9586,2.7709,2.644,2.5743,2.4905,2.4177,2.3638,2.4279,2.4441,2.4157,0.0,0.0,0.0,0.0,0.0,0.0,0.0,0.0,0.0,0.0,0.0,0.0,0.0,0.0,0.0,2.2327,2.2327,2.2209,2.1853,2.2593,2.3541,2.3746,2.4149,2.478,2.6059,2.5374,2.4774,2.5808,2.5136,2.4332,2.4244,2.4046,2.4584,2.6725,2.8386,2.9445,2.9615,2.9286,2.9382,3.0303,2.9489,2.9297,3.0474,2.9835,2.9189,0.0,0.0,0.0,2.6652,2.7015,2.6978,2.6315,2.6555,2.6567,2.6254,2.6045,2.5976,2.5976,2.5124,2.4465,2.3954,2.3354,2.2877,2.2535,2.2686,2.26,2.2344,2.2035,2.2221,2.2693,2.2187,2.2366,2.288,2.2427,2.2748,2.3392,0.0,0.0,0.0,0.0,0.0,0.0,0.0,0.0,0.0,0.0,0.0,0.0,0.0,0.0,0.0,0.0,0.0,0.0,2.6612,2.6746,2.6615,2.605,2.6063,2.6372,2.7037,2.6855,2.747,2.9028,2.9736,3.0106,3.0074,2.9561,2.8323,2.6527,2.6908,2.6188,2.4856,2.6081,2.5973,2.5004,2.4975,0.0,0.0,0.0,0.0,0.0,0.0,0.0,0.0,0.0,0.0,0.0,0.0,0.0,2.2327,2.2327,2.2327,2.2265,2.2237,2.3027,2.3805,2.3502,2.3482,2.4056,2.6183,2.6427,2.6435,2.7143,2.7501,2.7282,2.5745,2.5701,2.6779,2.9484,3.0311,3.0802,3.1493,3.1597,3.1411,3.1157,3.0567,3.0444,3.1099,2.9962,2.945,0.0,0.0,0.0,2.77,2.8083,2.7971,2.721,2.6877,2.669,2.6654,2.5914,2.5535,2.5535,2.5464,2.5006,2.4257,2.4222,2.3823,2.3117,2.3141,2.3141,2.3117,2.3093,2.3117,2.3189,2.3298,2.3578,2.3873,2.3515,2.3599,2.3969,0.0,0.0,0.0,0.0,0.0,0.0,0.0,0.0,0.0,0.0,0.0,0.0,0.0,0.0,0.0,0.0,0.0,0.0,2.5716,2.5792,2.5889,2.6082,2.6133,2.6389,2.6889,2.7674,2.8856,3.0345,2.9926,2.9867,3.0132,2.873,2.8082,2.8058,2.7236,2.6534,2.6002,2.6729,2.653,2.5628,2.542,2.4777,0.0,0.0,0.0,0.0,0.0,0.0,0.0,0.0,2.2704,2.2554,2.2554,2.2426,2.2327,2.2327,2.2327,2.2327,2.2327,2.311,2.3991,2.4071,2.4431,2.5268,2.7321,2.7944,2.8335,2.926,2.9219,2.8595,2.7217,2.7252,2.8067,2.9915,3.0677,3.1352,3.2125,3.1986,3.177,3.1585,3.1123,3.079,3.0509,3.0051,2.9555,0.0,0.0,0.0,2.7157,2.7238,2.6976,2.6205,2.6028,2.5799,2.5504,2.5218,2.492,2.4715,2.4728,2.4477,2.3907,2.3907,2.3636,2.3212,2.3631,2.378,2.3707,2.3552,2.3806,2.4209,2.4259,2.4381,2.4484,2.4364,2.4381,2.4548,0.0,0.0,0.0,0.0,0.0,0.0,0.0,0.0,0.0,0.0,0.0,0.0,0.0,0.0,0.0,0.0,0.0,0.0,2.5052,2.5037,2.518,2.5596,2.5616,2.5891,2.6319,2.7368,2.8653,3.0142,2.9454,2.9405,2.9809,2.8542,2.8324,2.8938,2.8117,2.775,2.7728,2.7778,2.7393,2.6729,2.6244,2.5379,0.0,0.0,0.0,0.0,0.0,0.0,0.0,0.0,2.3045,2.2873,2.2873,2.273,2.2588,2.2588,2.2588,2.2588,2.2588,2.3224,2.4024,2.435,2.5287,2.6659,2.8837,2.9743,3.042,3.1606,3.0956,2.9926,2.908,2.8604,2.8775,3.0335,3.0903,3.1524,3.2553,3.2221,3.1811,3.1673,3.1388,3.093,3.0173,2.9865,2.9317,0.0,0.0,0.0,0.0,2.6428,2.6232,2.5699,2.5515,2.5326,2.499,2.4787,2.4567,2.4303,2.4392,2.423,2.3858,2.3983,2.3886,2.366,2.4173,2.4355,2.4244,2.41,2.4381,2.4892,2.4826,2.4841,2.4929,2.4929,2.4927,2.493,0.0,0.0,0.0,0.0,0.0,0.0,0.0,0.0,2.5418,2.5506,2.5508,0.0,0.0,0.0,0.0,0.0,0.0,0.0,2.451,2.4543,2.4515,2.4307,2.4431,2.4831,2.5575,2.5575,2.6319,2.7772,2.8184,2.8572,2.9001,2.9394,2.9377,2.9049,2.9843,3.021,3.0136,2.9365,2.8773,2.833,2.7585,2.6104,2.4307,0.0,0.0,0.0,0.0,0.0,0.0,0.0,2.3212,2.3189,2.3189,2.3189,2.3189,2.3189,2.3189,2.3189,2.3189,2.3455,2.3826,2.4277,2.5839,2.7975,3.0782,3.1835,3.2596,3.4099,3.283,3.1421,3.1421,2.973,2.8995,3.1078,3.1074,3.1369,3.2979,3.248,3.1799,3.1363,3.1299,3.0949,3.0176,2.943,0.0,0.0,0.0,0.0,0.0,2.5804,2.5973,2.5973,2.5622,2.5384,2.5384,2.4818,2.4476,2.453,2.47,2.4591,2.4209,2.4607,2.4685,2.4493,2.4716,2.4804,2.4804,2.4804,2.4905,2.5072,2.4897,2.4975,2.5173,2.5219,2.5156,2.5109,0.0,0.0,0.0,0.0,0.0,0.0,0.0,0.0,2.5512,2.5507,2.5395,0.0,0.0,0.0,0.0,0.0,0.0,0.0,2.3963,2.3976,2.4096,2.4307,2.4656,2.4712,2.4402,2.4139,2.4797,2.6251,2.7403,2.8073,2.8308,2.8956,2.9458,2.9843,3.0099,2.9879,2.9365,2.9085,2.8599,2.7944,2.7748,2.6622,2.5078,0.0,0.0,0.0,0.0,0.0,0.0,0.0,0.0,0.0,2.3544,2.341,2.3189,2.3189,2.3189,2.3189,2.3189,2.3848,2.4797,2.5806,2.7727,2.9915,3.2227,3.2408,3.2423,3.3376,3.2866,3.2151,3.1847,3.0592,3.0015,3.1237,3.0808,3.0757,3.178,3.1465,3.1096,3.098,3.0645,3.0172,2.9395,2.9142,0.0,0.0,0.0,0.0,0.0,2.5506,2.5314,2.4746,2.4627,2.4616,2.4781,2.4591,2.4559,2.4716,2.4864,2.4836,2.4623,2.4746,2.4775,2.4716,2.4775,2.4836,2.4968,2.5147,2.5178,2.5101,2.5229,2.4988,2.4563,2.5122,2.4946,2.45,0.0,0.0,0.0,0.0,0.0,0.0,0.0,0.0,2.5507,2.5403,2.5246,2.509,0.0,0.0,0.0,0.0,0.0,0.0,2.3899,2.3774,2.3947,2.4528,2.4567,2.4447,2.4133,2.4241,2.456,2.5169,2.6048,2.6776,2.7331,2.8563,2.9609,3.0487,3.0968,3.0907,3.0369,2.9769,2.9035,2.8264,2.8264,2.7126,2.5421,0.0,0.0,0.0,0.0,0.0,0.0,0.0,0.0,0.0,2.3878,2.3774,2.3588,2.3588,2.3588,2.3588,2.3588,2.4332,2.5433,2.6862,2.8955,3.1151,3.3049,3.364,3.4004,3.4739,3.3927,3.2883,3.2338,3.1122,3.0356,3.0834,3.0246,3.0136,3.1237,3.0951,3.0576,3.0576,3.0323,2.9861,2.9098,2.8703,0.0,0.0,0.0,0.0,0.0,2.5041,2.482,2.434,2.4393,2.4513,2.4607,2.4663,2.4766,2.4877,2.5041,2.5065,2.5006,2.5006,2.4968,2.4943,2.5034,2.5129,2.5176,2.4987,2.4865,2.4743,2.4581,2.4188,2.3812,2.4296,2.4334,2.4207,0.0,0.0,2.5272,2.545,0.0,0.0,0.0,0.0,2.5408,2.5233,2.5099,2.4985,0.0,0.0,0.0,2.4459,0.0,0.0,0.0,2.3899,2.4115,2.491,2.4363,2.4253,2.4652,2.5234,2.5169,2.4523,2.4659,2.5214,2.6259,2.8335,2.9848,3.0839,3.1963,3.2412,3.2192,3.065,2.9512,2.8755,2.8755,2.742,2.5495,2.6209,0.0,0.0,0.0,0.0,0.0,0.0,0.0,0.0,2.419,2.419,2.419,2.419,2.419,2.4226,2.43,2.4887,2.5935,2.7603,2.9879,3.2144,3.3713,3.5184,3.6397,3.6956,3.5385,3.366,3.2779,3.1347,3.0283,3.021,2.9512,2.9512,3.098,3.054,3.0099,3.0099,3.0123,2.9793,2.8984,2.8294,0.0,0.0,0.0,0.0,0.0,2.451,2.451,2.451,2.47,2.4804,2.4832,2.4956,2.4991,0.0,2.5224,2.5322,2.5322,2.5322,2.5255,2.5129,2.5317,2.5372,2.5294,2.4442,2.4124,2.4083,2.3319,2.3004,2.2984,2.298,2.3387,2.3959,0.0,0.0,2.5299,2.5398,0.0,0.0,0.0,0.0,2.5215,2.5146,2.4874,2.4667,2.4575,2.4393,0.0,2.4266,2.4228,0.0,0.0,2.4132,2.4441,2.5246,2.5207,2.5372,2.5828,2.5118,2.4659,2.4523,2.5642,2.6207,2.6259,2.887,2.9998,2.9935,3.1148,3.0944,2.9732,2.8741,2.786,2.7126,2.7126,2.6429,2.5421,2.5605,2.5034,0.0,0.0,0.0,0.0,0.0,0.0,0.0,2.419,2.419,2.419,2.419,2.419,2.4337,2.498,2.5731,2.6869,2.9108,3.1971,3.4559,3.581,3.5862,3.5291,3.3934,3.4247,3.4293,3.2889,3.1788,3.0944,3.0283,2.9512,2.9122,2.9475,2.9365,2.9232,2.9232,2.9459,2.9254,2.838,0.0,0.0,0.0,0.0,0.0,2.4768,2.4731,2.4731,2.4731,2.4775,2.4836,2.4968,2.4967,2.5088,0.0,2.5318,2.5376,2.5376,2.5368,2.5374,2.5368,2.4734,2.4472,2.4399,2.3608,2.3274,2.3241,2.3068,2.2608,2.208,2.2585,2.2424,2.2167,0.0,0.0,0.0,0.0,0.0,0.0,0.0,0.0,2.5894,2.4977,2.4681,2.4484,2.4375,2.4266,0.0,0.0,2.419,2.419,2.419,2.419,2.4644,2.563,2.6093,2.6526,2.6976,2.6452,2.6036,2.5822,2.661,2.6908,2.6809,2.88,3.0141,3.0839,3.1623,3.1091,2.9512,2.8741,2.7677,2.6612,2.6612,2.616,2.5541,2.5541,2.5097,2.4513,2.4513,0.0,0.0,0.0,0.0,0.0,0.0,0.0,2.4513,2.4513,2.4428,2.445,2.4857,2.5758,2.7383,3.054,3.3018,3.4855,3.5668,3.5057,3.4017,3.2995,3.3549,3.3844,3.2464,3.1589,3.0706,2.9793,2.937,2.92,2.92,2.8936,2.8721,2.8721,2.8483,2.8184,2.7698,0.0,0.0,0.0,0.0,2.5272,2.4929,2.4891,2.4892,2.4929,2.5005,2.5088,2.5197,2.5187,2.5226,2.5365,2.5434,2.5457,2.5489,2.5484,2.5308,2.4907,2.4905,2.4406,2.3625,2.32,2.276,2.2326,2.1874,2.1444,2.1075,2.1297,2.1396,2.1493,0.0,0.0,0.0,0.0,0.0,0.0,0.0,0.0,0.0,2.4798,2.4484,2.4393,2.4209,2.419,2.419,0.0,0.0,0.0,2.419,2.4337,2.4839,2.585,2.6598,2.7169,2.7556,2.7536,2.7373,2.7187,2.7126,2.7565,2.8408,2.9095,3.0449,3.2314,3.2391,3.1494,2.9953,2.8998,2.7699,2.6234,2.6234,2.5986,2.5554,2.5554,2.5239,2.4804,2.4804,2.4804,2.4804,2.4804,0.0,0.0,0.0,0.0,2.4804,2.4804,2.4685,2.458,2.4729,2.5913,2.7954,3.1457,3.3091,3.3976,3.4463,3.3719,3.2932,3.2975,3.3101,3.2841,3.1832,3.1096,3.0304,2.9289,2.9312,2.9416,2.9267,2.8763,2.8357,2.819,2.7657,2.7167,2.7053,0.0,0.0,0.0,0.0,2.493,2.5061,2.5072,2.5098,2.5185,2.5301,2.5343,2.5434,2.5427,2.5427,2.5434,2.5489,2.5389,2.5184,2.5461,2.511,2.4365,2.4913,2.4347,2.3057,2.2699,2.2284,2.1813,2.0731,2.0373,2.0455,2.0269,2.0619,2.1313,0.0,0.0,0.0,0.0,0.0,0.0,0.0,0.0,0.0,0.0,2.4357,2.4228,2.419,2.419,2.419,2.419,2.419,2.419,2.419,0.0,0.0,2.547,2.5919,2.6165,2.6224,2.5984,2.6153,2.6767,2.6422,2.8398,3.2487,3.0868,3.1243,3.3103,3.2025,3.0687,2.9049,2.7567,2.6073,2.476,2.476,2.4837,2.4911,2.4911,2.4888,2.4804,2.4804,2.4804,2.4804,2.4804,2.4804,0.0,0.0,0.0,2.4804,2.4804,2.4775,2.4911,2.5596,2.7466,2.9495,3.0809,3.1749,3.2486,3.2747,3.2703,3.2635,3.2857,3.2568,3.2015,3.1167,3.0941,3.0584,2.9738,2.9662,2.9416,2.8645,2.8454,2.8152,2.7457,2.7403,2.7162,2.6426,0.0,0.0,0.0,2.5301,2.5274,2.5352,2.5368,2.5381,2.5424,2.5463,2.5468,2.5479,2.5479,2.5479,2.5479,2.549,2.4766,2.3467,2.4882,2.508,2.4365,2.3663,2.3205,2.289,2.1313,2.1468,2.2579,2.095,2.0655,2.112,2.0948,2.0866,2.104,0.0,0.0,0.0,0.0,0.0,0.0,0.0,0.0,0.0,0.0,0.0,2.419,2.419,2.419,2.419,2.419,2.419,2.419,2.419,2.452,2.4924,2.5384,2.557,2.5849,2.6322,2.6186,2.6381,2.6994,2.6348,2.8754,3.3942,3.2139,3.2834,3.5579,3.3606,3.1604,2.9549,2.7606,2.5894,2.4493,2.4623,2.479,2.4917,2.4917,2.4968,2.508,2.508,2.508,2.508,2.508,2.508,2.508,2.508,0.0,0.0,0.0,2.4981,2.508,2.5808,2.7191,2.8768,2.9886,3.09,3.1762,3.2161,3.2036,3.173,3.136,3.1202,3.1127,3.1146,3.0734,3.0246,2.9787,2.9418,2.908,2.87,2.7899,2.7281,2.6886,2.6503,2.6129,2.5734,0.0,0.0,0.0,2.5374,2.5383,2.5434,2.5446,2.5479,2.5535,2.5507,2.5273,2.4833,2.5301,2.5322,2.4879,2.535,2.4944,2.3816,2.4918,2.4768,2.366,2.4141,2.3797,2.2893,2.2035,2.1806,2.194,2.1101,2.0927,2.1164,2.1427,2.154,2.1622,0.0,0.0,0.0,0.0,0.0,0.0,0.0,0.0,0.0,0.0,0.0,2.419,2.419,0.0,0.0,0.0,2.4247,2.4284,2.4284,2.4284,2.4523,2.509,2.509,2.5364,2.5988,2.5988,2.6249,2.6729,2.6237,2.8959,3.4606,3.3321,3.4768,3.8285,3.5642,3.2963,3.038,2.8339,2.6711,2.5456,2.5016,2.4943,2.5077,2.5077,2.5182,2.5313,2.5303,2.5321,2.5321,2.5312,2.5321,2.5312,2.5313,2.5303,0.0,0.0,0.0,2.5206,2.5701,2.658,2.7574,2.8594,2.9635,3.0585,3.1189,3.1004,3.0629,3.0195,3.0101,3.0201,3.0647,3.0199,2.9723,2.9573,2.8994,2.8479,2.8288,2.7275,2.6505,2.6313,2.5687,2.5322,2.5312,0.0,0.0,0.0,2.5441,2.5446,2.5511,2.5516,2.5577,2.5611,2.5356,2.4924,2.4321,2.4987,2.4882,2.4085,2.4893,2.4557,2.3334,2.4522,2.4283,2.3026,2.4438,2.4362,2.3188,2.2654,2.2393,2.2157,2.1477,2.1365,2.1628,2.2144,2.2242,2.2238,0.0,0.0,0.0,0.0,0.0,0.0,0.0,0.0,0.0,0.0,0.0,2.419,2.419,2.419,2.419,2.419,2.4375,2.4459,2.4459,2.4459,2.441,2.4282,2.4263,0.0,2.43,2.4337,2.4704,2.5511,2.5846,2.9062,3.4962,3.4563,3.6734,4.0781,3.7588,3.4357,3.1225,2.9783,2.8819,2.8026,2.5866,2.5099,2.5293,2.5293,2.5303,2.5322,2.5352,2.5398,2.5398,2.5391,2.5398,2.5383,2.5312,2.5303,2.5303,0.0,0.0,0.0,2.5321,2.5985,2.6687,2.6754,2.7407,2.8264,2.906,2.9225,2.9456,3.0213,2.9725,2.9159,2.9187,2.9187,2.9148,2.9137,2.8456,2.7648,2.6841,2.6649,2.6274,2.5457,2.5341,2.5312,2.5383,0.0,0.0,0.0,2.5484,2.5511,2.5598,2.5598,2.5611,2.5703,2.4883,2.4453,2.4414,2.4453,2.4022,2.3185,2.3968,2.3018,2.0603,2.3064,2.3676,2.2868,2.3753,2.4138,2.3907,2.2235,2.2853,2.456,2.2125,2.201,2.3188,2.314,2.285,2.2612,0.0,0.0,0.0,0.0,0.0,0.0,0.0,0.0,0.0,0.0,0.0,0.0,0.0,2.419,2.4266,2.4375,2.4575,2.4639,2.4493,2.4476,2.441,2.4209,2.419,2.419,2.419,2.419,2.4593,2.5421,2.5043,2.7529,3.2669,3.2025,3.3405,3.6413,3.5752,3.4541,3.2768,2.9936,2.8593,2.8244,2.6657,2.6079,2.6082,2.5495,2.5303,2.5322,2.5368,2.5762,2.6171,2.5628,2.5846,2.6196,2.5615,2.5447,2.5447,2.5447,2.5447,2.5447,2.5447,2.5631,2.5962,2.6502,2.6872,2.7274,2.8121,2.8313,2.8275,2.8005,2.8159,2.8159,2.7582,2.7928,2.8313,2.8313,2.7621,2.6967,2.6659,2.612,2.5688,2.5412,2.5343,2.5383,2.544,0.0,0.0,0.0,0.0,2.5598,2.566,2.5661,2.5662,2.5703,2.5391,2.5234,2.5234,2.4644,2.3886,2.3036,2.3835,2.3405,2.1945,2.2829,2.3697,2.438,2.407,2.4272,2.4764,2.3485,2.3404,2.3954,2.291,2.2725,2.3177,2.3639,2.3749,2.3575,0.0,0.0,0.0,0.0,0.0,2.5197,2.5197,2.4224,2.3517,2.3732,0.0,0.0,0.0,0.0,2.4466,2.4596,2.4731,2.4746,2.4607,2.4526,2.441,2.4209,2.419,2.419,2.419,2.419,2.4447,2.5017,2.474,2.6649,3.0577,3.032,3.1494,3.3807,3.3513,3.3403,3.3209,3.0689,2.9491,2.9091,2.7318,2.6928,2.739,2.6813,2.6766,2.7025,2.6776,2.6916,2.7034,2.5901,2.5913,2.6299,2.5693,2.5493,2.5493,2.5493,2.5493,2.5493,2.5493,2.5457,2.5564,2.6146,2.625,2.6472,2.7314,2.7546,2.743,2.7159,2.7325,2.7335,2.6757,2.6843,2.7121,2.7428,2.6736,2.6159,2.6159,2.5688,2.5357,2.5391,2.5427,2.5446,2.5516,0.0,0.0,0.0,0.0,0.0,2.5703,2.5703,2.5586,2.5273,2.5273,2.5234,2.5231,2.4594,2.4018,2.3407,2.3934,2.3697,2.2812,2.309,2.3851,2.488,2.44,2.458,2.5116,2.4117,2.3763,2.3783,2.3375,2.3303,2.3492,2.4006,2.4056,2.3837,0.0,0.0,2.784,2.784,2.6623,2.5642,2.5642,2.4658,2.3915,2.3915,0.0,0.0,0.0,0.0,0.0,2.4881,2.4865,2.4879,2.4827,2.4607,2.4428,2.4209,2.4209,2.4209,2.4209,2.4209,2.4209,2.4209,2.5017,2.6633,2.8962,2.9756,3.1409,3.3576,3.1225,3.1042,3.2463,3.2088,3.1562,3.0639,2.7778,2.7621,2.9083,2.9055,2.9574,3.028,2.9486,2.8753,2.7947,2.6188,2.5642,2.5676,2.5554,2.5537,2.5498,2.5498,2.5498,2.5498,0.0,0.0,0.0,2.5493,2.5493,2.5722,2.6568,2.6757,2.699,2.784,2.7316,2.6676,2.6676,2.5936,2.5592,2.6438,2.5851,2.5313,2.5313,2.5382,2.5406,2.5406,2.5451,2.5516,2.5601,0.0,0.0,0.0,2.5703,2.5703,2.5703,2.5703,2.5312,2.4453,2.4453,2.4411,2.4349,2.4347,2.4308,2.4219,2.4212,2.3736,2.2851,2.3658,2.4082,2.4149,2.4694,2.4979,2.4917,2.3939,2.3904,2.4402,2.357,2.3619,2.419,2.419,2.3774,2.3189,0.0,2.8281,2.8653,2.8653,2.7402,2.6387,2.6387,2.5229,2.4423,0.0,0.0,0.0,2.4917,2.6009,2.6869,2.7158,2.6773,2.6242,2.5493,2.4845,2.4497,2.4428,2.4428,2.4497,2.4623,2.4476,2.4513,2.4623,2.5276,2.632,2.7716,2.8558,2.9626,3.0727,3.0074,2.968,2.9511,2.8836,2.9557,3.0972,2.8528,2.8159,2.8978,2.7798,2.752,2.7658,2.6875,2.7309,2.7949,2.6246,2.6522,2.7459,2.6792,2.6164,2.5657,2.5657,2.5657,2.5657,2.5657,0.0,0.0,0.0,0.0,0.0,2.58,2.5878,2.5917,2.6184,2.6018,2.5846,2.5846,2.5634,2.5505,2.5777,2.5568,2.5391,2.546,2.5446,2.5479,2.5524,2.5577,2.5601,2.5661,0.0,0.0,0.0,2.5703,2.5703,2.5703,2.5703,2.5586,2.5352,2.5308,2.5258,2.5249,2.5138,2.4794,2.4212,2.4138,2.4011,2.3735,2.3179,2.3586,2.4694,2.3997,2.4039,2.4617,2.4329,2.434,2.4459,2.4062,2.3912,2.3837,2.3837,2.3566,2.3165,2.8789,2.9127,2.9533,2.9837,2.8924,2.8213,2.8518,2.73,2.6452,0.0,0.0,0.0,2.6972,2.7911,2.8448,2.826,2.7879,2.7344,2.6553,2.5864,2.5551,2.5651,2.5551,2.5602,2.5838,2.5716,2.5716,2.5838,2.6183,2.6672,2.7258,2.8105,2.873,2.9149,2.8755,2.8374,2.7985,2.7161,2.8145,3.0128,2.8552,2.8813,3.0067,2.8762,2.8729,2.926,2.8147,2.8886,2.9877,2.6757,2.6602,2.7617,2.6719,2.6602,2.6641,2.5898,2.5977,2.6172,2.5781,2.5664,2.5585,2.5585,0.0,0.0,2.5505,2.55,2.5533,2.5533,2.5551,2.5527,2.5527,2.5507,2.5498,2.5524,2.5498,2.5479,2.5489,2.5511,2.5577,2.5598,2.5611,2.566,0.0,2.5703,2.5703,2.5703,2.5703,2.5703,2.5703,2.5662,2.566,2.566,2.5598,2.5527,2.5503,2.546,2.5151,2.4648,2.4534,2.4464,2.4464,2.3762,2.3993,2.4866,2.4083,2.4013,2.4476,2.441,2.4375,2.4357,2.4247,2.3996,2.371,2.371,2.341,2.2972,0.0,3.0176,3.0446,3.119,3.0717,3.048,3.119,3.004,2.9163,0.0,2.8728,2.8731,2.9637,3.0133,3.0028,2.9137,2.8796,2.8423,2.7902,2.7269,2.7039,2.732,2.709,2.709,2.735,2.7335,2.7335,2.735,2.7411,2.7487,2.7517,2.8335,2.866,2.8509,2.7661,2.7357,2.751,2.6759,2.7345,2.867,2.8126,2.9336,3.1311,3.0423,3.1118,3.2316,3.0802,3.1394,3.2148,2.7539,2.6367,2.6758,2.6172,2.6914,2.7734,2.6406,2.6445,2.6836,2.6171,2.5929,2.5866,2.5752,2.5761,0.0,2.5527,2.5605,2.5712,2.5595,2.5586,2.5611,2.5611,2.5545,2.5527,2.5603,2.5609,2.5562,2.552,2.5587,2.5607,2.5607,2.5661,2.5703,2.5703,2.5703,2.5703,2.5703,2.5703,2.5703,2.5703,2.5611,2.5595,2.5595,2.5511,2.5446,2.5398,2.5383,2.5327,2.5244,2.5077,2.4967,2.4955,2.4823,2.4775,2.476,2.4543,2.4479,2.4462,2.4284,2.419,2.419,2.417,2.3955,2.3631,2.3588,2.3189,2.2643,3.0108,3.0581,3.1224,3.1935,3.1461,3.1224,3.1968,3.0818,3.0224,3.1215,3.1567,3.242,3.4123,3.3327,3.2783,3.303,3.1283,2.9964,2.9418,2.8029,2.732,2.7546,2.748,2.7573,2.7773,2.7612,2.7612,2.7773,2.8275,2.858,2.8771,2.9615,2.9653,2.8962,2.8119,2.7785,2.7808,2.7654,2.7796,2.8154,2.8027,2.8684,2.9553,2.8135,2.7803,2.8093,2.7806,2.8398,2.9141,2.8125,2.6953,2.6172,2.7383,2.707,2.6406,2.7461,2.7379,2.7049,2.7559,2.7644,2.7439,2.6739,2.7079,0.0,2.5839,2.6038,2.6354,2.5663,2.5554,2.5616,2.5616,2.5625,2.5661,2.5663,2.5623,2.5622,2.5662,2.5662,2.5663,2.5663,2.5703,0.0,2.5703,2.5703,2.5703,2.5703,2.5658,2.5609,2.5609,2.5577,2.5507,2.5507,2.544,2.542,2.5406,2.5187,2.5061,2.5065,2.4904,2.4861,2.4809,2.4654,2.4543,2.4543,2.4339,2.4266,2.4266,2.4209,2.419,2.417,2.3878,2.3588,2.3259,2.2996,2.2678,2.2405,3.0717,3.1224,3.1968,3.2713,3.2544,3.2727,3.4103,3.3396,3.3145,3.4405,3.5366,3.5846,3.5616,3.5472,3.5064,3.4277,3.2857,3.1562,3.062,2.9779,2.9222,2.9002,2.8848,2.8925,2.9159,2.9051,2.9051,2.9159,2.9435,2.9665,2.9775,3.0198,2.9929,2.9083,2.8659,2.8275,2.7928,2.8313,2.851,2.8531,2.8161,2.8249,2.8533,2.7367,2.7162,2.7518,2.7147,2.6992,2.7266,2.9023,2.8436,2.6945,2.6947,2.7212,2.7549,2.7549,2.7534,2.7589,2.8017,2.8085,2.7937,2.751,2.7365,0.0,0.0,2.61,2.6088,2.6088,2.58,2.5687,2.6112,2.586,2.5601,2.5601,2.5587,2.5542,2.5598,2.5613,2.5661,2.5703,2.5703,0.0,2.5703,2.5703,2.5703,2.5659,2.5609,2.5593,2.5535,2.5479,2.544,2.544,2.5383,2.5357,2.5365,2.5206,2.5099,2.4991,2.485,2.4746,2.4639,2.4445,2.4339,2.4339,2.4247,2.419,2.419,2.419,2.4112,2.3955,2.3774,2.3374,2.2923,2.2807,2.2554,2.2327,3.1326,3.1664,3.2307,3.3051,3.3371,3.4165,3.5918,3.5734,3.591,3.7253,3.8544,3.864,3.683,3.7296,3.7173,3.5826,3.4298,3.3185,3.2638,3.1675,3.0981,3.0648,3.0291,3.0163,3.0379,3.0379,3.0379,3.0379,3.0379,3.0379,3.0379,3.0379,3.0006,2.9352,2.9006,2.8775,2.8621,2.8807,2.8983,2.9052,2.8357,2.8152,2.824,2.727,2.7366,2.7874,2.7225,2.6562,2.6406,2.9375,2.9291,2.7744,2.6693,2.7523,2.8718,2.7812,2.7807,2.8145,2.8482,2.8497,2.8414,2.8268,2.7653,2.7005,0.0,0.0,0.0,2.6334,2.5913,2.5701,2.6396,2.5984,2.5493,2.5493,0.0,0.0,0.0,2.5524,0.0,2.5659,2.566,0.0,2.5663,2.5663,2.566,2.5603,2.559,2.5524,2.5473,2.5434,2.5383,2.5383,2.5321,2.5303,2.5303,2.5244,2.516,2.4981,2.4795,2.4639,2.4445,2.4284,2.419,2.419,2.419,2.419,2.419,2.4132,2.3935,2.3588,2.3588,2.3236,2.2695,2.2712,2.2535,2.2327,3.1326,3.1258,3.1562,3.2273,3.3362,3.4402,3.5272,3.5703,3.6398,3.7716,3.9024,3.9983,4.0423,3.9318,3.9283,4.1067,3.6362,3.4415,3.7064,3.3006,3.0828,3.1506,3.079,3.0367,3.0379,3.0379,3.0379,3.0379,3.0379,3.0379,3.0379,3.0379,3.034,3.0198,2.8698,2.9236,3.1133,2.9023,2.8574,2.9214,2.8485,2.8559,2.8991,2.7528,2.7031,2.7109,2.7031,2.6953,2.7031,2.8203,2.7923,2.7273,2.8642,2.8143,2.7501,2.9569,2.913,2.8357,2.9838,3.0173,0.0,0.0,2.8901,0.0,2.6928,0.0,2.6256,2.5601,0.0,2.5427,2.5543,0.0,0.0,2.5493,0.0,0.0,2.5484,2.5446,2.5434,2.5503,2.5511,0.0,0.0,2.5607,2.5605,2.5601,2.5484,2.5441,2.5427,2.5357,2.5293,2.5293,2.5313,2.5303,2.5303,2.5111,2.4968,2.4832,2.4623,2.4445,2.4228,2.4209,2.419,2.419,2.419,2.419,2.417,2.3858,2.3566,2.3259,2.3259,2.3021,2.2669,2.2453,2.2321,2.2327,3.1654,3.1888,3.2414,3.2954,3.3488,3.4374,3.59,3.772,3.9148,3.9714,4.1086,4.1919,4.1809,4.0781,4.0467,4.1431,3.824,3.6566,3.7414,3.4902,3.3545,3.3891,3.2583,3.1852,3.1852,3.1391,3.0929,3.0379,3.0379,3.0379,3.0379,3.0379,3.0121,2.9621,2.889,2.8929,2.9478,2.9476,2.9668,2.9977,2.9745,2.9842,2.9831,2.7222,2.625,2.6328,2.6836,2.668,2.6367,0.0,2.7571,0.0,0.0,2.7662,2.8318,2.8883,2.8868,2.8898,3.0094,3.0051,0.0,0.0,0.0,0.0,2.739,0.0,2.6043,0.0,0.0,0.0,0.0,0.0,0.0,0.0,2.5343,0.0,0.0,0.0,2.5376,0.0,0.0,0.0,0.0,0.0,0.0,0.0,2.5415,2.5383,2.5357,2.5341,2.5303,2.5303,2.5192,2.5122,2.5122,2.4968,2.478,2.4623,2.4526,2.4393,2.419,2.419,2.419,2.419,2.419,2.419,2.419,2.4036,2.3689,2.3189,2.3189,2.2908,2.2453,2.2349,2.2327,2.2327,3.223,3.2546,3.2966,3.3247,3.3771,3.4932,3.7235,3.9414,4.0928,4.1368,4.2433,4.313,4.2983,4.2249,4.2062,4.2853,4.052,3.8878,3.859,3.685,3.5507,3.4814,3.4045,3.3276,3.2583,3.2199,3.1621,3.0775,3.0533,3.0379,3.0379,3.0379,3.0083,2.9467,2.9467,2.9121,2.8632,2.9708,3.0048,2.9807,2.9706,2.9667,2.94,2.6991,2.5898,2.5781,2.6406,2.625,2.582,2.6719,2.7376,0.0,2.658,2.7284,2.8449,2.8049,2.8153,2.8659,2.9737,0.0,0.0,0.0,0.0,0.0,0.0,0.0,0.0,0.0,0.0,0.0,0.0,0.0,2.5928,2.5687,0.0,2.5572,2.5341,2.5303,0.0,0.0,0.0,0.0,0.0,0.0,0.0,2.5413,2.5383,2.5365,2.5313,2.5303,2.5254,2.5214,2.5077,2.4967,2.4956,2.4836,2.47,2.4476,2.4476,2.4393,2.419,2.419,2.419,2.419,2.419,2.4151,2.4036,2.3976,2.3588,2.3069,2.3007,2.2686,2.2327,2.2327,2.2327,2.2327,3.3075,3.2795,3.2537,3.2502,3.4211,3.6467,3.936,3.9863,4.0487,4.2066,4.2323,4.291,4.4452,4.3901,4.4512,4.7243,4.3324,4.1175,4.2265,3.8772,3.5545,3.3083,3.4545,3.4276,3.1775,3.2468,3.2468,3.166,3.0814,3.0379,3.0379,3.0379,3.0379,3.034,3.034,3.034,3.0275,2.9544,2.8822,2.8118,2.7339,2.7062,2.7109,2.6992,2.6445,2.5703,2.5742,0.0,0.0,2.6719,2.6986,0.0,0.0,0.0,0.0,0.0,0.0,0.0,0.0,0.0,0.0,2.9083,0.0,0.0,0.0,0.0,2.845,0.0,0.0,0.0,0.0,2.7852,2.7544,2.6697,2.6544,0.0,0.0,2.5303,0.0,0.0,0.0,0.0,0.0,0.0,2.5413,2.5398,2.5339,2.5313,2.5303,2.5303,2.5214,2.5041,2.4991,2.4956,2.4818,2.4804,2.47,2.4476,2.4476,2.4393,2.419,2.419,2.419,2.419,2.419,2.4016,2.3674,2.3387,2.3021,2.2695,2.2426,2.2293,2.2327,2.2327,2.2327,2.2327,3.396,3.4552,3.4679,3.3524,3.4368,3.6266,3.9423,4.0443,4.1795,4.4343,4.4672,4.5516,4.7682,4.7205,4.7059,4.8016,4.5611,4.3981,4.3844,4.1476,3.9969,3.9662,3.9123,3.8161,3.6776,3.5853,3.4737,3.3353,3.2468,3.2045,3.2045,3.1506,3.1275,3.1237,3.066,2.982,2.8859,2.9761,2.9385,2.82,2.8546,2.9061,2.9375,0.0,2.7187,2.7344,2.6758,2.6562,0.0,2.6211,2.6523,2.6908,2.6516,2.6967,2.7563,2.7189,2.7267,0.0,0.0,0.0,2.7582,2.8159,0.0,0.0,0.0,0.0,0.0,0.0,0.0,0.0,0.0,2.7785,2.7813,2.7505,2.6967,2.6505,0.0,2.5649,0.0,2.5303,2.5312,2.5339,0.0,0.0,0.0,2.533,2.5293,2.5303,2.5303,2.5192,2.5077,2.4991,2.4757,2.467,2.4591,2.4479,2.4375,2.4284,2.4284,2.4284,2.419,2.419,2.419,2.419,2.3976,2.3795,2.3653,2.3328,2.2996,2.2695,2.2599,2.248,2.2327,2.2327,2.2327,2.2237,3.5145,3.5725,3.5862,3.4468,3.5165,3.689,3.9863,4.161,4.336,4.5627,4.6397,4.7462,4.9334,4.9077,4.8746,4.8746,4.7582,4.6186,4.4568,4.3509,4.2598,4.1777,4.1239,4.0162,3.8392,3.7892,3.6507,3.4199,3.3968,3.3506,3.2891,3.2352,3.1968,3.1698,3.1758,3.0394,2.8147,3.0199,2.9771,2.7832,2.8748,2.9648,3.0234,0.0,2.8476,2.9062,0.0,2.7461,2.7344,2.6445,2.6523,2.6835,2.586,2.6286,2.7023,2.6365,2.6545,2.7121,2.7736,2.7505,0.0,2.8121,2.8121,0.0,2.8929,0.0,0.0,0.0,0.0,0.0,0.0,2.8476,2.8571,2.79,2.7313,2.6726,0.0,2.547,2.5138,2.5192,2.5244,2.5303,2.5303,2.5303,2.5303,2.5303,2.5224,2.5203,0.0,0.0,2.4904,2.4812,2.4586,2.4479,2.4393,2.4266,2.419,2.419,2.419,2.419,2.419,2.419,2.4151,2.4016,2.3795,2.3566,2.3328,2.3117,2.2822,2.2546,2.2546,2.2453,2.2327,2.2327,2.2327,2.2209,3.6531,3.645,3.6229,3.543,3.6567,3.8365,4.0818,4.3133,4.4967,4.5883,4.7425,4.8746,4.9591,4.9738,4.9738,4.9701,4.9269,4.7783,4.4814,4.4938,4.3482,3.9823,4.1162,4.0431,3.7084,3.8546,3.7738,3.443,3.5161,3.4661,3.3083,3.3006,3.2545,3.1915,3.3566,3.199,2.8288,3.0834,3.0009,2.7091,2.8006,2.8945,2.9766,2.9687,3.0234,3.0781,2.8984,2.8359,2.8242,2.7344,2.7031,2.6836,2.6,2.5613,2.5517,2.5511,2.5443,2.5736,2.7428,2.789,2.8082,2.889,0.0,0.0,0.0,0.0,3.0882,0.0,0.0,0.0,0.0,0.0,2.9766,2.7969,2.7624,2.6961,2.5111,2.4842,2.4912,2.5043,2.5182,2.5293,2.5293,2.5293,2.5293,2.5283,2.5088,2.4979,2.4979,0.0,2.47,2.453,2.4476,2.4393,2.419,2.419,2.419,2.419,2.419,2.419,2.419,2.417,2.3996,2.371,2.3653,2.3282,2.2695,2.2695,2.2527,2.2327,2.2327,2.2327,2.2327,2.2327,2.2299,2.2152,3.762,3.8319,3.9093,3.9496,3.9024,3.9397,4.1632,4.3214,4.496,4.7387,4.915,5.0692,5.2123,5.227,5.205,5.1426,5.0972,4.9849,4.7863,4.7197,4.6161,4.4569,4.4594,4.3624,4.1508,4.0623,3.9469,3.7969,3.6315,3.5584,3.5699,3.443,3.3774,3.3643,3.411,3.2742,3.0174,3.1426,3.0794,2.8944,2.918,3.0547,3.2305,0.0,3.1484,3.2461,3.0117,2.9258,2.9141,2.8242,2.7539,2.7069,2.7371,2.6554,2.574,2.6927,2.6805,2.6505,2.7582,2.789,2.8082,2.889,2.9275,2.9544,0.0,0.0,0.0,0.0,0.0,0.0,0.0,0.0,2.9229,2.8593,2.7818,2.6972,2.598,2.5769,2.574,2.5882,2.5323,2.4994,2.5077,2.5088,2.503,2.4942,2.4902,2.4836,2.4836,0.0,0.0,2.4493,2.4357,2.4266,2.419,2.419,2.419,2.419,2.419,2.419,2.419,2.3955,2.3795,2.3653,2.3165,2.2873,2.2669,2.2473,2.2377,2.2327,2.2327,2.2327,2.2327,2.2327,2.2061,2.1705,3.8955,4.0248,4.1625,4.2066,4.2081,4.2304,4.3206,4.4163,4.5621,4.7974,4.9774,5.1132,5.205,5.2784,5.2894,5.205,5.1445,5.0454,4.8996,4.8101,4.7186,4.6329,4.5663,4.446,4.2585,4.12,3.9738,3.8161,3.6738,3.6084,3.6161,3.5199,3.4597,3.4268,3.4739,3.3563,3.1304,3.146,3.1206,3.0703,3.0312,3.1016,0.0,3.125,3.1484,3.2109,3.0664,3.0156,3.0039,2.9141,2.8555,2.8123,2.8095,2.7434,2.6779,2.7663,2.7544,2.7351,2.8198,2.8429,2.8621,2.9467,2.966,2.9813,3.0314,3.0663,3.0521,0.0,0.0,0.0,0.0,0.0,0.0,2.8789,2.7765,2.6806,2.6095,2.5904,2.5822,2.5691,2.5456,2.521,2.4942,2.4917,2.4877,2.4804,2.4716,2.467,0.0,0.0,0.0,2.4375,2.4928,2.4827,2.3996,2.5157,2.5157,2.3996,2.4481,2.4461,2.3976,2.3795,2.3544,2.3236,2.2873,2.2617,2.2527,2.2377,2.2327,2.2327,2.2327,2.2327,2.2327,2.2327,2.2003,2.1521,4.0634,4.2323,4.3901,4.3681,4.5076,4.6067,4.559,4.5993,4.6911,4.8416,5.0068,5.1132,5.1132,5.238,5.2894,5.205,5.1353,5.0372,4.9078,4.8178,4.7297,4.6449,4.5506,4.4075,4.1992,4.0893,3.9238,3.7046,3.6584,3.6122,3.5661,3.5545,3.5097,3.4404,3.5288,3.4374,3.206,3.136,3.1523,3.2109,3.125,3.0976,3.1055,3.0937,3.0898,3.0898,3.0898,3.0898,3.0781,3.0039,2.9687,2.9451,2.868,2.8285,2.81,2.8203,2.8159,2.8236,2.9044,2.9275,2.9429,3.0198,3.0379,3.0379,3.0379,3.0367,3.0086,2.9275,2.9687,2.9752,0.0,0.0,0.0,2.8812,2.7786,2.6841,2.6135,2.5911,2.5714,2.5297,2.5649,0.0,2.4941,2.4896,2.4859,2.4731,2.4543,0.0,0.0,0.0,0.0,2.4373,2.5805,0.0,2.4245,0.0,2.6483,2.418,2.5053,2.496,2.3934,2.3782,2.3413,2.2834,2.2712,2.2527,2.2327,2.2327,2.2327,2.2327,2.2327,2.2327,2.2327,2.2327,2.2003,2.1521,4.291,4.4819,4.6067,4.4745,4.6361,4.8306,4.9554,4.9297,4.9297,5.0251,5.1793,5.2784,5.2784,5.3041,5.2894,5.205,5.1867,5.1136,4.9561,4.8377,4.7436,4.689,4.5718,4.4401,4.2893,4.0662,3.9277,3.8854,3.6007,3.5276,3.6469,3.5815,3.547,3.5366,3.5593,3.474,3.3082,3.2304,3.207,3.2109,3.125,3.1328,3.1875,3.1172,3.0898,3.0898,3.0898,3.0898,3.0898,3.0703,3.0195,2.9686,3.0044,2.9219,2.8333,2.9582,2.9467,2.9083,2.9929,3.016,3.0198,3.034,3.0379,3.0379,3.0379,3.0241,2.9907,2.9214,2.9091,2.904,2.8906,0.0,0.0,0.0,0.0,0.0,0.0,2.7121,2.6673,2.6577,2.595,2.5429,2.5318,2.5448,2.5186,2.4377,2.4284,0.0,0.0,0.0,0.0,0.0,2.6098,0.0,0.0,0.0,2.6753,2.6598,2.6116,2.5626,2.5136,2.427,2.378,2.3638,2.2754,2.2349,2.2327,2.2327,2.2327,2.2327,2.2327,2.2327,2.2327,2.2327,2.2003,2.1521,4.6471,4.6911,4.7278,4.7792,4.882,5.0141,5.1793,5.2087,5.194,5.1463,5.2087,5.2417,5.2013,5.2711,5.2894,5.205,5.161,5.0875,4.9664,4.8787,4.7922,4.7033,4.6605,4.5337,4.3162,4.0585,3.9084,3.8623,3.5661,3.4853,3.6084,3.5699,3.5509,3.5519,3.5219,3.471,3.3984,0.0,0.0,3.2734,3.1914,3.1836,3.2148,3.1719,3.1289,3.0898,3.0898,3.0898,3.0898,3.0898,3.0625,3.0311,3.0511,3.0041,2.9538,3.0199,3.0121,2.989,3.0314,3.0379,3.0314,2.9852,3.0083,3.0275,2.9813,2.9985,3.0139,2.9829,2.9716,2.964,2.9763,2.9344,0.0,0.0,0.0,0.0,0.0,0.0,2.727,2.65,2.6284,2.5856,2.5023,2.5301,0.0,2.4282,2.419,2.419,0.0,0.0,0.0,0.0,0.0,0.0,0.0,0.0,0.0,2.6315,2.6336,2.595,2.5212,2.4726,2.4356,2.4184,2.3667,2.3444,2.3444,2.3444,2.3444,2.341,2.3004,2.2868,2.2835,2.2462,2.218,2.1915,4.9591,4.9077,4.8967,5.0729,5.1463,5.2234,5.3518,5.4399,5.4326,5.2711,5.2344,5.2013,5.1389,5.2454,5.2821,5.183,5.1169,5.0401,4.9489,4.8783,4.7991,4.7143,4.7048,4.5833,4.3431,4.0854,3.9046,0.0,0.0,0.0,3.5238,3.543,3.5405,3.5226,3.4903,0.0,0.0,0.0,3.2694,3.3046,3.2226,3.2031,3.2187,3.2187,3.1641,3.0937,3.1094,3.1055,3.0898,3.0898,3.0898,3.0858,3.0685,3.0598,3.0594,3.0472,3.0414,3.0379,3.0379,3.0275,2.9967,2.927,2.9627,2.9974,2.928,2.9781,3.0425,3.039,3.0379,3.0379,3.0379,2.9852,0.0,0.0,0.0,0.0,0.0,0.0,2.7624,2.6255,2.6711,2.6395,2.4594,0.0,0.0,0.0,0.0,2.419,2.419,2.5107,0.0,0.0,0.0,2.8008,2.6838,0.0,2.8017,0.0,2.6599,2.6295,2.539,2.5217,2.497,2.476,2.4591,2.4523,2.4523,2.4523,2.4523,2.4455,2.3849,2.3545,2.3342,2.2767,2.2429,2.2271,5.0655,5.1756,5.2491,5.1977,5.3702,5.5207,5.5354,5.6051,5.6014,5.4399,5.3555,5.3078,5.3004,5.3115,5.2601,5.1059,5.0839,5.0301,4.9036,4.7471,4.6877,4.74,4.6085,4.4975,4.4201,4.17,3.9585,0.0,0.0,3.5007,0.0,3.5122,3.5123,0.0,0.0,0.0,0.0,3.2884,3.2784,3.2051,3.1326,3.1484,3.2187,3.2187,3.1641,3.1016,3.1797,3.1562,3.0898,3.0898,3.0898,3.0898,3.0721,3.0637,3.0607,3.0496,3.0451,3.0379,3.0379,2.9813,2.9231,2.9178,2.9253,2.93,2.9205,2.9872,3.0472,3.0414,3.0379,3.0379,3.0379,3.034,3.0215,0.0,0.0,0.0,0.0,0.0,2.7714,2.668,2.7243,2.6801,2.4448,2.6266,0.0,0.0,2.4593,2.419,2.419,2.5658,2.6502,2.6502,0.0,2.9065,2.9258,2.8737,0.0,2.8195,2.7539,2.7009,2.6521,2.5876,2.5539,2.5473,2.4763,2.4523,2.4523,2.4523,2.4523,2.4489,2.4421,2.3985,2.3376,2.3308,2.2868,2.231,5.3665,5.3408,5.3555,5.4693,5.4876,0.0,0.0,5.6492,5.5831,5.5207,5.4436,5.3739,5.3261,5.3225,5.2651,5.1231,5.1083,5.0598,4.9346,4.8381,4.7757,4.751,4.664,4.5592,4.4316,4.2816,4.0969,0.0,0.0,0.0,0.0,0.0,0.0,0.0,0.0,3.4292,3.3466,3.3295,3.3345,3.3473,3.318,3.2973,3.2877,3.2877,3.2026,3.0937,3.1289,3.1211,3.0898,3.0898,3.0898,3.0898,3.0726,3.0664,3.0637,3.0562,3.0545,3.0513,3.0513,3.028,2.9784,2.8766,2.9285,2.9797,2.878,2.9552,3.0509,3.0453,3.0409,3.0379,3.0379,3.0379,3.0292,0.0,0.0,0.0,0.0,0.0,0.0,2.7618,2.7803,2.7432,2.595,0.0,0.0,0.0,0.0,2.5658,2.5658,2.6722,2.731,2.731,0.0,2.871,2.8871,2.8116,2.7742,2.7785,2.7188,2.6858,2.6691,2.6387,2.6251,2.6251,2.5947,2.5812,2.5812,2.5812,2.5812,2.5778,2.5338,2.4966,2.4661,2.4222,2.3698,2.3152,5.5904,0.0,5.4876,0.0,5.6014,5.5757,5.7703,5.6418,5.5317,5.5574,5.4785,5.3944,5.3261,5.3314,5.2819,5.1414,5.1442,5.0997,4.9759,4.9125,4.8457,4.7707,4.7165,0.0,4.4701,4.3855,4.2316,4.0046,3.9777,0.0,0.0,0.0,0.0,0.0,3.482,3.4409,3.3999,3.3666,3.372,3.4039,3.4107,3.3763,3.3297,3.357,3.2784,3.1637,3.191,3.1835,3.1641,3.1641,3.1641,3.1523,3.0929,3.0723,3.071,3.0633,3.0603,3.0586,3.0586,3.0431,2.9969,2.8783,2.9411,2.9956,2.8788,2.9563,3.0559,3.0496,3.0675,3.0821,3.0775,3.0968,3.1085,3.0877,0.0,0.0,0.0,2.9907,0.0,2.8334,2.8446,2.811,2.7009,2.7227,0.0,0.0,0.0,2.709,2.6649,2.7346,0.0,0.0,0.0,0.0,0.0,2.8057,2.7552,2.7459,2.696,2.6691,2.6691,2.6691,2.6691,2.6691,2.6691,2.6691,2.6691,2.6691,2.6691,2.6657,2.6116,2.5778,2.5541,2.5,2.4344,2.372,5.6638,5.6785,5.7042,5.785,5.7299,5.7042,5.7886,5.5941,5.4693,5.55,5.4526,5.3643,5.323,5.3565,5.3088,5.145,5.1743,5.1424,5.0163,4.931,4.8586,0.0,0.0,4.6509,4.5586,4.4739,4.347,4.1777,0.0,0.0,3.6699,0.0,3.5045,3.425,3.5122,3.4545,3.2981,3.3892,3.379,3.3026,3.3177,3.3213,3.3297,3.416,3.3974,3.336,3.4261,3.4051,3.3359,3.3359,3.3359,3.3086,3.1406,3.0814,3.0716,3.0713,3.0642,3.0586,3.0586,3.0003,2.944,2.9452,2.9506,2.9508,2.9503,3.0127,3.065,3.0529,3.1176,3.1758,3.1684,3.2314,3.2852,3.2891,0.0,0.0,0.0,3.1097,0.0,2.8709,2.9204,0.0,2.7102,2.8388,0.0,0.0,0.0,0.0,0.0,0.0,0.0,2.8938,2.9362,0.0,3.0163,2.8987,2.8184,2.7807,2.7063,2.6691,2.6691,2.6691,2.6691,2.6691,2.6691,2.6691,2.6691,2.6691,2.6691,2.6691,2.6691,2.6251,2.5609,2.5609,2.4778,2.3752,5.7556,5.7629,5.7703,5.796,5.7336,5.6895,5.7152,5.5802,5.4902,5.5161,5.465,5.4221,5.4121,5.4187,5.3709,0.0,5.2323,5.1879,0.0,4.914,4.826,4.8125,4.6778,4.5893,4.5586,4.5316,4.4355,4.2701,0.0,0.0,0.0,3.7853,3.6738,3.5892,3.5622,3.5199,3.4699,3.4982,3.4956,3.4687,3.4735,3.4427,3.3964,3.4274,3.3876,3.3256,3.3568,3.3496,3.3341,3.3341,3.3354,3.332,3.2773,3.2577,3.2421,3.1754,3.164,3.1552,3.0964,3.0614,3.0421,3.0465,3.0466,3.0467,3.0466,3.1042,3.1714,3.2253,3.2545,3.2764,3.2734,3.2899,3.2831,3.2251,3.1917,0.0,0.0,0.0,3.0114,2.9582,3.0266,0.0,0.0,2.9999,0.0,0.0,0.0,0.0,0.0,0.0,0.0,0.0,3.0771,0.0,3.0198,2.9796,2.9275,2.8619,2.8383,2.8247,2.8247,2.8247,2.8247,2.8247,2.8247,2.8247,2.8247,2.8247,2.7943,2.7469,2.7469,2.6996,2.6353,2.6353,2.5916,2.5231,5.7997,5.7997,5.7886,5.7593,5.6895,5.6389,5.6535,5.5424,5.469,5.5172,5.4942,5.4731,5.4731,5.4848,0.0,5.2755,5.2766,5.2219,5.0779,4.9663,4.8779,4.8125,4.7086,4.624,4.5586,0.0,0.0,4.4047,4.3893,4.2701,4.0469,3.9123,3.8007,3.7161,3.6661,3.643,3.643,3.643,3.643,3.643,3.643,3.5945,3.5222,3.5222,3.4729,3.4101,3.4146,3.4208,3.4261,3.4317,3.4332,3.4375,3.4333,3.4374,3.414,3.2865,3.2558,3.2495,3.1947,3.1835,3.1836,3.1836,3.1836,3.1836,3.1836,3.2185,3.2678,3.3145,3.3517,3.3707,3.3679,3.3898,3.3891,3.3355,3.2789,3.2109,3.1264,0.0,3.0532,0.0,0.0,0.0,0.0,3.1073,3.1054,0.0,0.0,0.0,0.0,0.0,0.0,3.1581,3.1273,0.0,3.0791,3.0381,2.9903,2.9397,2.9127,2.9028,2.9028,2.9028,2.9028,2.9028,2.9028,2.9028,2.9028,2.9028,2.8687,2.8247,2.8247,2.7977,2.7537,2.7326,2.6932,2.6411,5.7997,5.7997,5.774,0.0,5.6169,0.0,5.6063,5.4839,5.431,5.5508,5.537,5.516,5.516,5.547,5.4863,5.2806,0.0,0.0,0.0,5.0587,4.9779,4.8163,4.8009,4.7201,4.5624,4.5586,4.5586,4.5586,4.397,4.2354,4.0739,3.9892,3.9008,3.8161,3.8123,3.8046,3.8007,3.8007,3.8007,3.8007,3.8007,3.7507,3.6776,3.679,3.6395,3.5805,3.585,3.5972,3.6066,3.6169,3.6172,3.6171,3.6113,3.6122,3.5819,3.3958,3.3402,3.3406,3.3406,3.339,3.3437,3.3555,3.3555,3.3516,3.3555,3.3594,3.3593,3.3656,3.4309,3.4878,3.4787,3.5353,3.5768,3.5652,3.4822,3.3887,3.3045,0.0,0.0,0.0,0.0,0.0,0.0,3.1808,3.2044,0.0,0.0,0.0,0.0,0.0,3.1333,3.2112,3.124,3.1115,3.1844,3.0748,3.0213,3.0176,2.9465,2.9127,2.9127,2.9127,2.9127,2.9127,2.9127,2.9127,2.9127,2.9127,2.913,2.9059,2.9059,2.9025,2.8921,2.8362,2.7818,2.7253,0.0,0.0,5.774,5.6932,5.6399,5.5872,5.5359,5.499,5.4924,5.5199,5.544,5.5554,5.5554,5.5621,5.4989,5.3212,5.3161,5.2472,5.0818,4.9433,4.8548,4.8125,4.6855,4.6009,4.5586,4.5586,4.5586,4.5586,4.4547,4.3816,4.3355,4.1893,4.0739,3.9892,3.9277,3.8623,3.8007,3.8007,3.8007,3.8007,3.8007,3.7892,3.7714,3.7822,3.7738,3.7598,3.7646,3.7731,3.7819,3.7828,3.7885,3.7969,3.7967,3.7883,3.736,3.5006,3.432,3.4373,3.4373,3.3905,3.3711,3.5039,3.4883,3.457,3.5234,3.5391,3.5742,3.7069,3.7498,3.7654,3.7611,3.7201,3.6382,3.5015,3.3984,3.2822,3.1279,3.0837,0.0,0.0,3.2122,3.2666,3.2808,3.2977,3.2889,0.0,0.0,0.0,0.0,3.2609,3.2879,3.3378,3.2847,3.2517,3.2332,3.1741,3.1233,3.0954,3.0751,3.0683,3.0683,3.0683,3.0683,3.0683,3.0683,3.0683,3.0683,3.0683,3.0345,2.9837,2.9837,2.9499,2.8991,2.8848,2.8439,2.7858,5.7997,5.7997,5.7794,5.7211,5.6611,5.6071,5.5672,5.535,5.516,5.535,5.5577,5.5703,5.5703,5.5703,5.5203,5.3895,5.3433,5.2472,5.0818,4.9433,4.8509,4.8125,4.724,4.6586,4.6201,4.6201,4.6009,4.5586,4.5124,4.4701,4.4278,4.3355,4.2508,4.1662,4.1239,4.08,4.0384,4.0384,4.0398,4.0432,3.9998,3.9573,3.9213,3.8872,3.8507,3.819,3.8319,3.838,3.8408,3.8463,3.8551,3.8594,3.8594,3.8552,3.8311,3.7294,3.671,3.6399,3.6399,3.6092,3.6016,3.6953,3.6836,3.6601,3.707,3.7187,3.7461,3.8398,3.8594,3.8594,3.8594,3.7841,3.6758,3.5373,3.4287,3.318,3.1823,3.1592,0.0,3.2199,3.3353,3.3929,3.3449,3.4071,3.4164,3.3235,0.0,0.0,3.3697,3.3907,3.404,3.4069,3.3646,3.3375,3.3283,3.2769,3.2247,3.1698,3.1698,3.1529,3.119,3.119,3.119,3.119,3.119,3.119,3.119,3.119,3.0954,3.0615,3.0615,3.0345,2.9973,2.9705,2.9204,2.8595,5.7997,5.7997,5.7884,5.7553,5.6852,5.6328,5.6397,5.5694,5.5287,5.5682,5.5703,5.5703,5.5703,5.5703,5.5395,5.4549,5.3818,5.2664,5.0971,4.9933,4.9086,4.8317,4.8048,4.7663,4.7086,4.6971,4.6471,4.5586,4.5586,4.5201,4.4509,4.4509,4.4064,4.3288,4.3288,4.3294,4.323,4.323,4.3306,4.3319,4.2509,4.1768,4.1042,4.0315,3.9626,3.9034,3.916,3.9195,3.9239,3.9334,3.9375,3.9375,3.9375,3.9375,3.9531,4.0273,3.9878,3.9156,3.9039,3.9096,3.9141,3.9023,3.8984,3.9023,3.9141,3.918,3.9219,3.9336,3.9375,3.9336,3.9179,3.8307,3.7308,3.6399,3.5157,3.4042,3.3374,0.0,3.3006,3.3276,3.4622,3.5078,3.4054,3.5241,3.5552,3.4265,3.4174,3.4468,0.0,3.5174,3.5096,3.4878,3.4285,3.4058,3.4202,3.3761,3.3168,3.2442,3.2442,3.2138,3.1529,3.1427,3.1427,3.1529,3.1292,3.1258,3.136,3.1258,3.1258,3.1326,3.1224,3.1258,3.1286,3.0667,3.0021,2.9451,5.7997,5.7997,5.7884,5.7553,5.708,5.6706,5.6425,5.5935,5.5621,5.5703,5.5703,5.5703,5.5703,5.5703,5.5395,5.4549,5.4395,5.3549,5.1818,5.0279,4.9356,4.9202,4.7855,4.7355,4.7894,4.724,4.6471,4.5586,4.5586,4.5509,4.5393,4.5393,4.4993,4.4266,4.4266,4.3939,4.338,4.338,4.3389,4.3405,4.3233,4.3108,4.2961,4.2961,4.2866,4.2759,4.2845,4.289,4.289,4.289,4.2891,4.2891,4.2891,4.2891,4.293,4.3086,4.3008,4.2733,4.1991,4.1797,4.1641,4.0976,4.0781,4.0976,4.1641,4.1797,4.2031,4.2773,4.2891,4.2655,4.1852,4.0398,3.9,3.7985,3.5863,3.4234,3.4031,0.0,3.3468,3.493,3.5353,3.5768,3.6474,3.675,3.6616,3.5956,3.5899,3.5973,3.6083,3.6083,3.6384,3.7014,3.5887,3.4939,3.4202,3.4125,3.3814,3.322,3.322,3.3186,3.3051,3.2408,3.2442,3.2983,3.1732,3.1529,3.207,3.1461,3.1562,3.2036,3.1427,3.1562,3.2036,3.1314,3.0683,3.0064,5.8418,5.8461,5.8564,5.8864,5.8694,5.8418,5.8132,5.7113,5.6395,5.6395,5.5972,5.5703,5.5703,5.5703,5.5549,5.5164,5.4741,5.4164,5.3356,5.1279,4.9894,4.9433,4.8663,4.8202,4.8086,4.774,4.6894,4.5586,4.5586,4.5586,4.5603,4.568,4.5539,4.5209,4.5254,4.5092,4.4838,4.4838,4.4899,4.4926,4.4431,4.422,4.4142,4.3743,4.3595,4.3603,4.3669,4.3711,4.3711,4.3711,4.3711,4.3711,4.3711,4.3711,4.3789,4.4258,4.4062,4.3594,4.3203,4.3086,4.3008,4.2656,4.2539,4.2656,4.3008,4.3086,4.3203,4.3633,4.3711,4.3553,4.3092,4.154,4.0149,3.9624,3.7305,0.0,0.0,3.5507,3.543,3.6699,3.7095,3.7239,3.7095,3.737,3.7168,3.636,3.6303,3.6486,3.6927,3.6927,3.711,3.7477,3.7071,3.6642,3.622,3.5657,3.5048,3.4425,3.4134,3.3795,3.3389,3.3051,3.2848,3.278,3.251,3.2341,3.2273,3.2341,3.2577,3.2814,3.207,3.2239,3.2747,3.1596,3.1072,3.0803,5.8951,5.8952,5.9248,5.9977,5.9862,5.9607,5.9518,5.8242,5.7242,5.7011,5.6395,5.5934,5.5703,5.5703,5.5703,5.5703,5.5126,5.4703,5.4511,5.2664,5.1087,5.0048,4.9817,4.9125,4.7855,4.8009,4.7278,4.5586,4.5586,4.5586,4.5603,4.5733,4.5803,4.584,4.5909,4.6008,4.6147,4.6147,4.6202,4.625,4.5536,4.5213,4.5135,4.4471,4.4237,4.424,4.4296,4.4297,4.4297,4.4297,4.4297,4.4297,4.4297,4.4297,4.4453,4.5117,4.4844,4.4297,4.4297,4.4297,4.4297,4.4297,4.4297,4.4297,4.4297,4.4297,4.4297,4.4256,4.4255,4.4169,4.3869,4.2517,4.1335,4.1016,0.0,0.0,0.0,3.8007,3.7815,3.8507,3.9026,3.9011,3.8055,3.8465,3.8312,3.7213,3.7147,3.7331,3.7734,3.7771,3.7771,3.7771,3.779,3.7851,3.7893,3.702,3.6226,3.555,3.5045,3.4472,3.3931,3.3728,3.3423,3.3051,3.3288,3.3186,3.2814,3.3254,3.3525,3.3592,3.2848,3.3017,3.3491,3.2171,3.1791,3.1745,5.9354,5.9354,5.9526,6.0006,5.9417,5.9033,5.9427,5.8781,5.7896,5.7088,5.6934,5.6588,5.578,5.5703,5.5703,5.5703,5.5665,5.528,5.4549,5.4318,5.3472,5.1779,5.101,4.9471,4.7048,4.774,4.7278,4.5586,4.5586,4.5586,4.5603,4.5733,4.5825,4.5909,4.6014,4.615,4.6289,4.6289,4.6289,4.6289,4.6211,4.6211,4.6172,4.6133,4.6094,4.6094,4.6094,4.6094,4.6094,4.6094,4.6094,4.6094,4.6094,4.6094,4.6133,4.6172,4.6172,4.6094,4.6094,4.6094,4.6094,4.6094,4.6094,4.6094,4.6094,4.6094,4.6053,4.5948,4.5941,4.563,4.4633,4.3645,4.2731,4.1863,0.0,0.0,4.0315,4.0239,4.0239,4.0315,4.0786,4.0967,4.0561,4.1023,4.0844,3.9711,3.9606,3.935,3.8652,3.8615,3.8615,3.8615,3.7888,3.7666,3.7893,3.7396,3.6829,3.6305,3.5786,3.552,3.5419,3.4742,3.4776,3.5284,3.3998,3.3761,3.4269,3.366,3.3795,3.4336,3.3626,3.3761,3.4303,3.3525,3.3212,3.3161,5.9885,6.0074,6.0338,6.0508,6.024,6.0098,6.0258,5.9588,5.8742,5.7896,5.7319,5.6665,5.578,5.5703,5.5703,5.5703,5.5703,5.5549,5.5241,5.5241,5.4241,5.201,5.1625,5.051,4.8509,4.824,4.7778,4.7163,4.6086,4.5893,4.6394,4.6035,4.5872,4.5927,4.614,4.6247,4.6289,4.6289,4.6289,4.6289,4.6289,4.6289,4.6289,4.6289,4.6289,4.6289,4.6289,4.6289,4.6289,4.6289,4.6289,4.6289,4.6289,4.668,4.7226,4.7734,4.7891,4.7891,4.7891,4.7109,4.6562,4.7656,4.75,4.7266,4.7773,4.7418,4.697,4.6913,4.641,4.5857,4.5401,4.4589,4.402,4.4119,0.0,4.1662,4.2701,4.197,4.1508,4.2047,4.1912,4.1737,4.1618,4.1427,4.1125,4.0671,4.0634,4.0524,4.0194,4.0194,3.9974,3.946,3.9129,3.8647,3.7893,3.7433,3.6904,3.6374,3.5854,3.5622,3.5622,3.5318,3.5081,3.4912,3.481,3.4675,3.4506,3.4709,3.4945,3.5115,3.437,3.4539,3.5047,3.3863,3.3694,3.3955,6.0365,6.0597,6.0781,6.0781,6.0781,6.0781,6.0781,6.0281,5.9627,5.8781,5.7934,5.7088,5.6203,5.5857,5.5703,5.5703,5.5703,5.5703,5.5703,5.5703,5.4818,5.2818,5.2202,5.1241,4.9856,4.8933,4.8392,4.8155,4.7014,4.6777,4.7395,4.6698,4.6364,4.6371,4.6317,4.6445,4.6719,4.6719,4.6875,4.7109,4.7109,4.7109,4.7109,4.7109,4.7109,4.7109,4.7109,4.6953,4.6719,4.6719,4.6719,4.6719,4.6719,4.7305,4.8125,4.8711,4.8906,4.8945,4.9219,4.8242,4.7383,4.8594,4.8437,4.8164,4.875,4.8348,4.7801,4.7741,4.7151,4.6546,4.6225,4.5655,4.5225,4.5197,4.3932,4.3316,4.4162,4.3547,4.3052,4.3289,4.308,4.2737,4.2344,4.2038,4.1772,4.1515,4.1479,4.1368,4.1111,4.1111,4.0855,4.0304,4.0267,3.9743,3.8651,3.7683,3.7122,3.6969,3.6283,3.6096,3.6332,3.6096,3.569,3.5216,3.5487,3.5318,3.4878,3.5419,3.5622,3.5554,3.5047,3.5148,3.5487,3.4472,3.4404,3.4776,6.0781,6.0781,6.0781,6.0781,6.0781,6.0781,6.0781,6.0781,6.0473,5.9627,5.8819,5.7973,5.7088,5.6203,5.5703,5.5703,5.5703,5.5703,5.5703,5.5703,5.5318,5.4549,5.2856,5.1548,5.076,4.9856,4.9059,4.8347,4.8308,4.8359,4.8513,4.778,4.742,4.7381,4.6637,4.6797,4.7617,4.7617,4.8125,4.8906,4.8906,4.8906,4.8906,4.8906,4.8906,4.8906,4.8906,4.8359,4.7617,4.7617,4.7617,4.7617,4.7617,4.8203,4.8906,4.8906,4.8945,4.9141,5.0,4.9609,4.8945,4.8906,4.8906,4.8906,4.8906,4.8814,4.8683,4.8552,4.841,4.8029,4.7083,4.6894,4.6317,4.4586,4.5047,4.5278,4.4432,4.5047,4.515,4.3954,4.427,4.4127,4.2954,4.3217,4.3167,4.2359,4.2323,4.1956,4.1185,4.1148,4.1148,4.1111,4.1111,4.0876,4.0312,3.8255,3.7598,3.8298,3.7291,3.7178,3.7889,3.7144,3.6806,3.6738,3.596,3.5656,3.5656,3.5656,3.5656,3.5656,3.5622,3.5622,3.5622,3.5622,3.5622,3.5622,6.0781,6.0781,6.0781,6.0781,6.0781,6.0781,6.0781,6.0781,6.0473,5.9627,5.8819,5.7973,5.7088,5.6203,5.5703,5.5703,5.5703,5.5703,5.5703,5.5703,5.5633,5.5513,5.4431,5.3481,5.2592,5.1269,5.0775,5.112,4.9342,4.8779,4.94,4.8677,4.8318,4.8322,4.8199,4.8281,4.8516,4.8516,4.8672,4.8906,4.8906,4.8906,4.8906,4.8906,4.8906,4.8906,4.8906,4.8711,4.8516,4.8516,4.8516,4.8633,4.9219,5.0,5.0664,5.0664,5.1523,5.2383,5.2031,5.2226,5.2187,5.0976,5.0234,4.9921,5.0412,4.997,4.9448,4.9302,4.8686,4.8081,4.7778,4.7278,4.674,4.6201,4.5817,4.5509,4.524,4.5432,4.538,4.4756,4.4649,4.4353,4.3692,4.3582,4.3387,4.3167,4.313,4.302,4.28,4.2763,4.2543,4.1956,4.1956,4.1595,4.0876,3.9878,3.9103,3.8579,3.8278,3.8048,3.7889,3.7686,3.7584,3.755,3.7313,3.7212,3.7212,3.7212,3.7212,3.7178,3.6637,3.6434,3.6366,3.5825,3.5622,3.5622,6.0781,6.0781,6.0781,6.0781,6.0781,6.0781,6.0781,6.0781,6.0589,6.0089,5.9281,5.8588,5.805,5.7242,5.6742,5.6742,5.6395,5.6049,5.5703,5.5768,5.5807,5.5907,5.5566,5.4956,5.4,5.2736,5.2182,5.238,5.0828,5.018,5.0405,4.9661,4.9283,4.9283,4.9022,4.9101,4.9414,4.9414,4.9609,4.9922,5.0273,5.0391,5.0391,5.0391,5.0391,5.0351,5.0,4.9687,4.9453,4.9766,5.0117,5.0547,5.1445,5.2031,5.2422,5.2422,5.3164,5.3906,5.3359,5.3553,5.3664,5.2607,5.1982,5.1626,5.1718,5.1187,5.0596,5.022,4.9611,4.9009,4.8663,4.824,4.7778,4.7432,4.6663,4.6124,4.6124,4.5706,4.5263,4.4943,4.4561,4.4204,4.3818,4.3631,4.3497,4.3497,4.3497,4.3497,4.3497,4.3497,4.3277,4.28,4.2763,4.2543,4.2066,4.1754,4.0959,3.9776,3.9347,3.9112,3.9084,3.8526,3.8328,3.8328,3.8024,3.7922,3.7922,3.7922,3.7922,3.7821,3.7077,3.6975,3.711,3.6028,3.5825,3.6028,6.0781,6.0781,6.0781,6.0781,6.0781,6.0781,6.0781,6.0781,6.0781,6.0781,6.005,5.9511,5.9511,5.8781,5.8319,5.8319,5.7511,5.6626,5.5742,5.5825,5.5924,5.5939,5.6212,5.5971,5.5073,5.4216,5.3408,5.2737,5.2659,5.2248,5.1484,5.0781,5.0391,5.0273,4.9492,4.957,5.0312,5.0391,5.0859,5.1601,5.2461,5.2812,5.2812,5.2812,5.2812,5.2695,5.1914,5.1172,5.0664,5.1406,5.2148,5.2969,5.375,5.4062,5.4101,5.4023,5.4101,5.4218,5.4101,5.4044,5.3994,5.3994,5.3988,5.3748,5.2785,5.2396,5.1997,5.1246,5.0945,5.0548,4.9779,4.951,4.9125,4.8355,4.7548,4.6952,4.6857,4.5896,4.5042,4.4599,4.4204,4.3881,4.3529,4.3497,4.3497,4.3497,4.3497,4.3497,4.3497,4.3497,4.3497,4.3497,4.3497,4.3497,4.3497,4.3497,4.2813,4.1501,4.0461,4.0273,4.0839,3.9637,3.9073,3.9039,3.8396,3.8091,3.8091,3.8091,3.8091,3.8024,3.728,3.7415,3.7821,3.6299,3.6163,3.6671,6.0781,6.0781,6.0781,6.0781,6.0781,6.0781,6.0781,6.0781,6.0781,6.0781,6.005,5.9511,5.9511,5.8781,5.8319,5.8319,5.7511,5.6626,5.5742,5.5825,5.5947,5.6135,5.6293,5.6367,5.6241,5.5382,5.4837,5.4685,5.4021,5.3241,5.2422,5.2226,5.1797,5.1133,5.0937,5.0976,5.1172,5.1875,5.2266,5.25,5.3359,5.3711,5.3711,5.3711,5.3711,5.3672,5.3516,5.332,5.3203,5.3398,5.3555,5.375,5.3945,5.4453,5.4883,5.4219,5.4874,5.5747,5.5044,5.5262,5.5687,5.5687,5.5563,5.5034,5.356,5.3155,5.305,5.2742,5.2127,5.1587,5.1395,5.0279,4.9356,4.9163,4.8394,4.7511,4.6543,4.6189,4.558,4.4279,4.4058,4.3881,4.3529,4.3497,4.3497,4.3497,4.3497,4.3497,4.3497,4.3497,4.3497,4.3497,4.3497,4.3497,4.3497,4.3497,4.3105,4.2441,4.1689,4.12,4.0874,4.0148,3.9851,3.9851,3.9681,3.9614,3.9614,3.9614,3.9614,3.9546,3.8802,3.8599,3.8565,3.7077,3.6637,3.6671,6.0781,6.0781,6.0781,6.0781,6.0781,6.0781,6.0781,6.0781,6.0781,6.0781,6.0396,6.0127,6.0127,5.9742,5.9319,5.8896,5.8088,5.7268,5.6464,5.6188,5.6096,5.6277,5.6402,5.6517,5.6601,5.6133,5.5703,5.5312,5.4844,5.418,5.332,5.332,5.3086,5.2656,5.2656,5.2656,5.2656,5.3125,5.332,5.3398,5.4258,5.4609,5.4609,5.4609,5.4609,5.457,5.4141,5.4258,5.4609,5.4609,5.4883,5.5234,5.5234,5.5547,5.582,5.5351,5.5807,5.6313,5.584,5.5891,5.6071,5.6071,5.5924,5.5477,5.4281,5.3984,5.3783,5.33,5.2856,5.251,5.251,5.1471,5.0587,5.0587,4.9548,4.8413,4.7602,4.6678,4.5696,4.4692,4.4072,4.3693,4.3532,4.3497,4.3497,4.3497,4.3497,4.3497,4.3497,4.3497,4.3497,4.3497,4.3497,4.3497,4.3497,4.3497,4.3214,4.2693,4.2062,4.1473,4.0874,4.0319,4.0087,4.0087,4.0087,4.0087,4.0087,4.0087,4.0087,4.002,3.9276,3.9208,3.9343,3.7855,3.7077,3.6671,6.0781,6.0781,6.0781,6.0781,6.0781,6.0781,6.0781,6.0781,6.0781,6.0781,6.0781,6.0781,6.0781,6.0781,6.0435,5.9588,5.8896,5.8175,5.7425,5.69,5.6592,5.6563,5.6747,5.6758,5.6601,5.6601,5.625,5.5508,5.5508,5.5078,5.4219,5.4219,5.4141,5.3984,5.3984,5.3984,5.4023,5.4141,5.4219,5.4297,5.5156,5.5508,5.5508,5.5508,5.5508,5.543,5.4687,5.4922,5.5508,5.5508,5.6015,5.6601,5.6601,5.6601,5.6601,5.6561,5.6462,5.6368,5.6308,5.6096,5.5857,5.5857,5.5789,5.5535,5.4989,5.4786,5.4511,5.378,5.351,5.3433,5.3433,5.2587,5.1895,5.1895,5.0625,4.9411,4.8805,4.7276,4.6008,4.5388,4.4361,4.3644,4.3497,4.3497,4.3497,4.3497,4.3497,4.3497,4.3497,4.3497,4.3497,4.3497,4.3497,4.3497,4.3497,4.3497,4.3214,4.2693,4.2062,4.1473,4.0874,4.0319,4.0087,4.0087,4.0087,4.0087,4.0087,4.0087,4.0087,4.002,3.9411,3.9546,3.9918,3.8599,3.7618,3.6874,6.0781,6.0781,6.0781,6.0781,6.0781,6.0781,6.0781,6.0781,6.0781,6.0781,6.0781,6.0781,6.0781,6.0781,6.0435,5.9588,5.9396,5.8995,5.8209,5.8265,5.8031,5.7302,5.7551,5.7383,5.6601,5.6601,5.6523,5.6406,5.6406,5.5976,5.5117,5.5117,5.4726,5.3984,5.3984,5.3984,5.4062,5.4805,5.5117,5.5195,5.6055,5.6406,5.6406,5.6406,5.6406,5.6406,5.6289,5.6328,5.6406,5.6406,5.6484,5.6601,5.6601,5.6601,5.6562,5.6458,5.6347,5.6191,5.6005,5.5861,5.5728,5.5728,5.5686,5.5686,5.5591,5.5532,5.5511,5.5395,5.4818,5.4318,5.4318,5.301,5.1895,5.1895,5.1125,5.004,4.8564,4.8126,4.7425,4.5987,4.5075,4.4268,4.3571,4.3497,4.3497,4.3497,4.3497,4.3497,4.3497,4.3497,4.3497,4.3497,4.3497,4.3497,4.3497,4.3497,4.3214,4.2693,4.2062,4.1473,4.0874,4.0319,4.0087,4.0087,4.0087,4.0087,4.0087,4.0087,4.0087,4.0054,3.9986,3.9986,3.9986,3.914,3.8396,3.7753,6.0781,6.0781,6.0781,6.0781,6.0781,6.0781,6.0781,6.0781,6.0781,6.0781,6.0781,6.0781,6.0781,6.0781,6.0666,6.0242,5.9781,5.9386,5.9109,5.8852,5.8559,5.8234,5.8499,5.8437,5.8047,5.8047,5.7812,5.7344,5.6836,5.6406,5.6015,5.6015,5.582,5.5469,5.5469,5.5469,5.5469,5.5859,5.6015,5.6055,5.6445,5.6601,5.6601,5.6601,5.6601,5.6601,5.6601,5.6601,5.6601,5.6601,5.6601,5.6601,5.6601,5.6601,5.6561,5.645,5.6324,5.6158,5.5932,5.5788,5.5703,5.5703,5.5703,5.5703,5.5703,5.5703,5.5703,5.5703,5.5434,5.5164,5.5164,5.4164,5.3356,5.3356,5.2039,5.0718,4.9844,4.8716,4.7452,4.6029,4.559,4.5223,4.4892,4.4415,4.4158,4.4158,4.3754,4.3497,4.3497,4.3497,4.3497,4.3497,4.3497,4.3497,4.3497,4.3497,4.3214,4.2693,4.2422,4.181,4.0874,4.0319,4.0087,4.0087,4.0087,4.0087,4.0087,4.0087,4.0087,4.0087,4.0087,4.0087,3.9986,3.9276,3.8802,3.8464]}]]